[[{"header":{"parameterUnit":"m.s-1","parameterCategory":1,"la1":30.6,"la2":29.2853,"lo1":-89.7004,"lo2":-87.6739,"dy":0.0162,"dx":0.0183,"nx":112,"ny":82,"refTime":"2024-05-14T06:00:00:Z","depth":0,"parameterNumber":2,"parameterNumberName":"U-component_of_WINDS"},"data":[0.0,0.0,0.0,0.0,0.0,0.0,0.0,0.0,0.0,0.0,0.0,0.0,0.0,0.0,0.0,0.0,0.0,0.0,0.0,0.0,0.0,0.0,0.0,0.0,0.0,0.0,0.0,0.0,0.0,0.0,0.0,0.0,0.0,0.0,0.0,0.0,0.0,0.0,0.0,0.0,0.0,0.0,0.0,0.0,0.0,0.0,0.0,0.0,0.0,0.0,0.0,0.0,0.0,0.0,0.0,0.0,0.0,0.0,0.0,0.0,0.0,0.0,0.0,0.0,0.0,0.0,0.0,0.0,0.0,0.0,0.0,0.0,0.0,0.0,0.0,0.0,0.0,0.0,0.0,0.0,0.0,0.0,0.0,0.0,0.0,0.0,0.0,0.0,0.0,0.0,0.8729,0.9428,1.1917,1.3652,1.3931,1.3818,1.2725,1.034,0.0,0.0,0.0,0.0,0.0,0.0,0.0,0.0,0.0,0.0,0.0,0.0,0.0,0.0,0.0,0.0,0.0,0.0,0.0,0.0,0.0,0.0,0.0,0.0,0.0,0.0,0.0,0.0,0.0,0.0,0.0,0.0,0.0,0.0,0.0,0.0,0.0,0.0,0.0,0.0,0.0,0.0,0.0,0.0,0.0,0.0,0.0,0.0,0.0,0.0,0.0,0.0,0.0,0.0,0.0,0.0,0.0,0.0,0.0,0.0,0.0,0.0,0.0,0.0,0.0,0.0,0.0,0.0,0.0,0.0,0.0,0.0,0.0,0.0,0.0,0.0,0.0,0.0,0.0,0.0,0.0,0.0,0.0,0.0,0.0,0.0,0.0,0.0,0.0,0.0,0.0,0.0,0.0,0.0,0.0,0.0,0.0,0.0,0.0,0.0,0.0,0.0,0.0,0.0,0.895,1.0599,1.1152,1.1495,1.1936,1.0801,0.9601,0.8495,0.0,0.0,0.0,0.0,0.0,0.0,0.0,0.0,0.0,0.0,0.0,0.0,0.0,0.0,0.0,0.0,0.0,0.0,0.0,0.0,0.0,0.0,0.0,0.0,0.0,0.0,0.0,0.0,0.0,0.0,0.0,0.0,0.0,0.0,0.0,0.0,0.0,0.0,0.0,0.0,0.0,0.0,0.0,0.0,0.0,0.0,0.0,0.0,0.0,0.0,0.0,0.0,0.0,0.0,0.0,0.0,0.0,0.0,0.0,0.0,0.0,0.0,0.0,0.0,0.0,0.0,0.0,0.0,0.0,0.0,0.0,0.0,0.0,0.0,0.0,0.0,0.0,0.0,0.0,0.0,0.0,0.0,0.0,0.0,0.0,0.0,0.0,0.0,0.0,0.0,0.0,0.0,0.0,0.0,0.0,0.0,0.0,0.0,0.0,0.0,0.0,0.0,0.0,0.718,0.8215,0.9808,1.0103,1.01,1.011,0.9316,0.8427,0.728,0.7514,0.0,0.0,0.0,0.0,0.0,0.0,0.0,0.0,0.0,0.0,0.0,0.0,0.0,0.0,0.0,0.0,0.0,0.0,0.0,0.0,0.0,0.0,0.0,0.0,0.0,0.0,0.0,0.0,0.0,0.0,0.0,0.0,0.0,0.0,0.0,0.0,0.0,0.0,0.0,0.0,0.0,0.0,0.0,0.0,0.0,0.0,0.0,0.0,0.0,0.0,0.0,0.0,0.0,0.0,0.0,0.0,0.0,0.0,0.0,0.0,0.0,0.0,0.0,0.0,0.0,0.0,0.0,0.0,0.0,0.0,0.0,0.0,0.0,0.0,0.0,0.0,0.0,0.0,0.0,0.0,0.0,0.0,0.0,0.0,0.0,0.0,0.0,0.0,0.0,0.0,0.0,0.0,0.0,0.0,0.0,0.0,0.0,0.0,0.0,0.0,0.0,0.0,0.6972,0.7287,0.885,0.9035,0.8988,0.8803,0.8292,0.75,0.6531,0.586,0.0,0.0,0.0,0.0,0.0,0.0,0.0,0.0,0.0,0.0,0.0,0.0,0.0,0.0,0.0,0.0,0.0,0.0,0.0,0.0,0.0,0.0,0.0,0.0,0.0,0.0,0.0,0.0,0.0,0.0,0.0,0.0,0.0,0.0,0.0,0.0,0.0,0.0,0.0,0.0,0.0,0.0,0.0,0.0,0.0,0.0,0.0,0.0,0.0,0.0,0.0,0.0,0.0,0.0,0.0,0.0,0.0,0.0,0.0,0.0,0.0,0.0,0.0,0.0,0.0,0.0,0.0,0.0,0.0,0.0,0.0,0.0,0.0,0.0,0.0,0.0,0.0,0.0,0.0,0.0,0.0,0.0,0.0,0.0,0.0,0.0,0.0,0.0,0.0,0.0,0.0,0.0,0.0,0.0,0.0,0.0,0.0,0.0,0.0,0.0,0.0,0.0,0.6167,0.647,0.8505,0.8199,0.8,0.8513,0.7203,0.6227,0.595,0.4882,0.0,0.0,0.0,0.0,0.0,0.0,0.0,0.0,0.0,0.0,0.0,0.0,0.0,0.0,0.0,0.0,0.0,0.0,0.0,0.0,0.0,0.0,0.0,0.0,0.0,0.0,0.0,0.0,0.0,0.0,0.0,0.0,0.0,0.0,0.0,0.0,0.0,0.0,0.0,0.0,0.0,0.0,0.0,0.0,0.0,0.0,0.0,0.0,0.0,0.0,0.0,0.0,0.0,0.0,0.0,0.0,0.0,0.0,0.0,0.0,0.0,0.0,0.0,0.0,0.0,0.0,0.0,0.0,0.0,0.0,0.0,0.0,0.0,0.0,0.0,0.0,0.0,0.0,0.0,0.0,0.0,0.0,0.0,0.0,0.0,0.0,0.0,0.0,0.0,0.0,0.0,0.0,0.0,0.0,0.0,0.0,0.0,0.0,0.0,0.0,0.0,0.0,0.5477,0.5762,0.7053,0.695,0.6895,0.7081,0.5994,0.5139,0.4745,0.0,0.0,0.0,0.0,0.0,0.0,0.0,0.0,0.0,0.0,0.0,0.0,0.0,0.0,0.0,0.0,0.0,0.0,0.0,0.0,0.0,0.0,0.0,0.0,0.0,0.0,0.0,0.0,0.0,0.0,0.0,0.0,0.0,0.0,0.0,0.0,0.0,0.0,0.0,0.0,0.0,0.0,0.0,0.0,0.0,0.0,0.0,0.0,0.0,0.0,0.0,0.0,0.0,0.0,0.0,0.0,0.0,0.0,0.0,0.0,0.0,0.0,0.0,0.0,0.0,0.0,0.0,0.0,0.0,0.0,0.0,0.0,0.0,0.0,0.0,0.0,0.0,0.0,0.0,0.0,0.0,0.0,0.0,0.0,0.0,0.0,0.0,0.0,0.0,0.0,0.0,0.0,0.0,0.0,0.0,0.0,0.0,0.0,0.0,0.0,0.0,0.0,0.4628,0.4915,0.5323,0.6012,0.5582,0.5295,0.5295,0.4668,0.4197,0.4023,0.0,0.0,0.0,0.0,0.0,0.0,0.0,0.0,0.0,0.0,0.0,0.0,0.0,0.0,0.0,0.0,0.0,0.0,0.0,0.0,0.0,0.0,0.0,0.0,0.0,0.0,0.0,0.0,0.0,0.0,0.0,0.0,0.0,0.0,0.0,0.0,0.0,0.0,0.0,0.0,0.0,0.0,0.0,0.0,0.0,0.0,0.0,0.0,0.0,0.0,0.0,0.0,0.0,0.0,0.0,0.0,0.0,0.0,0.0,0.0,0.0,0.0,0.0,0.0,0.0,0.0,0.0,0.0,0.0,0.0,0.0,0.0,0.0,0.0,0.0,0.0,0.0,0.0,0.0,0.0,0.0,0.0,0.0,0.0,0.0,0.0,0.0,0.0,0.0,0.0,0.0,0.0,0.0,0.0,0.0,0.0,0.0,0.0,0.0,0.0,0.0,0.0,0.3766,0.4534,0.5216,0.5578,0.4091,0.3072,0.3034,0.3069,0.3366,0.0,0.0,0.0,0.0,0.0,0.0,0.0,0.0,0.0,0.0,0.0,0.0,0.0,0.0,0.0,0.0,0.0,0.0,0.0,0.0,0.0,0.0,0.0,0.0,0.0,0.0,0.0,0.0,0.0,0.0,0.0,0.0,0.0,0.0,0.0,0.0,0.0,0.0,0.0,0.0,0.0,0.0,0.0,0.0,0.0,0.0,0.0,0.0,0.0,0.0,0.0,0.0,0.0,0.0,0.0,0.0,0.0,0.0,0.0,0.0,0.0,0.0,0.0,0.0,0.0,0.0,0.0,0.0,0.0,0.0,0.0,0.0,0.0,0.0,0.0,0.0,0.0,0.0,0.0,0.0,0.0,0.0,0.0,0.0,0.0,0.0,0.0,0.0,0.0,0.0,0.0,0.0,0.0,0.0,0.0,0.0,0.0,0.0,0.0,0.0,0.0,0.0,0.0,0.3817,0.4327,0.5017,0.5958,0.2975,0.0927,0.092,0.0893,0.1012,0.1196,0.0,0.0,0.0,0.0,0.0,0.0,0.0,0.0,0.0,0.0,0.0,0.0,0.0,0.0,0.0,0.0,0.0,0.0,0.0,0.0,0.0,0.0,0.0,0.0,0.0,0.0,0.0,0.0,0.0,0.0,0.0,0.0,0.0,0.0,0.0,0.0,0.0,0.0,0.0,0.0,0.0,0.0,0.0,0.0,0.0,0.0,0.0,0.0,0.0,0.0,0.0,0.0,0.0,0.0,0.0,0.0,0.0,0.0,0.0,0.0,0.0,0.0,0.0,0.0,0.0,0.0,0.0,0.0,0.0,0.0,0.0,0.0,0.0,0.0,0.0,0.0,0.0,0.0,0.0,0.0,0.0,0.0,0.0,0.0,0.0,0.0,0.0,0.0,0.0,0.0,0.0,0.0,0.0,0.0,0.0,0.0,0.0,0.0,0.0,0.0,0.0,0.0,0.3105,0.3937,0.468,0.546,0.2192,-0.0,-0.0,-0.0,-0.0342,-0.1131,0.0,0.0,0.0,0.0,0.0,0.0,0.0,0.0,0.0,0.0,0.0,0.0,0.0,0.0,0.0,0.0,0.0,0.0,0.0,0.0,0.0,0.0,0.0,0.0,0.0,0.0,0.0,0.0,0.0,0.0,0.0,0.0,0.0,0.0,0.0,0.0,0.0,0.0,0.0,0.0,0.0,0.0,0.0,0.0,0.0,0.0,0.0,0.0,0.0,0.0,0.0,0.0,0.0,0.0,0.0,0.0,0.0,0.0,0.0,0.0,0.0,0.0,0.0,0.0,0.0,0.0,0.0,0.0,0.0,0.0,0.0,0.0,0.0,0.0,0.0,0.0,0.0,0.0,0.0,0.0,0.0,0.0,0.0,0.0,0.0,0.0,0.0,0.0,0.0,0.0,0.0,0.0,0.0,0.0,0.0,0.0,0.0,0.0,0.0,0.0,0.0,0.0,0.1903,0.3347,0.4234,0.3907,0.1589,-0.0138,-0.0391,-0.0429,-0.1097,-0.2722,0.0,0.0,0.0,0.0,0.0,0.0,0.0,0.0,0.0,0.0,0.0,0.0,0.0,0.0,0.0,0.0,0.0,0.0,0.0,0.0,0.0,0.0,0.0,0.0,0.0,0.0,0.0,0.0,0.0,0.0,0.0,0.0,0.0,0.0,0.0,0.0,0.0,0.0,0.0,0.0,0.0,0.0,0.0,0.0,0.0,0.0,0.0,0.0,0.0,0.0,0.0,0.0,0.0,0.0,0.0,0.0,0.0,0.0,0.0,0.0,1.0964,0.0,0.0,0.0,0.0,0.0,0.0,0.0,0.0,0.0,0.0,0.0,0.0,0.0,0.0,0.0,0.0,0.0,0.0,0.0,0.0,0.0,0.0,0.0,0.0,0.0,0.0,0.0,0.0,0.0,0.0,0.0,0.0,0.0,0.0,0.0,0.0,0.0,0.0,0.0,0.0,0.0,0.1141,0.2358,0.2671,0.107,0.0346,-0.0901,-0.322,-0.3362,-0.2982,-0.2096,-0.2171,0.0,0.0,0.0,0.0,0.0,0.0,0.0,0.0,0.0,0.0,0.0,0.0,0.0,0.0,0.0,0.0,0.0,0.0,0.0,0.0,0.0,0.0,0.0,0.0,0.0,0.0,0.0,0.0,0.0,0.0,0.0,0.0,0.0,0.0,0.0,0.0,0.0,0.0,0.0,0.0,0.0,0.0,0.0,0.0,0.0,0.0,0.0,0.0,0.0,0.0,0.0,0.0,0.0,0.0,0.0,0.0,0.0,0.0,0.0,0.0,1.044,0.0,0.0,0.0,0.0,0.0,0.0,0.0,0.0,0.0,0.0,0.0,0.0,0.0,0.0,0.0,0.0,0.0,0.0,0.0,0.0,0.0,0.0,0.0,0.0,0.0,0.0,0.0,0.0,0.0,0.0,0.0,0.0,0.0,0.0,0.0,0.0,0.0,0.0,0.0,0.0,0.0975,0.1316,0.0559,-0.1805,-0.082,-0.0963,-0.3231,-0.3991,-0.3833,-0.2837,-0.2919,0.0,0.0,0.0,0.0,0.0,0.0,0.0,0.0,0.0,0.0,0.0,0.0,0.0,0.0,0.0,0.0,0.0,0.0,0.0,0.0,0.0,0.0,0.0,0.0,0.0,0.0,0.0,0.0,0.0,0.0,0.0,0.0,0.0,0.0,0.0,0.0,0.0,0.0,0.0,0.0,0.0,0.0,0.0,0.0,0.0,0.0,0.0,0.0,0.0,0.0,0.0,0.0,0.0,1.5177,1.476,1.4131,1.2299,1.1249,1.0762,1.0401,0.9277,0.7709,0.8322,0.0,0.0,0.0,0.0,0.0,0.0,0.0,0.0,0.0,0.0,0.0,0.0,0.0,0.0,0.0,0.0,0.0,0.0,0.0,0.0,0.0,0.0,0.0,0.0,0.1057,0.0868,0.1118,0.0,0.0,0.0,0.0,0.0,0.0,0.0,0.0,0.0,0.0,0.0,0.0663,0.0255,-0.1011,-0.3355,-0.1753,-0.1019,-0.2289,-0.3343,-0.386,-0.3797,-0.3401,-0.3347,0.0,0.0,0.0,0.0,0.0,0.0,0.0,0.0,0.0,0.0,0.0,0.0,0.0,0.0,0.0,0.0,0.0,0.0,0.0,0.0,0.0,0.0,0.0,0.0,0.0,0.0,0.0,0.0,0.0,0.0,0.0,0.0,1.2396,1.1546,0.0,0.0,0.0,0.0,0.0,0.0,0.0,0.0,0.0,0.0,0.0,0.0,0.0,1.5065,1.5898,1.6158,1.578,1.4833,1.4756,1.3882,1.2226,1.0866,0.9794,0.9077,0.8216,0.0,0.8172,0.8171,0.0,0.0,0.0,0.0,0.0,0.0,0.0,0.0,0.0,0.0,0.0,0.0,0.0,0.0,0.0,0.0,0.0,0.0,0.0,0.0,0.0,0.0,-0.0619,-0.0188,-0.0375,-0.068,0.0,0.0183,0.0908,0.0584,-0.0,0.0,0.0,0.0,0.0,0.0,0.0,0.0,-0.0838,-0.0568,-0.0569,-0.0938,-0.1821,-0.2297,-0.2165,-0.2354,-0.2775,-0.3585,-0.3385,-0.3536,-0.427,-0.3962,0.0,0.0,0.0,0.0,0.0,0.0,0.0,0.0,0.0,0.0,0.0,0.0,0.0,0.0,0.0,0.0,0.0,0.0,0.0,0.0,0.0,0.0,0.0,0.0,0.0,0.0,0.0,0.0,0.0,1.3412,1.3042,1.334,1.4211,1.4719,0.0,0.0,0.0,0.0,0.0,0.0,0.0,0.0,0.0,1.3882,1.4105,1.4372,1.4807,1.4892,1.4819,1.4584,1.3576,1.2718,1.1919,0.9814,0.8841,0.8751,0.8553,0.8157,0.7651,0.7941,0.733,0.631,0.0,0.0,0.0,0.0,0.3685,0.3353,0.2987,0.2845,0.2664,0.2061,0.0,0.0,0.0,0.0,0.0,0.0,0.0,0.0,0.0,0.0,-0.1044,-0.0835,-0.0975,-0.1114,-0.1114,-0.0611,-0.0261,0.0,-0.065,-0.082,-0.0482,0.0,0.0,0.0,0.0,-0.1135,-0.2169,-0.1418,-0.1223,-0.2144,-0.1955,-0.2036,-0.2475,-0.2309,-0.2476,-0.3033,-0.3132,-0.3224,-0.3321,-0.3705,-0.3627,0.0,0.0,0.0,0.0,0.0,0.0,0.0,0.0,0.0,0.0,0.0,0.0,0.0,0.0,0.0,0.0,0.0,0.0,0.0,0.0,0.0,0.0,0.0,0.0,0.0,0.0,0.0,0.0,1.3466,1.4272,1.4505,1.4978,1.5307,0.0,0.0,0.0,0.0,0.0,0.0,1.44,1.4595,1.4303,1.353,1.3467,1.345,1.3467,1.3454,1.3512,1.3669,1.2434,1.1714,1.1398,0.9124,0.8243,0.8638,0.8538,0.7539,0.6149,0.7454,0.6621,0.4592,0.5375,0.489,0.3651,0.277,0.1757,0.0861,0.0777,0.0707,0.0769,0.0821,0.0876,0.0809,0.044,0.0,0.0,0.0,0.0,-0.1076,-0.1112,-0.116,-0.1204,-0.122,-0.1224,-0.1224,-0.1224,-0.1182,-0.112,0.0,-0.101,-0.0939,-0.0884,0.0,0.0,0.0,-0.0845,-0.1246,-0.279,-0.1908,-0.1644,-0.3086,-0.1951,-0.1562,-0.2627,-0.2381,-0.242,-0.3086,-0.3324,-0.333,-0.3189,-0.3839,-0.3764,-0.2936,0.0,0.0,0.0,0.0,0.0,0.0,0.0,0.0,0.0,0.0,0.0,0.0,0.0,0.0,0.0,0.0,0.0,0.0,0.0,0.0,0.0,0.0,0.0,0.0,0.0,0.0,0.0,0.0,0.0,1.3244,1.5275,0.0,0.0,0.0,0.0,1.5348,1.4638,1.438,1.4943,1.4065,1.3528,1.347,1.2689,1.2459,1.2739,1.2715,1.2282,1.1441,1.159,1.1038,0.9976,0.8757,0.8169,0.8021,0.673,0.5016,0.3343,0.6751,0.5847,0.2356,0.2162,0.1942,0.174,0.1692,0.071,-0.0582,-0.0905,-0.1098,-0.1038,-0.0998,-0.0923,-0.0907,-0.0996,-0.1032,0.0,0.0,-0.1012,-0.1049,-0.1106,-0.1144,-0.1183,-0.1319,-0.1333,-0.1333,-0.1333,-0.123,-0.1189,0.0,-0.1069,-0.0976,-0.1003,0.0,-0.0709,-0.1033,-0.1058,-0.14,-0.24,-0.1717,-0.1409,-0.208,-0.1545,-0.1412,-0.2084,-0.2149,-0.2681,-0.4154,-0.4097,-0.4339,-0.4968,-0.4755,-0.4356,-0.3727,-0.4363,0.0,0.0,0.0,0.0,0.0,0.0,0.0,0.0,0.0,0.0,0.0,0.0,0.0,0.0,0.0,0.0,0.0,0.0,0.0,0.0,0.0,0.0,0.0,0.0,0.0,0.0,0.0,0.0,1.7324,1.6905,0.0,1.6911,1.587,1.5323,1.5631,1.4681,1.3808,1.3093,1.2832,1.2531,1.2344,1.156,1.1012,1.0648,1.1085,1.0974,1.0394,0.9856,0.9209,0.8528,0.7404,0.6435,0.5536,0.4082,0.2919,0.1943,0.2309,0.2202,0.1845,0.0664,-0.0586,-0.163,-0.0651,-0.1147,-0.2294,-0.2294,-0.2127,-0.1953,-0.1939,-0.156,-0.1063,-0.1072,-0.1458,-0.1833,-0.1867,-0.2325,-0.2744,-0.2766,-0.2845,-0.2911,-0.2885,-0.2898,-0.2898,-0.2898,-0.2877,-0.2844,-0.2869,-0.1856,-0.1306,-0.2117,-0.194,-0.2121,-0.3136,-0.2913,-0.2886,-0.3673,-0.2563,-0.2213,-0.3416,-0.248,-0.1999,-0.2616,-0.2788,-0.2969,-0.3308,-0.3705,-0.3773,-0.3578,-0.4197,-0.4083,-0.3123,-0.4086,-0.4342,0.0,0.0,0.0,0.0,0.0,0.0,0.0,0.0,0.0,0.0,0.0,0.0,0.0,0.0,0.0,0.0,0.0,0.0,0.0,0.0,0.0,0.0,0.0,0.0,0.0,0.0,1.5052,1.8375,1.7327,1.6612,1.7341,1.5707,1.4558,1.4525,1.375,1.2668,1.1248,1.1473,1.1475,1.0964,1.0388,0.9561,0.8578,0.9135,0.924,0.8803,0.8101,0.7305,0.6416,0.5725,0.4654,0.3306,0.2236,0.1253,0.0358,-0.0538,-0.0262,0.0586,-0.0484,-0.1756,-0.2806,-0.2211,-0.2433,-0.3057,-0.3186,-0.3125,-0.2901,-0.2852,-0.2502,-0.2028,-0.1958,-0.2377,-0.2805,-0.2856,-0.3268,-0.3702,-0.3716,-0.3784,-0.3839,-0.387,-0.3878,-0.3887,-0.3918,-0.3926,-0.3926,-0.3926,-0.2892,-0.2261,-0.3017,-0.2976,-0.3167,-0.4073,-0.3799,-0.3741,-0.4405,-0.3368,-0.298,-0.4156,-0.3191,-0.2692,-0.3283,-0.3495,-0.3533,-0.3518,-0.4009,-0.4044,-0.3463,-0.4195,-0.4274,-0.3465,-0.4238,-0.4549,-0.4296,0.0,0.0,0.0,0.0,0.0,0.0,0.0,0.0,0.0,0.0,0.0,0.0,0.0,0.0,0.0,0.0,0.0,0.0,0.0,0.0,0.0,0.0,0.0,1.2271,1.446,1.594,1.5871,1.6309,1.6358,1.5842,1.4421,1.3133,1.1964,1.1828,1.1106,0.9578,1.0081,1.0193,0.9446,0.9078,0.8193,0.6704,0.6989,0.6903,0.6539,0.6367,0.5377,0.3758,0.3758,0.2862,0.1342,0.1074,-0.0,-0.1436,-0.1436,-0.1436,-0.1432,-0.1406,-0.1463,-0.1688,-0.2863,-0.3112,-0.3014,-0.3763,-0.3995,-0.3997,-0.3917,-0.3932,-0.3931,-0.3776,-0.3852,-0.3927,-0.3772,-0.3772,-0.3798,-0.3889,-0.3915,-0.394,-0.4034,-0.4055,-0.408,-0.4257,-0.4279,-0.4279,-0.4279,-0.4044,-0.3887,-0.3791,-0.3776,-0.3747,-0.3803,-0.3787,0.0,-0.449,-0.3913,-0.3664,-0.4303,-0.354,-0.335,-0.4041,-0.4281,-0.4508,-0.4864,-0.5179,-0.5209,-0.4918,-0.4904,-0.4904,-0.4904,-0.4932,-0.4887,-0.4866,0.0,0.0,0.0,0.0,0.0,0.0,0.0,0.0,0.0,0.0,0.0,0.0,0.0,0.0,0.0,0.0,0.0,0.0,0.0,0.0,0.0,0.9176,1.0408,1.2117,1.253,1.3232,1.4627,1.4569,1.4696,1.5467,1.3987,1.2555,1.1572,1.0632,0.9862,0.9078,0.8206,0.7979,0.832,0.768,0.7238,0.6989,0.6719,0.5455,0.3215,0.3126,0.2948,0.2591,0.2056,0.1341,0.0626,-0.0358,-0.0986,-0.1436,-0.1436,-0.1525,-0.1704,-0.1695,-0.2479,-0.3694,-0.3606,-0.4262,-0.5299,-0.5515,-0.5615,-0.5583,-0.5583,-0.5151,-0.462,-0.4388,-0.4683,-0.5061,-0.4894,-0.5401,-0.5962,-0.6004,-0.6086,-0.6169,-0.6207,-0.6138,-0.5985,-0.6022,-0.6031,-0.6031,-0.6031,-0.597,-0.5633,-0.4946,-0.4767,-0.4967,-0.5542,-0.5439,0.0,-0.5402,-0.4734,-0.4458,-0.5183,-0.4529,-0.43,-0.4763,-0.5009,-0.4947,-0.4619,-0.4769,-0.4789,-0.4596,-0.4585,-0.4585,-0.4585,-0.5128,-0.5192,0.0,0.0,0.0,0.0,0.0,0.0,0.0,0.0,0.0,0.0,0.0,0.0,0.0,0.0,0.0,0.0,0.0,0.0,0.0,0.0,0.0,0.0,0.7951,0.8747,1.0002,1.0896,1.1934,1.3364,1.3418,1.3668,1.4574,1.3022,1.1638,1.0657,0.9561,0.8595,0.7921,0.7017,0.6851,0.7347,0.6346,0.5744,0.5716,0.4942,0.3592,0.1721,0.0898,0.0536,0.0626,0.0179,-0.0179,-0.0537,-0.1165,-0.1525,-0.1705,-0.1615,-0.1973,0.0,0.0,0.0,0.0,0.0,-0.5667,-0.69,-0.6834,-0.6783,-0.6773,-0.6712,-0.6396,-0.599,-0.5864,-0.6113,-0.6374,-0.6231,-0.6579,-0.706,-0.6979,-0.7044,-0.7213,-0.7195,-0.7045,-0.6979,-0.7045,-0.6973,-0.6885,-0.6885,-0.6973,0.0,-0.6025,-0.5825,-0.5867,-0.6281,-0.6183,-0.6071,-0.5918,-0.546,-0.5225,-0.5534,-0.5186,-0.4922,-0.5088,-0.5213,0.0,0.0,0.0,-0.5176,-0.529,-0.5282,0.0,0.0,0.0,-0.5525,-0.5009,0.0,0.0,0.0,-0.4998,-0.5085,0.0,0.0,0.0,0.0,0.0,0.0,0.0,0.0,0.0,0.0,0.0,0.0,0.0,0.0,0.0,0.0,0.6461,0.6392,0.6958,0.9281,1.1166,1.1898,1.2401,1.2895,1.3459,1.1887,1.0488,0.9653,0.8619,0.7478,0.634,0.0,0.0,0.0,0.0,0.3891,0.3241,0.2087,0.136,0.1015,-0.0635,-0.1528,-0.1614,-0.1614,-0.1793,-0.2152,-0.1977,-0.2067,-0.2511,-0.2248,-0.2871,-0.3933,-0.3664,-0.3753,-0.42,-0.5974,-0.7221,-0.7921,-0.7767,0.0,0.0,-0.7552,-0.7601,-0.7684,-0.7689,-0.7659,-0.7654,-0.7575,-0.7544,-0.7394,-0.7224,-0.7322,-0.7457,-0.7432,-0.7379,-0.7418,-0.7562,-0.7323,-0.7231,-0.7231,-0.7411,-0.7457,-0.7039,-0.6771,-0.6527,-0.6386,-0.6271,-0.6207,-0.6051,-0.603,-0.5928,-0.5807,0.0,0.0,-0.5474,-0.5396,-0.5189,-0.4969,-0.5506,-0.6045,-0.6448,-0.6478,-0.6366,-0.6006,-0.6116,-0.5882,-0.5401,-0.5375,-0.5427,-0.5497,-0.542,-0.5506,0.0,0.0,0.0,0.0,0.0,0.0,0.0,0.0,0.0,0.0,0.0,0.0,0.0,0.0,0.0,0.5431,0.5684,0.5739,0.5577,0.6817,0.8344,0.9978,1.0469,1.1059,1.2029,1.0539,0.9452,0.9318,0.7746,0.6517,0.5897,0.5082,0.4398,0.3943,0.2655,0.1202,-0.0473,-0.0741,-0.092,-0.0925,0.0,0.0,-0.2862,-0.3042,-0.3576,-0.438,-0.4455,-0.4538,-0.4472,-0.455,-0.5257,-0.6157,-0.6154,-0.6245,-0.6605,-0.776,-0.8296,-0.8472,-0.8436,-0.8424,-0.842,-0.8388,-0.84,-0.8475,-0.9048,-0.8594,0.0,-0.8639,-0.8371,-0.7909,-0.782,-0.7916,-0.8024,-0.8055,-0.7891,-0.7815,-0.7848,-0.7768,-0.7764,-0.7764,-0.7768,-0.7716,-0.7547,-0.7188,-0.6845,-0.6534,-0.6335,-0.6207,-0.6051,-0.603,-0.6226,-0.6822,-0.628,-0.6338,-0.7485,-0.6986,-0.6635,-0.657,-0.626,-0.6341,-0.6865,-0.7124,-0.6954,-0.6199,-0.6669,-0.638,-0.5375,-0.5403,-0.5631,-0.601,-0.5607,-0.554,0.0,0.0,0.0,0.0,0.0,0.0,0.0,0.0,0.0,0.0,0.0,0.4505,0.524,0.0,0.498,0.5196,0.509,0.493,0.4746,0.5274,0.6217,0.787,0.8602,0.9157,0.9573,0.8429,0.7737,0.7811,0.6483,0.5605,0.5366,0.442,0.3354,0.2122,0.1117,-0.0094,-0.1524,-0.1793,-0.1868,-0.1666,-0.2496,-0.3015,-0.34,-0.4156,-0.4718,-0.526,-0.5371,-0.548,-0.5616,-0.6165,-0.6545,-0.6959,-0.7492,-0.776,-0.794,-0.8388,-0.8568,-0.8568,-0.8568,-0.8568,-0.8568,-0.8568,-0.8568,-0.8723,-0.9565,-0.9361,-0.9086,-0.9996,-0.962,-0.8936,-0.8845,-0.8574,-0.838,-0.8201,-0.8113,-0.8028,-0.8028,-0.794,-0.7878,-0.7964,-0.8068,-0.8131,-0.7867,-0.8139,-0.8018,-0.7111,-0.6767,-0.6849,-0.7156,-0.7215,-0.7488,-0.8313,-0.7916,-0.7856,-0.8519,-0.7892,-0.7625,-0.7861,-0.7617,-0.7712,-0.8253,-0.8149,-0.7757,-0.7125,-0.7095,-0.6732,-0.6,-0.5978,-0.6115,-0.6404,-0.6152,-0.617,0.0,0.0,0.0,0.0,0.0,0.0,0.0,0.3538,0.3515,0.4157,0.4039,0.4039,0.4776,0.4546,0.4351,0.4781,0.4319,0.3986,0.4217,0.4148,0.4577,0.5728,0.682,0.7454,0.7487,0.6692,0.6244,0.6398,0.5536,0.4827,0.4565,0.3628,0.2265,0.0557,-0.0189,-0.0959,-0.1736,-0.2114,-0.2279,-0.214,-0.3264,-0.3963,-0.4318,-0.5324,-0.6015,-0.6382,-0.6301,-0.6444,-0.682,-0.7417,-0.7541,-0.758,-0.8556,-0.8999,-0.8999,-0.8652,-0.8568,-0.8568,-0.8568,-0.8568,-0.8656,-0.8828,-0.8828,-0.9091,-1.0168,-1.044,-1.044,-1.1392,-1.0958,-1.0256,-1.0028,-0.9538,-0.9138,-0.8953,-0.8861,-0.887,-0.8996,-0.8802,-0.8742,-0.8836,-0.9055,-0.9146,-0.8964,-0.9544,-0.9552,-0.7963,-0.7706,-0.7926,-0.8664,-0.8737,-0.899,-0.978,-0.9529,-0.9332,-0.94,-0.886,-0.8721,-0.9179,-0.9037,-0.9197,-0.9758,-0.925,-0.87,-0.8157,-0.7711,-0.717,-0.6626,-0.669,-0.6695,-0.6747,-0.6703,-0.6802,0.0492,0.0581,0.0812,0.0979,0.145,0.1923,0.0,0.2581,0.2743,0.2875,0.2799,0.2666,0.2482,0.2491,0.2631,0.3161,0.3081,0.3049,0.3444,0.3366,0.3398,0.3883,0.5245,0.6498,0.7256,0.6726,0.635,0.6404,0.5193,0.4037,0.3218,0.1767,0.0475,-0.0664,-0.1644,-0.2167,-0.2306,-0.2366,-0.2807,-0.351,-0.3955,-0.5045,-0.6597,-0.7207,-0.8027,-0.906,-0.9076,-0.8901,-0.88,-0.871,-0.8625,-0.8819,-0.9758,-1.0193,-1.0202,-0.8999,-0.8568,-0.8568,-0.8568,-0.8568,-0.874,-0.9515,-0.9772,-1.0154,-1.2096,-1.217,-1.1728,-1.261,-1.2258,-1.1503,-1.1202,-1.1308,-1.1462,-1.1373,-1.1373,-1.1426,-1.1722,-1.1515,-1.1442,-1.1668,-1.1807,-1.1807,-1.1715,-1.1877,-1.1174,-0.9164,-0.9422,-0.9877,-0.9958,-0.9796,-0.9948,-1.0734,-1.0139,-0.9956,-1.0661,-1.0641,-1.0716,-1.0999,-1.0334,-1.0211,-1.0703,-1.0415,-0.9843,-0.8814,-0.871,-0.8084,-0.6841,-0.6884,-0.6974,-0.7112,-0.711,-0.7026,-0.0492,-0.0232,0.0096,0.0049,0.041,0.0757,0.0968,0.1045,0.1193,0.1334,0.1321,0.1299,0.1209,0.1258,0.1373,0.1541,0.1557,0.1567,0.1722,0.1702,0.177,0.1865,0.2486,0.3324,0.4408,0.4419,0.4225,0.3845,0.3197,0.2685,0.2325,0.0465,-0.0756,-0.1216,-0.2412,-0.3134,-0.3219,-0.356,-0.4116,-0.4746,-0.5997,-0.7016,-0.7948,-0.8675,-0.939,-0.9974,-0.9966,-1.0189,-1.0618,-1.0299,-1.0553,-1.0989,-1.1422,-1.1598,-1.1587,-1.0758,-1.0366,-1.0366,-1.0202,-1.0207,-1.0207,-1.0636,-1.0809,-1.1284,-1.2704,-1.2939,-1.3058,-1.3964,-1.3511,-1.2855,-1.2655,-1.235,-1.2062,-1.2062,-1.2062,-1.2089,-1.2193,-1.2133,-1.2133,-1.2368,-1.2412,-1.2412,-1.2412,-1.2783,-1.2808,-1.1816,-1.1406,-1.1294,-1.1673,-1.1645,-1.1786,-1.2255,-1.1918,-1.1641,-1.1623,-1.1514,-1.1414,-1.1528,-1.121,-1.091,-1.0707,-1.0677,-0.9997,-0.8641,-0.8709,-0.8263,-0.7219,-0.7219,-0.7223,-0.7231,-0.7226,-0.718,-0.1363,-0.1055,-0.081,-0.1033,-0.0766,-0.0463,-0.0359,-0.0303,-0.0186,0.013,0.027,0.0349,0.0289,0.03,0.0385,0.0465,0.039,0.0235,0.0235,0.023,0.0227,0.0152,0.0151,0.0383,0.1145,0.1956,0.2148,0.1641,0.1319,0.1067,0.0805,-0.0924,-0.1965,-0.2308,-0.3249,-0.3971,-0.4313,-0.4826,-0.551,-0.6303,-0.7691,-0.8553,-0.8965,-0.991,-1.0369,-1.04,-1.0596,-1.1067,-1.1675,-1.1668,-1.2037,-1.2738,-1.3004,-1.3181,-1.3157,-1.2964,-1.2545,-1.2023,-1.1772,-1.1554,-1.1587,-1.1847,-1.2057,-1.2314,-1.3358,-1.3848,-1.4248,-1.4896,-1.4618,-1.4047,-1.3973,-1.355,-1.3049,-1.3049,-1.3049,-1.3066,-1.3136,-1.3095,-1.3124,-1.3368,-1.3414,-1.3414,-1.3414,-1.389,-1.4297,-1.4203,-1.343,-1.3032,-1.3343,-1.3377,-1.3368,-1.3516,-1.3294,-1.3013,-1.2648,-1.219,-1.1977,-1.1977,-1.19,-1.1632,-1.1037,-1.0887,-1.0207,-0.8851,-0.8703,-0.8399,-0.7863,-0.7633,-0.7561,-0.7638,-0.7638,-0.7638,-0.1978,-0.1961,-0.2055,-0.2419,-0.2347,-0.2043,-0.1654,-0.1309,-0.0942,-0.0554,-0.0137,-0.0,-0.0289,-0.0365,-0.0294,0.0075,-0.0232,-0.0549,-0.0547,-0.0843,-0.1066,-0.1245,-0.1349,-0.1633,-0.2027,-0.032,0.0825,0.0863,-0.0,-0.0875,-0.1606,-0.2645,-0.3602,-0.425,-0.4432,-0.4897,-0.5754,-0.5761,-0.6634,-0.8372,-0.8623,-0.9205,-1.011,-1.0604,-1.06,-1.0498,-1.1441,-1.1806,-1.178,-1.2378,-1.291,-1.3363,-1.4283,-1.4738,-1.5006,-1.5637,-1.4628,-1.2898,-1.2626,-1.2372,-1.2263,-1.3148,-1.3254,-1.3322,-1.4767,-1.5248,-1.5384,-1.5384,-1.5384,-1.5317,-1.5037,-1.517,-1.5292,-1.5292,-1.5292,-1.5365,-1.5644,-1.5485,-1.5378,-1.5664,-1.5717,-1.5717,-1.5717,-1.5717,-1.5717,-1.5704,-1.5704,-1.5498,-1.5023,-1.4668,-1.4467,-1.4174,-1.388,-1.3677,-1.3559,-1.3073,-1.2732,-1.2732,-1.2465,-1.2305,-1.2231,-1.1484,-1.0732,-0.9895,-0.9074,-0.8699,-0.8627,-0.7863,-0.7863,-0.8623,-0.8623,-0.8623,-0.257,-0.2613,-0.2642,-0.275,-0.3008,-0.3169,-0.2991,-0.2703,-0.241,-0.2187,-0.2005,-0.186,-0.2068,-0.2115,-0.2171,-0.2192,-0.2407,-0.2616,-0.2733,-0.276,-0.3027,-0.3425,-0.3531,-0.374,-0.4329,-0.2605,0.0,-0.1688,-0.2455,-0.2838,-0.2765,-0.4314,-0.5235,-0.5507,-0.5982,-0.6705,-0.7697,-0.7601,-0.8286,-0.9697,-1.013,-1.056,-1.0895,-1.1638,-1.1879,-1.1728,-1.2122,-1.3026,-1.4106,-1.4423,-1.4986,-1.5672,-1.5945,-1.6133,-1.6349,-1.6747,-1.6444,-1.5722,-1.4967,-1.4596,-1.451,-1.4872,-1.5013,-1.5194,-1.5763,-1.592,-1.5973,-1.5973,-1.5779,-1.5658,-1.5565,-1.5611,-1.5685,-1.5685,-1.5685,-1.5712,-1.5805,-1.5752,-1.5712,-1.5812,-1.5832,-1.5832,-1.5832,-1.5832,-1.5832,-1.5832,-1.5665,-1.5404,-1.5017,-1.4701,-1.4469,-1.4176,-1.38,-1.3583,-1.3566,-1.328,-1.3053,-1.3053,-1.2766,-1.2132,-1.1047,-1.1571,-1.1031,-0.915,-0.9906,-1.0056,-0.9523,-0.9216,-0.9291,-0.9746,-0.9746,-0.9746,-0.3243,-0.3139,-0.3023,-0.3167,-0.3411,-0.3542,-0.3301,-0.3428,-0.3454,-0.2937,-0.2818,-0.2823,-0.2853,-0.2828,-0.2918,-0.3215,-0.3373,-0.3538,-0.3925,-0.3865,-0.4052,-0.4652,-0.4922,-0.5228,-0.5698,-0.4969,-0.4361,-0.3955,-0.458,-0.4843,-0.4493,-0.5994,-0.6853,-0.6853,-0.7353,-0.8109,-0.9056,-0.896,-0.949,-1.0588,-1.1349,-1.177,-1.177,-1.2823,-1.3222,-1.3059,-1.3418,-1.4283,-1.5478,-1.577,-1.6407,-1.7026,-1.6919,-1.7011,-1.7047,-1.7252,-1.7326,-1.7181,-1.6408,-1.6111,-1.6012,-1.6012,-1.6056,-1.6127,-1.6317,-1.635,-1.6312,-1.6312,-1.6211,-1.6109,-1.6109,-1.6021,-1.5927,-1.5927,-1.5832,-1.5832,-1.5832,-1.5832,-1.5832,-1.5832,-1.5832,-1.5832,-1.5832,-1.5832,-1.5832,-1.5832,-1.5671,-1.5444,-1.5157,-1.495,-1.4683,-1.4282,-1.4075,-1.3915,-1.3808,-1.3534,-1.3367,-1.3367,-1.308,-1.2279,-1.0931,-1.1612,-1.1169,-0.9269,-1.0176,-1.0622,-1.0481,-1.0171,-1.0374,-1.0925,-1.0925,-1.0925,-0.3949,-0.3605,-0.3334,-0.3704,-0.3723,-0.3473,-0.2956,-0.3617,-0.4004,-0.2911,-0.2731,-0.2802,-0.2729,-0.2624,-0.2683,-0.3095,-0.3092,-0.3397,-0.4206,-0.4163,-0.4323,-0.5007,-0.5616,-0.6093,-0.6288,-0.7289,-0.7414,-0.5971,0.0,-0.6833,-0.6837,-0.7731,-0.8265,-0.8284,-0.8525,-0.9071,-0.9844,-0.9949,-1.0426,-1.1385,-1.2349,-1.2834,-1.284,-1.389,-1.4364,-1.4441,-1.5106,-1.5518,-1.5947,-1.66,-1.704,-1.7326,-1.7326,-1.7326,-1.7326,-1.7326,-1.7326,-1.7239,-1.7066,-1.6779,-1.6528,-1.6528,-1.6331,-1.6232,-1.643,-1.6543,-1.6581,-1.6581,-1.6588,-1.6588,-1.6588,-1.64,-1.6224,-1.6224,-1.6028,-1.5832,-1.5832,-1.5832,-1.5832,-1.5832,-1.5832,-1.5832,-1.5832,-1.5832,-1.5832,-1.5832,-1.5832,-1.5725,-1.5431,-1.5384,-1.5157,-1.4583,-1.4502,-1.4389,-1.4108,-1.3828,-1.3667,-1.3667,-1.3394,-1.2816,-1.1834,-1.1648,-1.1188,-1.0239,-1.009,-1.054,-1.1563,-1.0784,-1.1004,-1.2,-1.208,-1.208,-0.4659,-0.4971,-0.5094,-0.4305,-0.4525,-0.4888,-0.4523,-0.4372,-0.4259,-0.3773,-0.3406,-0.3266,-0.3234,-0.325,-0.3492,-0.4014,-0.4241,-0.4586,-0.5347,-0.5463,-0.5583,-0.6156,-0.6792,-0.7362,-0.7764,-0.8465,-0.8783,0.0,-0.7938,-0.7733,-0.7845,-0.8367,-0.882,-0.9183,-1.0518,-1.1101,-1.0821,-1.1752,-1.2655,-1.3499,-1.3788,-1.3984,-1.4264,-1.5032,-1.5412,-1.5494,-1.6146,-1.6521,-1.6593,-1.669,-1.6934,-1.7326,-1.7326,-1.7326,-1.7326,-1.7326,-1.7326,-1.7326,-1.7239,-1.7188,-1.7123,-1.7123,-1.7022,-1.7022,-1.7115,-1.6994,-1.6885,-1.6885,-1.6777,-1.6588,-1.6588,-1.6588,-1.6407,-1.6224,-1.6123,-1.6028,-1.5832,-1.5832,-1.5832,-1.5832,-1.5832,-1.5832,-1.5832,-1.5832,-1.5832,-1.5832,-1.5832,-1.5725,-1.5431,-1.5211,-1.493,-1.4563,-1.4322,-1.4168,-1.4095,-1.4015,-1.3975,-1.3975,-1.3694,-1.3017,-1.1994,-1.2272,-1.1948,-1.0912,-1.1434,-1.1974,-1.2452,-1.2259,-1.2192,-1.2225,-1.2926,-1.287,-0.5186,-0.5425,-0.5387,-0.475,-0.4801,-0.4916,-0.424,-0.4304,-0.4354,-0.3638,-0.3468,-0.3494,-0.3423,-0.3447,-0.3667,-0.424,-0.4498,-0.4881,-0.549,-0.6054,-0.6503,-0.6817,-0.7789,-0.863,-0.9036,-0.946,-0.9746,-0.9839,-0.9239,-0.8954,-0.8945,-0.9903,-1.063,-1.0954,-1.2362,-1.2931,-1.2732,-1.3244,-1.3823,-1.4459,-1.4722,-1.5,-1.5267,-1.6069,-1.6466,-1.6452,0.0,-1.7062,-1.7062,-1.6963,-1.7065,-1.7326,-1.7326,-1.7326,-1.7326,-1.7326,-1.7326,-1.7326,-1.7326,-1.7326,-1.7326,-1.7326,-1.7326,-1.7326,-1.7326,-1.7239,-1.7153,-1.7153,-1.7059,-1.6864,-1.6864,-1.6871,-1.6784,-1.6602,-1.6501,-1.6312,-1.6028,-1.6028,-1.5927,-1.5825,-1.5832,-1.5832,-1.5832,-1.5832,-1.5832,-1.5832,-1.5832,-1.5772,-1.5605,-1.5331,-1.499,-1.4563,-1.4376,-1.4222,-1.4095,-1.4088,-1.4088,-1.4088,-1.3928,-1.3341,-1.2346,-1.2808,-1.2667,-1.1642,-1.2299,-1.2829,-1.3174,-1.3131,-1.2933,-1.2468,-1.2958,-1.2971,-0.5682,-0.5507,-0.5079,-0.5234,-0.4952,-0.4396,-0.3489,-0.4008,-0.4317,-0.3206,-0.3294,-0.3538,-0.3441,-0.341,-0.3599,-0.414,-0.4395,-0.475,-0.5412,-0.6453,-0.7243,-0.7461,-0.8665,-0.9644,-1.009,-1.0353,-1.0449,-1.0666,-1.045,-1.0294,-1.0294,-1.1639,-1.2736,-1.3256,-1.401,-1.45,-1.4975,-1.454,-1.4546,-1.4975,-1.571,-1.6044,-1.6143,-1.6965,-1.7355,-1.7391,-1.7347,-1.7355,-1.7391,-1.7391,-1.7391,-1.7391,-1.7391,-1.7362,-1.7326,-1.7326,-1.7326,-1.7326,-1.7326,-1.7326,-1.7326,-1.7326,-1.7326,-1.7326,-1.7326,-1.7326,-1.7326,-1.7326,-1.7326,-1.7326,-1.7326,-1.7153,-1.7073,-1.6979,-1.6784,-1.6588,-1.6319,-1.613,-1.6123,-1.5832,-1.5832,-1.5832,-1.5832,-1.5832,-1.5832,-1.5832,-1.5832,-1.5832,-1.5832,-1.5578,-1.5184,-1.4636,-1.4543,-1.4402,-1.4115,-1.4122,-1.4128,-1.4088,-1.4122,-1.3763,-1.2826,-1.3354,-1.3212,-1.2429,-1.2933,-1.33,-1.3561,-1.3587,-1.3239,-1.2487,-1.2656,-1.2583,-0.6392,-0.6106,-0.5699,-0.6398,-0.5545,-0.4691,-0.4928,-0.4604,-0.4184,-0.3877,-0.3671,-0.3574,-0.3436,-0.3487,-0.3748,-0.4362,-0.4574,-0.5206,-0.6876,-0.7287,-0.7812,-0.8704,-0.9587,-1.0119,-1.0287,-1.0828,-1.111,0.0,-1.1361,-1.1732,-1.2089,-1.2296,-1.3558,-1.5886,-1.4952,-1.5325,-1.7098,-1.6106,-1.6106,-1.7106,-1.7512,-1.7702,-1.7735,-1.766,-1.7675,-1.7713,-1.7443,0.0,-1.7728,-1.7728,-1.7728,-1.7728,-1.7728,-1.7567,-1.7326,-1.7326,-1.7326,-1.7326,-1.7326,-1.7326,-1.7326,-1.7326,-1.7326,-1.7326,-1.7326,-1.7326,-1.7326,-1.7326,-1.7326,-1.7326,-1.7326,-1.7239,-1.7239,-1.7066,-1.6979,-1.6791,-1.6319,-1.6028,-1.5832,-1.5832,-1.5832,-1.5832,-1.5832,-1.5832,-1.5832,-1.5832,-1.5832,-1.5832,-1.5832,-1.5578,-1.5264,-1.4923,-1.4669,-1.4402,-1.4115,-1.4309,-1.4342,-1.4102,-1.4309,-1.4143,-1.3487,-1.3503,-1.3446,-1.3047,-1.3154,-1.3319,-1.3618,-1.3615,-1.287,-1.1556,-1.2499,-1.2089,-0.6372,-0.6277,-0.5819,-0.6578,-0.5901,-0.5138,-0.5126,-0.4601,-0.4105,-0.389,-0.3757,-0.364,-0.3628,-0.3655,-0.3867,-0.4428,-0.4744,-0.5547,-0.7122,-0.8022,-0.8957,-1.0035,-1.0736,-1.1283,-1.1563,-1.158,-1.169,-1.1771,-1.2095,-1.2453,-1.2662,-1.386,-1.5429,-1.7304,-1.6464,-1.6562,-1.7763,-1.7026,-1.7026,-1.7763,-1.7933,-1.8003,-1.8142,-1.7796,-1.7717,-1.7749,-1.7399,-1.7421,-1.756,-1.756,-1.756,-1.756,-1.756,-1.7465,-1.7326,-1.7326,-1.7326,-1.7326,-1.7326,-1.7326,-1.7326,-1.7326,-1.7326,-1.7326,-1.7326,-1.7326,-1.7326,-1.7326,-1.7326,-1.7326,-1.7326,-1.7326,-1.7239,-1.7153,-1.7066,-1.6928,-1.6696,-1.645,-1.6258,-1.6059,-1.6059,-1.6012,-1.5852,-1.5832,-1.5832,-1.5832,-1.5754,-1.584,-1.6059,-1.583,-1.547,-1.5237,-1.5197,-1.5023,-1.4583,-1.4669,-1.4623,-1.4335,-1.4442,-1.4329,-1.3895,-1.3874,-1.3808,-1.3667,-1.3667,-1.3756,-1.3851,-1.3897,-1.3201,-1.2024,-1.276,-1.2564,-0.6076,-0.6115,-0.5637,-0.6317,-0.5847,-0.5211,-0.4919,-0.4429,-0.4039,-0.3817,-0.3744,-0.3735,-0.3767,-0.3744,-0.3931,-0.4457,-0.488,-0.569,-0.717,-0.8553,-0.9883,-1.1039,-1.1746,-1.2213,-1.2699,-1.2363,-1.221,-1.2392,-1.2901,-1.3262,-1.3461,-1.5562,-1.7227,-1.8149,-1.7679,-1.758,-1.7924,-1.7728,-1.7728,-1.7842,-1.8222,-1.8249,-1.8187,-1.8069,-1.792,-1.7819,-1.7549,-1.7369,-1.7435,-1.7435,-1.7435,-1.7435,-1.7435,-1.7391,-1.7333,-1.7406,-1.7391,-1.7333,-1.7406,-1.7384,-1.7326,-1.7326,-1.7326,-1.734,-1.7413,-1.7435,-1.7435,-1.7435,-1.7435,-1.7421,-1.7347,-1.7326,-1.7326,-1.7326,-1.7153,-1.7065,-1.707,-1.6863,-1.6696,-1.6458,-1.6464,-1.6293,-1.6059,-1.6012,-1.6012,-1.5916,-1.5992,-1.6137,-1.6366,-1.6203,-1.6005,-1.5645,-1.5678,-1.5524,-1.501,-1.5023,-1.493,-1.4636,-1.4676,-1.4576,-1.4289,-1.4275,-1.4242,-1.4182,-1.4242,-1.4208,-1.4088,-1.3979,-1.3404,-1.2481,-1.2528,-1.2451,-0.5898,-0.567,-0.5177,-0.5805,-0.503,-0.4216,-0.4527,-0.4356,-0.4083,-0.4068,-0.388,-0.37,-0.3718,-0.364,-0.3837,-0.4542,-0.4931,-0.5786,-0.7727,-0.8751,-0.988,-1.1272,-1.196,-1.2362,-1.2681,-1.2619,-1.2555,-1.2297,-1.3779,-1.4982,-1.5536,-1.7172,-1.8131,-1.8261,-1.7683,-1.7485,-1.7819,-1.8105,-1.8105,-1.7834,-1.9113,-1.932,-1.8489,-1.8785,-1.8632,-1.8125,-1.7849,-1.7697,0.0,-1.7772,-1.7772,-1.7772,-1.7772,-1.7589,-1.7362,-1.7662,-1.7582,-1.7369,-1.7669,-1.7574,-1.7326,-1.7326,-1.7326,-1.7384,-1.7684,-1.7772,-1.7772,-1.7772,-1.7772,-1.7699,-1.7406,-1.7326,-1.7326,-1.7326,-1.7153,-1.7065,-1.7277,-1.696,-1.6758,-1.7025,-1.6873,-1.666,-1.6627,-1.6627,-1.652,-1.6394,-1.6534,-1.6667,-1.6893,-1.7015,-1.684,-1.6253,-1.5738,-1.5304,-1.499,-1.5204,-1.5237,-1.4943,-1.517,-1.5184,-1.4897,-1.4883,-1.4756,-1.4482,-1.4743,-1.4623,-1.4088,-1.3665,-1.288,-1.1652,-1.1202,-1.0519,-0.5525,-0.5422,-0.5044,-0.563,-0.5281,-0.4762,-0.4543,-0.44,-0.4284,-0.4152,-0.4016,-0.3913,-0.3872,-0.3767,-0.3893,-0.4597,-0.5007,-0.5901,-0.7709,-0.8674,-0.9746,-1.13,-1.1854,-1.224,-1.2662,-1.2705,-1.2733,-1.2745,-1.4421,-1.5487,-1.5636,-1.7153,-1.8081,-1.8287,-1.7636,-1.7437,-1.7763,-1.7914,-1.812,-1.8414,-1.8978,-1.9217,-1.9067,-1.8801,-1.8574,-1.8379,-1.8054,-1.8089,0.0,-1.8085,-1.8133,-1.8259,-1.7875,-1.7787,-1.7904,-1.7838,-1.7735,-1.764,-1.7971,-1.7831,-1.7625,-1.7823,-1.786,-1.7867,-1.7604,-1.7662,-1.7816,-1.7816,-1.7816,-1.7786,-1.7655,-1.7472,-1.7326,-1.7326,-1.7239,-1.729,-1.7624,-1.7534,-1.7428,-1.7629,-1.7387,-1.7231,-1.6948,-1.6807,-1.67,-1.6593,-1.6739,-1.6967,-1.7082,-1.7074,-1.6981,-1.6573,-1.6326,-1.5999,-1.5524,-1.5591,-1.5531,-1.5244,-1.5331,-1.5264,-1.4977,-1.4963,-1.491,-1.479,-1.4903,-1.4897,-1.4681,-1.4469,-1.413,-1.3636,-1.3566,-1.3003,-0.4774,-0.4849,-0.4619,-0.5,-0.5076,-0.4911,-0.4368,-0.4357,-0.4412,-0.4192,-0.4108,-0.4058,-0.3985,-0.3958,-0.4085,-0.4695,-0.533,-0.6232,-0.7622,-0.8639,-0.9634,-1.0845,-1.1425,-1.189,-1.2421,-1.2614,-1.2875,-1.325,-1.4576,-1.5514,-1.5782,-1.7014,-1.7739,-1.7985,-1.7429,-1.7278,-1.762,-1.7826,-1.812,-1.8518,-1.8931,-1.9161,-1.9209,-1.8879,-1.8722,-1.8621,-1.8326,-1.8318,0.0,-1.8186,-1.8267,-1.8446,-1.7988,-1.7963,-1.825,-1.811,-1.8059,-1.8052,-1.8268,-1.8201,-1.7897,-1.8007,-1.803,-1.7933,-1.7465,-1.7691,-1.8101,-1.8101,-1.7962,-1.7816,-1.7816,-1.7647,-1.7494,-1.7589,-1.7618,-1.7676,-1.8038,-1.806,-1.8053,-1.8256,-1.8011,-1.7736,-1.7421,-1.7177,-1.7069,-1.6967,-1.7134,-1.7158,-1.7275,-1.7268,-1.7052,-1.6867,-1.676,-1.6466,-1.5879,-1.5832,-1.5745,-1.5538,-1.5524,-1.5431,-1.5224,-1.5217,-1.5177,-1.5097,-1.5177,-1.5197,-1.4962,-1.4885,-1.473,-1.4668,-1.4303,-1.3594,-0.3558,-0.3765,-0.3887,-0.3651,-0.398,-0.4213,-0.3863,-0.418,-0.4456,-0.432,-0.4192,-0.4064,-0.3928,-0.4192,-0.4539,-0.4927,-0.5831,-0.6749,-0.7514,-0.8703,-0.958,-0.9856,-1.0647,-1.1335,-1.1878,-1.2403,-1.296,-1.3652,-1.4328,0.0,-1.6234,-1.6939,-1.7286,-1.7286,-1.6937,-1.6913,-1.7278,-1.7954,-1.812,-1.7795,-1.9193,-1.9495,-1.8843,-1.9201,-1.9265,-1.8941,-1.8621,-1.8381,0.0,-1.8087,-1.8087,-1.8094,-1.8087,-1.8112,-1.8267,-1.8596,-1.8701,-1.8686,-1.8701,-1.8484,-1.8133,-1.7826,-1.7535,-1.7333,-1.7333,-1.8006,-1.8782,-1.8782,-1.8313,-1.7816,-1.7816,-1.7808,-1.7889,-1.8218,-1.8291,-1.8379,-1.8708,-1.8586,-1.849,-1.8805,-1.8639,-1.8318,-1.801,-1.801,-1.7905,-1.7681,-1.7575,-1.7575,-1.7582,-1.7575,-1.7468,-1.7174,-1.6881,-1.6466,-1.5879,-1.5832,-1.5832,-1.5825,-1.5825,-1.5818,-1.5818,-1.5818,-1.5685,-1.5398,-1.5671,-1.5538,-1.497,-1.449,-1.4161,-1.3764,-1.2056,-1.0692,-0.3406,-0.3574,-0.3732,-0.3881,-0.419,-0.4364,-0.4193,-0.4357,-0.4535,-0.4316,-0.4276,-0.4276,-0.4495,-0.4535,-0.4748,-0.5443,-0.6062,-0.6693,-0.7261,-0.8419,-0.9436,-1.0134,-1.1389,-1.2435,0.0,0.0,-1.3646,-1.4321,-1.4985,-1.5529,-1.589,-1.6573,-1.7024,-1.727,-1.7167,-1.7159,-1.7278,-1.7715,-1.812,-1.8494,-1.8947,-1.9169,-1.9193,-1.9058,-1.8901,-1.8893,-1.9504,-1.9418,-1.8989,-1.9461,-1.937,-1.9016,-1.8559,-1.854,-1.8859,-1.8965,-1.9003,-1.8996,-1.9192,-1.9025,-1.8776,-1.8624,-1.8391,-1.8297,-1.8297,-1.8162,-1.8167,-1.8394,-1.8467,-1.843,-1.8203,-1.8145,-1.8174,-1.8277,-1.8299,-1.8394,-1.8723,-1.8687,-1.8789,-1.9117,-1.8966,-1.8646,-1.8325,-1.8122,-1.7911,-1.7687,-1.7582,-1.7582,-1.7582,-1.7582,-1.7468,-1.7181,-1.7286,-1.7002,-1.6289,-1.5952,-1.5832,-1.5832,-1.5832,-1.5832,-1.5832,-1.5832,-1.5785,-1.5698,-1.5114,-1.507,-1.5551,-1.395,-1.3176,-1.3053,-1.1768,-1.1044,-0.3389,-0.3456,-0.3619,-0.3923,-0.4257,-0.4424,-0.4307,-0.4438,-0.4574,-0.4408,-0.432,-0.436,-0.4499,-0.4753,-0.5053,-0.5486,-0.6292,-0.696,-0.7152,-0.8354,-0.9597,-1.071,-1.2228,0.0,0.0,-1.3935,-1.4321,-1.5068,-1.5484,-1.5816,-1.6064,-1.6484,-1.6998,-1.7548,-1.7556,-1.7398,-1.7072,-1.8209,-1.8679,-1.843,-1.9414,-1.967,-1.9161,-1.9653,-1.972,-1.9455,-2.0439,-2.0577,0.0,-2.0178,-1.9987,-1.97,-1.8824,-1.8799,-1.929,-1.929,-1.9375,-1.9467,-1.9532,-1.9303,-1.9043,-1.8791,-1.8544,-1.8342,-1.8238,-1.8155,-1.8196,-1.8277,-1.854,-1.8738,-1.854,-1.8482,-1.8518,-1.8642,-1.8672,-1.8723,-1.8928,-1.8972,-1.903,-1.9235,-1.9175,-1.8966,-1.8646,-1.8436,-1.8233,-1.7799,-1.7799,-1.7694,-1.7582,-1.7582,-1.7515,-1.7335,-1.7441,-1.7333,-1.686,-1.6337,-1.5952,-1.5838,-1.5832,-1.5832,-1.5832,-1.5832,-1.5832,-1.5832,-1.5159,-1.4968,-1.5255,-1.3521,-1.2475,-1.2098,-1.1461,-1.0936,0.0,-0.347,-0.3517,-0.3877,-0.4232,-0.4451,-0.4447,-0.4574,0.0,-0.4543,-0.4451,-0.4364,-0.4236,-0.4932,-0.5496,-0.5295,-0.6533,-0.7452,-0.7303,-0.8564,-1.0084,0.0,-1.3058,0.0,-1.3959,-1.4444,-1.5068,-1.5733,-1.5816,-1.6147,-1.673,-1.6812,-1.7286,-1.8078,-1.8158,-1.7764,-1.6894,-1.9252,-1.963,-1.8032,-2.051,-2.0709,-1.9096,-2.0889,-2.1248,0.0,-2.1418,-2.1784,-2.1606,-2.052,-2.0249,-2.0257,-1.9196,-1.9138,-1.97,-1.9723,-1.9838,-1.9975,-1.9654,-1.9333,-1.9004,-1.859,-1.8102,-1.7721,-1.7426,-1.7977,-1.8664,-1.8379,-1.854,-1.8796,-1.8818,-1.8825,-1.8899,-1.9206,-1.9279,-1.9279,-1.9279,-1.9279,-1.9279,-1.9279,-1.9279,-1.9175,-1.8974,-1.8869,-1.866,-1.8128,-1.8016,-1.7911,-1.7687,-1.7582,-1.7582,-1.7582,-1.7341,-1.7284,-1.7606,-1.6853,-1.6283,-1.5885,-1.5865,-1.5852,-1.5832,-1.5832,-1.5832,-1.5832,-1.5832,-1.5255,-1.4202,-1.3272,-1.2232,-1.118,-1.1189,-1.0663,-0.4466,0.0,-0.3802,-0.4612,-0.4865,-0.5087,0.0,-0.5701,-0.5524,-0.5058,-0.5183,-0.5351,-0.5308,-0.5701,-0.62,-0.671,-0.7167,-0.759,-0.7914,-0.981,0.0,-1.2421,-1.3724,-1.449,-1.4472,-1.5102,-1.5733,-1.6402,-1.7115,-1.7513,-1.7683,-1.831,-1.8789,-1.9027,-1.959,-1.9511,-1.8709,-1.9907,-2.0307,-1.9894,-2.1125,-2.1427,-2.1069,-2.1516,-2.1606,-2.1427,-2.2394,-2.2217,-2.1418,-2.212,-2.1854,-2.106,-2.0979,-2.1004,-2.119,-2.1499,-2.1199,-2.0607,-2.0515,-1.9976,-1.9217,-1.8683,-1.8288,-1.7994,-1.7721,-1.7772,-1.8079,-1.8255,-1.854,-1.8847,-1.9096,-1.9162,-1.9184,-1.9257,-1.9279,-1.9279,-1.9279,-1.9279,-1.9279,-1.9279,-1.9279,-1.9175,-1.8974,-1.8869,-1.8757,-1.8325,-1.8325,-1.822,-1.7911,-1.7911,-1.7799,-1.7582,-1.7522,-1.7506,-1.7627,-1.7035,-1.648,-1.6289,-1.6172,-1.6066,-1.5838,-1.5832,-1.5832,-1.5832,-1.5832,-1.4885,-1.3088,-1.3659,-1.2958,-1.1184,-1.1157,-1.0663,-0.4893,-0.4649,-0.4539,-0.5266,-0.5561,-0.5813,-0.6337,-0.6252,-0.5947,-0.5776,-0.5739,-0.5696,-0.5696,-0.5996,-0.6391,-0.6885,-0.7357,-0.7972,-0.8714,-1.0588,-1.213,-1.3005,-1.4358,-1.5255,0.0,-1.594,-1.6476,-1.7204,-1.7764,-1.8158,-1.855,-1.9027,-1.9502,-1.9816,-2.0294,-2.0138,-1.9344,-2.09,-2.132,-2.0484,-2.2179,-2.2492,-2.1695,-2.258,-2.2755,-2.2394,-2.3367,-2.3377,-2.2755,-2.2921,-2.2561,-2.2129,-2.1676,-2.1706,-2.1907,-2.2126,-2.1841,-2.138,-2.0916,-2.0077,-1.9098,-1.8636,-1.8288,-1.8087,-1.7815,-1.7653,-1.7691,-1.8167,-1.854,-1.8869,-1.9191,-1.9279,-1.9279,-1.9279,-1.9279,-1.9279,-1.9279,-1.9279,-1.9279,-1.9279,-1.9279,-1.9279,-1.9078,-1.9078,-1.8966,-1.8646,-1.8646,-1.8436,-1.8016,-1.8016,-1.7911,-1.7582,-1.7462,-1.7432,-1.7394,-1.7116,-1.6894,-1.6711,-1.6578,-1.6339,-1.6046,-1.6032,-1.5972,-1.5832,-1.535,-1.4592,-1.346,-1.3534,-1.3028,-1.1843,-1.1898,-1.1311,-0.519,-0.5307,-0.5613,-0.5987,-0.6344,-0.6706,-0.7043,-0.6748,-0.6452,-0.67,-0.641,-0.6076,-0.6033,-0.6331,-0.6692,-0.6974,-0.7793,-0.8862,-1.0119,-1.1474,-1.2731,-1.3672,-1.5088,0.0,-1.6685,-1.6985,-1.7367,-1.8158,-1.8318,-1.8709,-1.9423,-1.9515,-1.9906,-2.0692,-2.0633,-2.0314,-1.9659,-2.206,-2.2421,-2.0903,-2.3313,-2.3657,-2.2138,-2.3744,-2.409,-2.3367,0.0,0.0,-2.4368,-2.3367,-2.3096,-2.3183,-2.2189,-2.2067,-2.2572,-2.2572,-2.2481,-2.2199,-2.1107,-1.9979,-1.9012,-1.8658,-1.8381,-1.8094,-1.7815,-1.7658,-1.7523,-1.8072,-1.8467,-1.8789,-1.9118,-1.9242,-1.9279,-1.9279,-1.9279,-1.9279,-1.9279,-1.9279,-1.9279,-1.9279,-1.9279,-1.9279,-1.9279,-1.9279,-1.9175,-1.8974,-1.8974,-1.8764,-1.8233,-1.8122,-1.7911,-1.7694,-1.7466,-1.7194,-1.7154,-1.7188,-1.7203,-1.7022,-1.6881,-1.6627,-1.6286,-1.6175,-1.5939,-1.5838,-1.4777,-1.4298,-1.4298,-1.3511,-1.292,-1.2436,-1.263,-1.2047,-0.6055,-0.6738,-0.7243,-0.7051,-0.7506,-0.8121,-0.8553,-0.8472,-0.817,-0.7859,-0.7841,-0.7807,-0.7467,-0.7724,-0.8227,-0.8845,-0.9978,-1.1406,0.0,0.0,-1.4266,-1.4852,0.0,-1.7471,-1.697,-1.8092,-1.8948,-1.9097,-1.9737,-2.0148,-2.0304,-2.0651,-2.1084,-2.1558,-2.1189,-2.1179,-2.1405,-2.2639,-2.3103,-2.2778,-2.3926,-2.4368,-2.41,-2.4368,-2.4454,-2.4272,0.0,-2.4368,-2.4206,-2.4186,-2.4186,-2.4013,-2.4003,-2.4044,-2.4115,-2.4115,-2.366,-2.2754,-2.096,-2.0209,-1.9894,-1.9004,-1.8651,-1.8381,-1.8094,-1.801,-1.8067,-1.7867,-1.8123,-1.8452,-1.8782,-1.9067,-1.9279,-1.9279,-1.9279,-1.9279,-1.9279,-1.9279,-1.9279,-1.9279,-1.9279,-1.9279,-1.9279,-1.9279,-1.9279,-1.9279,-1.9279,-1.9071,-1.8764,-1.8541,-1.822,-1.8016,-1.7654,-1.7415,-1.7174,-1.7375,-1.7395,-1.721,-1.719,-1.684,-1.6293,-1.5477,-1.5246,-1.5832,-1.4777,-1.4298,-1.4298,-1.4962,-1.3986,-1.1463,-1.2339,-1.1663,-0.6254,-0.7148,-0.7974,-0.7826,-0.8411,-0.9076,-0.935,-0.9412,-0.9306,-0.8893,-0.8931,-0.8848,-0.8134,0.0,-0.8973,-0.9915,0.0,-1.2382,-1.3228,-1.3913,-1.4585,0.0,0.0,-1.7872,-1.8234,-1.8888,-1.9409,-1.9591,-1.9966,-2.0249,-2.0461,-2.0862,-2.1217,-2.1424,-2.1466,-2.159,-2.1807,-2.248,-2.2946,-2.3194,-2.4105,-2.454,-2.454,-2.454,-2.454,-2.454,0.0,-2.4454,-2.4378,-2.4454,-2.4464,-2.4378,-2.4454,-2.454,-2.454,-2.454,-2.3907,-2.3008,-2.212,-2.1498,-2.0881,-1.9903,-1.9455,-1.9096,-1.8465,-1.8115,-1.7859,-1.7757,-1.8015,-1.8379,-1.8701,-1.8899,-1.906,-1.9235,-1.9279,-1.9279,-1.9279,-1.9279,-1.9279,-1.9279,-1.9279,-1.9279,-1.9279,-1.9279,-1.9279,-1.9279,-1.9279,-1.9175,-1.8974,-1.8757,-1.8478,-1.8102,-1.777,-1.7441,-1.7144,-1.7136,-1.7188,-1.7375,-1.7235,-1.6954,-1.6526,-1.5356,-1.4759,-1.4975,-1.3998,-1.3414,-1.3414,-1.389,-1.3403,-1.2047,-1.2436,-1.1858,-0.6576,-0.7556,-0.8626,-0.869,-0.9268,-0.9868,-0.9973,-1.0253,-1.042,-1.0084,-1.0192,-1.0074,-0.9298,-0.9632,0.0,-1.1395,-1.268,-1.3608,-1.3664,-1.4446,-1.53,-1.61,-1.7234,-1.8294,-1.9338,-1.9503,-1.9745,-2.0157,-2.0048,-2.0136,-2.037,-2.0803,-2.1063,-2.1167,-2.1723,-2.203,-2.2147,-2.2576,-2.2903,-2.3039,-2.395,-2.4385,-2.4385,-2.4498,-2.454,-2.454,-2.454,-2.454,-2.454,-2.454,-2.454,-2.454,-2.454,-2.454,-2.454,-2.454,-2.409,-2.3367,-2.3183,-2.2658,-2.1863,-2.097,-2.0339,-1.9803,-1.9104,-1.8427,-1.7912,-1.7744,-1.7949,-1.8247,-1.8496,-1.8672,-1.8855,-1.9103,-1.922,-1.9279,-1.9279,-1.9279,-1.9279,-1.9279,-1.9279,-1.9279,-1.9279,-1.9279,-1.9279,-1.9279,-1.9279,-1.9279,-1.8974,-1.8974,-1.8672,-1.821,-1.7984,-1.7654,-1.7257,-1.6854,-1.6901,-1.7348,-1.7235,-1.6912,-1.6413,-1.5022,-1.4264,-1.3908,-1.2926,-1.2339,-1.2339,-1.263,-1.2436,-1.1955,-1.2237,-1.1755,-0.7481,-0.8509,-0.9569,-0.982,-1.0263,-1.0626,-1.0626,-1.1341,-1.1887,-1.168,0.0,0.0,0.0,-1.2428,-1.3262,-1.4148,-1.5127,-1.6105,-1.6985,0.0,-1.7504,-1.7685,-1.8552,-1.9257,-1.9837,-2.0106,-2.0535,-2.1009,-2.0648,-2.038,-2.042,-2.0674,-2.1007,-2.1452,-2.2159,-2.273,-2.3208,-2.3433,-2.326,-2.2563,-2.3484,-2.3929,-2.3939,-2.4353,-2.454,-2.454,-2.454,-2.454,-2.454,-2.454,-2.454,-2.454,-2.454,-2.454,-2.454,-2.454,-2.4454,-2.4272,-2.3367,-2.3096,-2.2833,-2.1863,-2.097,-2.0249,-1.9894,-1.922,-1.8396,-1.7905,-1.7779,-1.7852,-1.7882,-1.8335,-1.8796,-1.8818,-1.906,-1.9279,-1.9279,-1.9279,-1.9279,-1.9279,-1.9279,-1.9279,-1.9279,-1.9279,-1.9279,-1.9279,-1.9279,-1.9272,-1.9272,-1.9078,-1.8862,-1.884,-1.8506,-1.8164,-1.7565,-1.7069,-1.6727,-1.6767,-1.7007,-1.6606,-1.5398,-1.4019,-1.3172,-1.2834,-1.1853,-1.1268,-1.1268,-1.2242,-1.1663,-0.9821,-1.0867,-1.0774,-0.8174,-0.8969,-0.9755,-0.9847,-1.0679,-1.14,-1.1248,-1.1983,-1.2552,-1.1943,-1.2457,0.0,0.0,0.0,-1.3521,-1.4469,-1.5319,-1.6187,-1.6773,-1.7264,-1.7687,-1.8059,-1.8983,-1.9758,-2.0204,-2.0309,-2.0379,-2.0286,-2.011,-1.9893,-1.9603,-2.0357,-2.0847,-2.1032,-2.2353,-2.3097,-2.3292,-2.3761,-2.3817,-2.3466,-2.3467,-2.3598,-2.3888,-2.4053,-2.4281,-2.454,-2.454,-2.454,-2.454,-2.454,-2.454,-2.454,-2.454,-2.454,-2.454,-2.454,-2.454,-2.4454,-2.409,-2.3993,-2.382,-2.2843,-2.1952,-2.106,-2.0339,-1.9369,-1.8457,-1.8039,-1.7804,-1.7764,-1.7765,-1.7999,-1.8284,-1.8694,-1.8884,-1.903,-1.9228,-1.9279,-1.9279,-1.9279,-1.9279,-1.9213,-1.9008,-1.914,-1.9206,-1.9001,-1.9147,-1.9279,-1.9279,-1.9175,-1.9022,-1.8615,-1.8268,-1.7837,-1.7145,-1.715,-1.7035,-1.646,-1.6714,-1.6539,-1.5952,-1.4132,-1.3073,-1.2737,-1.1082,-1.0207,-1.0207,-1.0596,-1.0404,-0.9628,-1.0006,-1.001,-0.908,-0.9568,-1.0075,-1.0177,-1.118,-1.2128,-1.2045,-1.2709,-1.3166,-1.2491,-1.3087,-1.36,-1.3236,0.0,0.0,0.0,-1.5866,-1.665,-1.6828,-1.7352,-1.7819,-1.8056,-1.8721,-1.9354,-1.9934,-1.9862,-1.9837,-2.0091,-1.976,-1.9599,-1.9736,-2.0479,-2.0985,-2.1171,-2.2724,-2.3517,-2.3517,-2.3816,-2.4002,-2.4188,-2.3567,-2.3456,-2.384,-2.3752,-2.3908,-2.4333,-2.4333,-2.4405,-2.454,-2.454,-2.454,-2.454,-2.454,-2.454,-2.454,-2.454,-2.454,-2.454,-2.454,-2.454,-2.4358,-2.3724,-2.2931,-2.2041,-2.1409,-2.0167,-1.892,-1.8719,-1.8172,-1.768,-1.7801,-1.7743,-1.7933,-1.8379,-1.8562,-1.8723,-1.9052,-1.9038,-1.9001,-1.9103,-1.9038,-1.8935,-1.8811,-1.8891,-1.8928,-1.8803,-1.8891,-1.9001,-1.9111,-1.9118,-1.895,-1.8503,-1.8267,-1.7704,-1.7002,-1.7152,-1.6973,-1.6263,-1.6026,-1.5888,-1.5784,-1.4005,-1.2795,-1.2247,-1.0502,-0.9628,-0.9628,-0.9628,-0.9628,-0.9628,-0.9628,-0.9628,-1.0286,-1.0444,-1.07,-1.1037,-1.1938,-1.2818,-1.3148,-1.3553,-1.3848,-1.3575,-1.3972,-1.4373,-1.4373,-1.517,0.0,-1.5785,-1.7049,-1.7919,-1.7722,-1.8002,-1.8118,-1.7934,-1.7781,-1.8081,-1.8971,-1.864,-1.907,-2.0662,-1.9705,-1.9704,-2.0996,-2.1123,-2.1428,-2.2113,-2.3368,-2.4004,-2.4004,-2.3709,-2.391,-2.4506,-2.3723,-2.3458,-2.37,-2.3345,-2.3432,-2.3867,-2.3877,-2.4126,-2.4529,-2.4444,-2.454,-2.454,-2.454,-2.454,-2.454,-2.454,-2.454,-2.454,-2.454,-2.454,-2.454,-2.454,-2.382,-2.3096,-2.3096,-2.1578,-1.9894,-1.9886,-1.8804,-1.7721,-1.7721,-1.7771,-1.7808,-1.7816,-1.8064,-1.8386,-1.8708,-1.8525,-1.8401,-1.8723,-1.8525,-1.8401,-1.8723,-1.8511,-1.8408,-1.873,-1.8511,-1.8423,-1.8752,-1.8789,-1.8789,-1.8789,-1.8593,-1.8132,-1.7495,-1.696,-1.6553,-1.6238,-1.4968,-1.4413,-1.4672,-1.3442,-1.2242,-1.1268,-1.0109,-0.9628,-0.9628,-0.9628,-0.9628,-0.9628,-0.9628,-0.9628,-1.1391,-1.1536,-1.1863,-1.2143,-1.2758,-1.3409,-1.385,-1.3931,0.0,0.0,-1.4105,-1.3991,-1.4318,-1.4351,0.0,-1.5622,-1.6144,-1.6656,-1.7331,-1.7647,-1.7819,-1.776,-1.7949,-1.8081,-1.8207,-1.8103,-1.8385,-1.9214,-1.8919,-1.9295,-2.0449,-2.0953,-2.1485,-2.2089,-2.3368,-2.4004,-2.4004,-2.4275,-2.4558,-2.4719,-2.3874,-2.3557,-2.3689,-2.4139,-2.4024,-2.3483,-2.4267,-2.4228,-2.3608,-2.3939,-2.426,-2.454,-2.454,-2.454,-2.454,-2.454,-2.454,-2.454,-2.454,-2.454,-2.454,-2.454,-2.382,-2.3096,-2.3096,-2.2208,-2.115,-2.0953,-1.9968,-1.8896,-1.8696,-1.8039,-1.753,-1.7765,-1.7889,-1.805,-1.8379,-1.8372,-1.8328,-1.843,-1.8364,-1.8262,-1.813,-1.8211,-1.8255,-1.8123,-1.8218,-1.8423,-1.8752,-1.8591,-1.8445,-1.8445,-1.8353,-1.7992,-1.7173,-1.7124,-1.6629,-1.5261,-1.4758,-1.4514,-1.4407,-1.2673,-1.1853,-1.2242,-1.0502,-1.0015,-1.069,-1.0015,-0.9628,-0.9628,-0.9628,-0.9628,-1.2071,-1.1911,-1.2081,-1.2702,-1.318,-1.3698,-1.4393,-1.4317,-1.4174,0.0,-1.4292,-1.4045,-1.4329,-1.4307,0.0,-1.54,-1.5807,-1.6241,-1.6645,-1.7099,-1.7367,-1.7194,-1.7429,-1.7722,-1.8061,-1.8072,-1.8447,-1.9349,-1.9194,-1.9556,-2.0712,-2.1093,-2.1584,-2.2164,-2.3095,-2.3653,-2.3653,-2.3979,-2.4268,-2.4494,-2.4008,-2.3732,-2.3693,-2.4043,-2.3924,-2.3393,-2.4009,-2.39,-2.3205,-2.3494,-2.3753,-2.4002,-2.4002,-2.4115,-2.4281,-2.4281,-2.4385,-2.454,-2.454,-2.454,-2.454,-2.454,-2.409,-2.3637,-2.3637,-2.3018,-2.2217,-2.2022,-2.0863,-1.9621,-1.9422,-1.8427,-1.7478,-1.7574,-1.7618,-1.7706,-1.8035,-1.8006,-1.7955,-1.8086,-1.8006,-1.7889,-1.783,-1.7874,-1.7889,-1.7823,-1.7984,-1.8182,-1.8379,-1.8343,-1.8255,-1.8123,-1.8108,-1.78,-1.7203,-1.6756,-1.6108,-1.5057,-1.3992,-1.3414,-1.3232,-1.1955,-1.1463,-1.2047,-1.0502,-0.9916,-1.0596,-0.9916,-0.9628,-0.9628,-0.9628,-0.9628,-1.2619,-1.1993,-1.1821,-1.2958,-1.3472,-1.3937,-1.4857,-1.4732,-1.4458,-1.4642,0.0,-1.4318,-1.4318,-1.4679,-1.5006,-1.5094,-1.5826,-1.6262,-1.584,-1.644,-1.6784,-1.6375,-1.6642,-1.7194,-1.8157,-1.8259,-1.8908,-2.0483,-1.9993,-2.0189,-2.135,-2.1342,-2.1565,-2.2234,-2.2723,-2.2927,-2.2927,-2.2977,-2.3326,-2.3853,-2.3891,-2.3801,-2.3652,-2.3489,-2.3568,-2.3722,-2.334,-2.3192,-2.3184,-2.3143,-2.3153,-2.3184,-2.3184,-2.3443,-2.3815,-2.3815,-2.4095,-2.4478,-2.4478,-2.4509,-2.454,-2.454,-2.454,-2.454,-2.454,-2.3907,-2.3193,-2.3193,-2.1667,-2.0068,-2.0068,-1.8896,-1.7628,-1.7426,-1.7333,-1.7406,-1.7706,-1.7538,-1.7421,-1.7713,-1.753,-1.7421,-1.7721,-1.7523,-1.7428,-1.7728,-1.7772,-1.7786,-1.7808,-1.8072,-1.8145,-1.7845,-1.7816,-1.7684,-1.7355,-1.6285,-1.5527,-1.5242,-1.3125,-1.1683,-1.1487,-1.1179,-1.1077,-1.117,-1.0109,-0.9624,-0.9723,-0.9628,-0.9628,-0.9628,-0.9628,-0.9628,-1.422,-1.3421,-1.2923,-1.4063,-1.4825,-1.5336,-1.5576,-1.5437,-1.5077,-1.4568,-1.4138,-1.3849,-1.3849,-1.3925,-1.4242,-1.4985,-1.5279,-1.5509,-1.5742,-1.6264,-1.658,-1.6482,-1.6917,-1.7412,-1.7934,-1.8001,-1.8475,-1.9609,-1.9461,-1.9829,-2.0949,-2.0899,-2.1106,-2.1644,-2.1782,-2.1845,-2.1845,-2.2272,-2.2548,-2.2686,-2.3113,-2.3492,-2.3915,-2.4332,-2.4253,-2.3937,-2.3327,-2.3136,-2.3163,-2.2801,-2.2863,-2.3184,-2.3184,-2.3246,-2.3339,-2.3339,-2.3629,-2.4022,-2.4022,-2.425,-2.454,-2.454,-2.454,-2.454,-2.454,-2.4358,-2.4186,-2.4186,-2.2648,-2.1033,-2.1033,-1.9338,-1.7721,-1.7628,-1.7426,-1.7347,-1.7421,-1.7377,-1.7347,-1.7421,-1.7377,-1.7347,-1.7421,-1.7377,-1.7355,-1.7421,-1.7435,-1.7523,-1.7786,-1.7874,-1.7889,-1.7823,-1.7816,-1.7684,-1.7355,-1.7044,-1.6089,-1.4364,-1.3692,-1.2533,-1.0703,-1.0212,-1.0306,-1.1175,-1.0109,-1.0015,-1.0886,-1.0015,-0.9628,-0.9628,-0.9628,-0.9628,-1.4309,-1.3694,-1.3449,-1.4306,-1.4985,-1.5443,-1.5288,-1.5079,-1.4713,-1.3976,-1.3998,-1.4093,-1.3784,-1.3871,-1.4187,-1.4679,-1.5134,-1.5434,-1.5467,-1.6282,-1.6695,-1.6204,-1.6836,-1.734,-1.7641,-1.7847,-1.8307,-1.9007,-1.9007,-1.9208,-1.9724,-2.0194,-2.06,-2.0838,-2.1369,-2.1592,-2.1592,-2.1826,-2.2046,-2.2309,-2.2598,-2.3037,-2.3615,-2.4023,-2.408,-2.377,-2.2956,-2.2638,-2.2643,-2.2324,-2.2304,-2.2542,-2.277,-2.2853,-2.2884,-2.3111,-2.3339,-2.3577,-2.3805,-2.4033,-2.426,-2.4478,-2.454,-2.454,-2.454,-2.454,-2.454,-2.454,-2.3018,-2.1489,-2.1489,-1.9803,-1.8102,-1.8102,-1.7714,-1.7326,-1.7326,-1.7326,-1.7326,-1.7326,-1.7326,-1.7326,-1.7326,-1.7326,-1.7326,-1.7326,-1.7326,-1.7391,-1.756,-1.7582,-1.7582,-1.7582,-1.7582,-1.7516,-1.734,-1.6466,-1.5317,-1.4166,-1.3011,-1.1858,-1.0609,-1.0216,-1.0212,-1.0596,-1.0113,-1.0015,-1.04,-0.9916,-0.9628,-0.9628,-0.9628,-0.9628,-1.4298,-1.387,-1.388,-1.4141,-1.4672,-1.5057,-1.4799,-1.4604,-1.4211,-1.3438,-1.3834,-1.4183,-1.3751,-1.4005,-1.4359,-1.4582,-1.5255,-1.5649,-1.529,-1.6268,-1.6799,-1.602,-1.6667,-1.7278,-1.7521,-1.7869,-1.8261,-1.8681,-1.8727,-1.8647,-1.8554,-1.9389,-1.9939,-2.0079,-2.0883,-2.1364,-2.1411,-2.1415,-2.1637,-2.2033,-2.2221,-2.2548,-2.2965,-2.3225,-2.3388,-2.3382,-2.2531,-2.2171,-2.2064,-2.1733,-2.1621,-2.1725,-2.2108,-2.2304,-2.2418,-2.2811,-2.3049,-2.3246,-2.3629,-2.3805,-2.395,-2.4395,-2.454,-2.454,-2.454,-2.454,-2.4454,-2.4272,-2.3028,-2.1695,-2.1516,-2.0002,-1.8481,-1.8481,-1.8001,-1.7419,-1.7426,-1.7333,-1.7333,-1.7333,-1.7326,-1.7326,-1.7326,-1.7326,-1.7326,-1.7326,-1.7326,-1.7326,-1.7326,-1.7326,-1.7326,-1.7326,-1.7326,-1.7232,-1.7044,-1.5697,-1.4651,-1.4364,-1.2635,-1.1575,-1.138,-1.0993,-1.0699,-1.0408,-1.0117,-0.9821,-0.9628,-0.9628,-0.9628,-0.9628,-0.9628,-0.9628,-1.5875,-1.5413,-1.4883,-1.4066,-1.4485,-1.5082,-1.5057,-1.5006,-1.4701,0.0,-1.3151,-1.2968,-1.3504,-1.37,-1.4159,-1.5182,-1.5593,-1.5784,-1.5712,-1.6226,-1.6526,-1.6408,-1.6872,-1.7436,-1.7964,-1.8072,-1.8295,-1.8806,-1.8773,-1.8681,-1.8693,-1.8695,-1.8955,-1.949,-1.9656,-1.9863,-2.0205,-2.0711,-2.0936,-2.0891,-2.1857,-2.2347,-2.2422,-2.2443,-2.2653,-2.291,-2.2613,-2.2335,-2.201,-2.103,-2.0845,-2.1217,-2.128,-2.1549,-2.1901,-2.1963,-2.2501,-2.3194,-2.3256,-2.3546,-2.395,-2.4395,-2.454,-2.454,-2.454,-2.454,-2.4358,-2.3551,-2.2482,-2.1516,-2.0701,-1.9463,-1.8481,-1.8481,-1.828,-1.79,-1.7721,-1.7628,-1.7621,-1.7333,-1.7326,-1.7326,-1.7326,-1.7326,-1.7326,-1.7326,-1.7326,-1.7326,-1.7326,-1.7326,-1.7326,-1.7326,-1.7326,-1.6943,-1.6082,-1.656,-1.6177,-1.4459,-1.4841,-1.474,-1.3884,-1.292,-1.2247,-1.195,-1.0699,-0.9821,-0.9628,-0.9628,-0.9628,-0.9628,-0.9628,-0.9628,-1.5779,-1.4552,-1.3698,-1.3785,-1.4082,-1.4386,-1.4406,-1.4414,-1.4265,-1.3657,-1.3203,-1.3042,-1.3524,-1.4006,-1.4606,-1.5428,-1.5976,-1.6312,-1.6312,-1.6666,-1.6773,-1.652,-1.6896,-1.718,-1.7192,-1.7416,-1.7681,-1.7944,-1.7913,-1.787,-1.787,-1.8106,-1.839,-1.8649,-1.89,-1.9089,-1.9297,-1.9455,-1.9851,-2.0409,-2.1551,-2.2027,-2.1958,-2.2027,-2.2389,-2.2935,-2.2448,-2.2131,-2.1887,-2.1517,-2.1134,-2.0803,-2.159,-2.1694,-2.1476,-2.2004,-2.2449,-2.2842,-2.3101,-2.3494,-2.395,-2.4395,-2.454,-2.4368,-2.3907,-2.3724,-2.3551,-2.258,-2.1596,-2.0791,-2.0439,-1.9455,-1.8658,-1.8658,-1.8558,-1.8458,-1.8195,-1.7916,-1.7628,-1.7333,-1.7326,-1.7326,-1.7326,-1.7326,-1.7326,-1.7326,-1.7326,-1.7326,-1.7326,-1.7326,-1.7326,-1.7326,-1.7326,-1.7138,-1.6662,-1.656,-1.6082,-1.5222,-1.5032,-1.4459,-1.3403,-1.292,-1.2344,-1.1477,-1.0605,-1.0117,-0.9821,-0.9628,-0.9628,-0.9628,-0.9628,-0.9628,-1.5503,-1.3993,-1.3151,-1.3516,-1.3696,-1.3785,-1.3784,-1.39,-1.3941,0.0,-1.348,-1.3448,-1.3736,-1.4389,-1.512,-1.591,-1.6497,-1.6892,-1.6892,-1.7073,-1.7115,-1.6735,-1.6989,-1.7073,-1.6735,-1.6989,-1.7199,-1.7199,-1.7199,-1.7199,-1.7199,-1.763,-1.7944,-1.81,-1.8403,-1.8597,-1.8681,-1.8554,-1.8993,-2.0028,-2.0987,-2.1482,-2.1555,-2.1677,-2.2102,-2.2783,-2.2165,-2.2044,-2.2136,-2.2009,-2.1463,-2.0881,-2.192,-2.1876,-2.1291,-2.2102,-2.2403,-2.2408,-2.2987,-2.3339,-2.3619,-2.4188,-2.4291,-2.4019,-2.3308,-2.3127,-2.2889,-2.1854,-2.1007,-2.0399,-2.0051,-1.9363,-1.8827,-1.8827,-1.8827,-1.8735,-1.8473,-1.8009,-1.7628,-1.7333,-1.7326,-1.7326,-1.7326,-1.7326,-1.7326,-1.7326,-1.7326,-1.7326,-1.7326,-1.7326,-1.7326,-1.7326,-1.7326,-1.7232,-1.6943,-1.6466,-1.6082,-1.5798,-1.5127,-1.4364,-1.3499,-1.3017,-1.2247,-1.1287,-1.0801,-1.0314,-1.0019,-0.9727,-0.9628,-0.9628,-0.9628,-0.9628,-1.556,-1.4984,-1.4588,-1.3421,-1.3474,-1.3736,-1.3476,-1.3862,-1.4203,-1.3941,-1.3874,-1.3958,-1.4226,-1.4788,-1.5608,-1.6892,-1.731,-1.7447,-1.735,-1.7363,-1.7308,-1.7199,-1.7199,-1.7199,-1.7157,-1.7199,-1.7199,-1.7199,-1.7199,-1.7199,-1.7199,-1.7225,-1.7512,-1.8074,-1.8127,-1.8299,-1.8681,-1.8554,-1.8801,-1.9438,-2.0041,-2.0565,-2.1155,-2.1155,-2.1422,-2.1954,-2.1807,-2.2323,-2.3098,-2.185,-2.1542,-2.1929,-2.1768,-2.1597,-2.146,-2.1954,-2.1991,-2.1973,-2.2873,-2.2915,-2.2718,-2.3619,-2.3619,-2.3256,-2.3175,-2.3175,-2.292,-2.1437,-2.103,-2.0676,-1.9273,-1.8827,-1.8827,-1.8827,-1.8827,-1.8643,-1.8179,-1.7908,-1.7628,-1.7333,-1.7326,-1.7326,-1.7326,-1.7326,-1.7326,-1.7326,-1.7326,-1.7326,-1.7326,-1.7326,-1.7326,-1.7326,-1.7326,-1.6943,-1.5988,-1.6662,-1.685,-1.5893,-1.5798,-1.5697,-1.5602,-1.3782,-1.2635,-1.2635,-1.138,-1.0511,-1.0019,-0.9727,-0.9628,-0.9628,-0.9628,-0.9628,-1.6468,-1.5697,-1.5042,-1.3889,-1.3872,-1.4056,-1.3736,-1.3977,-1.4268,-1.417,-1.417,-1.4312,-1.4785,-1.5227,-1.5811,-1.6599,-1.7249,-1.7625,-1.761,-1.7502,-1.7419,-1.735,-1.7308,-1.7295,-1.7199,-1.7199,-1.7199,-1.7199,-1.7199,-1.7199,-1.7199,-1.7199,-1.7416,-1.7877,-1.7919,-1.7984,-1.8129,-1.8472,-1.86,-1.8578,-1.9512,-2.0021,-2.0141,-2.0654,-2.1082,-2.1532,-2.1537,-2.1845,-2.2311,-2.2492,-2.2027,-2.114,-2.1691,-2.1415,-2.0762,-2.1376,-2.1774,-2.2043,-2.26,-2.3029,-2.3391,-2.3422,-2.3525,-2.3402,-2.1914,-2.1495,-2.1155,-1.9677,-1.9259,-1.9165,-1.8915,-1.8827,-1.8827,-1.8827,-1.8827,-1.8735,-1.8381,-1.8187,-1.7807,-1.7426,-1.7326,-1.7326,-1.7326,-1.7326,-1.7326,-1.7326,-1.7326,-1.7326,-1.7326,-1.7326,-1.7326,-1.7326,-1.6749,-1.6177,-1.5798,-1.5514,-1.5222,-1.4841,-1.4841,-1.4555,-1.3878,-1.3113,-1.2441,-1.177,-1.1091,-1.0703,-1.0507,-1.0117,-0.9826,-0.9826,-0.9727,-0.9628,-1.7342,-1.6428,-1.5603,-1.4491,-1.4329,-1.431,-1.3868,-1.4101,-1.4351,-1.43,-1.43,-1.4409,-1.4802,-1.5232,-1.5715,-1.6277,-1.6995,-1.7464,-1.741,-1.7504,-1.7529,-1.7419,-1.7419,-1.7391,-1.7295,-1.7253,-1.7253,-1.7199,-1.7199,0.0,-1.7199,-1.7199,-1.7393,-1.7787,-1.7948,-1.8028,-1.8028,-1.8426,-1.8575,-1.8508,-1.9118,-1.9502,-1.9619,-1.9939,-2.0338,-2.0797,-2.1094,-2.1478,-2.2001,-2.2627,-2.232,-2.1446,-2.1958,-2.1585,-2.0823,-2.1421,-2.1576,-2.1744,-2.2376,-2.2974,-2.3391,-2.3236,-2.3287,-2.3155,-2.1442,-2.0727,-2.0237,-1.9118,-1.863,-1.8402,-1.8616,-1.874,-1.8827,-1.8827,-1.8827,-1.8743,-1.8574,-1.8381,-1.8094,-1.7527,-1.7426,-1.7426,-1.7333,-1.7326,-1.7326,-1.7326,-1.7326,-1.7326,-1.7326,-1.7326,-1.7138,-1.685,-1.6183,-1.5704,-1.5317,-1.4651,-1.4268,-1.4268,-1.398,-1.3403,-1.2727,-1.2344,-1.1868,-1.1194,-1.0998,-1.09,-1.09,-1.0413,-1.0117,-1.0117,-0.9826,-0.9727,0.0,0.0,0.0,-1.5179,-1.4824,-1.4564,-1.3909,-1.4131,-1.4483,-1.4319,-1.43,-1.4287,-1.43,-1.4761,-1.5358,-1.5955,-1.658,-1.6948,-1.6805,-1.733,-1.7679,-1.7516,-1.7516,-1.7488,-1.7404,-1.7404,-1.7363,-1.7199,-1.7199,-1.7199,-1.7199,-1.724,-1.7434,-1.7787,-1.8305,-1.8539,-1.85,-1.85,-1.8756,-1.9279,-1.8878,-1.8992,-1.9574,-1.9093,-1.9224,-1.9812,-2.0437,-2.1315,-2.2335,-2.2192,-2.2455,-2.2934,-2.2488,-2.2003,-2.1598,-2.1876,-2.1442,-2.0904,-2.2289,-2.2616,-2.2553,-2.2998,-2.2863,-2.2428,-2.1876,-2.1185,-2.041,-1.9841,-1.9132,-1.8406,-1.829,-1.8565,-1.8827,-1.8827,-1.8827,-1.8743,-1.8574,-1.8481,-1.8388,-1.7822,-1.7729,-1.7628,-1.7333,-1.7333,-1.7326,-1.7326,-1.7326,-1.7326,-1.7326,-1.7232,-1.685,-1.5893,-1.5798,-1.5317,-1.4364,-1.4268,-1.4172,-1.4172,-1.321,-1.263,-1.263,-1.1673,-1.1194,-1.1194,-1.1194,-1.1194,-1.1194,-1.0703,-1.0413,-1.0413,-1.0117,-0.9826,-1.9467,0.0,0.0,0.0,0.0,0.0,-1.508,-1.4777,-1.4655,-1.4483,-1.4452,-1.4433,-1.4319,-1.4436,-1.4599,-1.4775,-1.6037,-1.7,-1.6948,-1.7463,-1.7801,-1.7666,-1.7625,-1.7584,-1.7488,-1.7432,-1.7363,0.0,-1.7253,-1.7199,-1.7199,-1.7787,-1.8187,-1.8305,-1.8997,-1.9236,-1.8936,-1.8936,-1.8869,-1.8728,-1.8728,-1.8805,-1.8952,-1.8895,-1.8989,-1.9185,-1.9786,-2.0218,-2.0623,-2.1794,-2.2078,-2.1777,-2.1651,-2.1376,-2.1084,-2.1007,-2.1048,-2.1186,-2.1765,-2.2081,-2.2244,-2.237,-2.271,-2.2603,-2.0595,-2.0023,-1.9813,-1.8388,-1.7853,-1.7762,-1.8209,-1.8565,-1.8827,-1.8827,-1.8827,-1.8735,-1.8743,-1.8743,-1.855,-1.8087,-1.7815,-1.7721,-1.7621,-1.7426,-1.7326,-1.7326,-1.7326,-1.7326,-1.7326,-1.6655,-1.6082,-1.5798,-1.4453,-1.3397,-1.321,-1.2441,-1.2063,-1.2063,-1.177,-1.158,-1.158,-1.1389,-1.1194,-1.1194,-1.1194,-1.1194,-1.1194,-1.0904,-1.0708,-1.0703,-1.0216,-0.9826,-1.9988,-1.9815,-1.9437,-1.7945,0.0,0.0,-1.5168,-1.4656,-1.432,-1.3654,-1.3427,-1.3422,-1.3684,-1.3837,-1.392,-1.392,-1.5223,-1.624,-1.624,-1.6973,-1.7516,-1.7436,-1.7612,-1.772,-1.7625,-1.7502,-1.7432,-1.7404,-1.7295,-1.7199,-1.7199,-1.7828,-1.8305,-1.85,-1.9124,-1.9435,-1.9362,-1.9362,-1.9236,-1.9011,-1.8906,-1.8794,-1.8604,-1.8497,-1.85,-1.8597,-1.9172,-1.9577,-1.9904,-2.1197,-2.1572,-2.136,-2.1512,-2.1369,-2.0963,-2.0784,-2.0831,-2.1075,-2.1386,-2.1638,-2.1849,-2.2038,-2.2324,-2.2343,-2.084,-2.0074,-1.947,-1.8422,-1.7729,-1.7374,-1.7771,-1.8128,-1.839,-1.839,-1.839,-1.839,-1.839,-1.839,-1.8387,-1.8319,-1.8094,-1.7815,-1.7721,-1.7527,-1.7326,-1.7326,-1.7326,-1.7326,-1.7326,-1.6466,-1.5602,-1.5222,-1.3686,-1.2538,-1.2155,-1.158,-1.1194,-1.1194,-1.1194,-1.1194,-1.1194,-1.1194,-1.1194,-1.1194,-1.1194,-1.1194,-1.1194,-1.0998,-1.0806,-1.0605,-1.0314,-0.992,-2.0083,-1.9909,-1.9657,-1.8529,-1.8202,0.0,-1.5036,-1.4413,-1.3984,-1.277,-1.2255,-1.2277,-1.2982,-1.3341,-1.3574,-1.3574,-1.4428,-1.5135,-1.5203,-1.6227,-1.7,-1.7,-1.7516,-1.7842,-1.772,-1.7625,-1.7502,-1.7446,-1.7295,-1.7199,-1.7199,-1.7598,-1.8028,-1.85,-1.8898,-1.9273,-1.969,-1.969,-1.969,-1.969,-1.9288,-1.8898,-1.8461,-1.7988,-1.7851,-1.8022,-1.8571,-1.9159,-1.9747,-2.0437,-2.09,-2.1232,-2.1668,-2.1495,-2.1069,-2.0897,-2.0782,-2.0719,-2.1075,-2.119,-2.1335,-2.1796,-2.1834,-2.1735,-2.1649,-2.0595,-1.9371,-1.9186,-1.8288,-1.7278,-1.7278,-1.7525,-1.7771,-1.7771,-1.7771,-1.7771,-1.7771,-1.7771,-1.7969,-1.8386,-1.8226,-1.7948,-1.7807,-1.7527,-1.7326,-1.7326,-1.7326,-1.7326,-1.7326,-1.6466,-1.5412,-1.4459,-1.3307,-1.2252,-1.1292,-1.1194,-1.1194,-1.1194,-1.1194,-1.1194,-1.1194,-1.1194,-1.1194,-1.1194,-1.1194,-1.1194,-1.1194,-1.1194,-1.09,-1.0413,-1.0413,-1.0117,-2.0669,-2.0605,-2.0492,-2.0038,-1.9357,0.0,-1.7213,-1.6308,-1.554,-1.4642,-1.4397,-1.438,-1.4431,-1.4466,-1.4533,-1.4533,-1.4588,-1.4763,-1.5148,-1.6227,-1.7,-1.7,-1.7516,-1.7882,-1.7842,-1.776,-1.7679,-1.7638,-1.7487,-1.735,-1.735,-1.7652,-1.8028,-1.85,-1.8898,-1.9273,-1.969,-1.969,-1.969,-1.969,-1.9288,-1.8898,-1.8461,-1.7988,-1.7665,-1.7408,-1.7996,-1.8571,-1.9159,-2.0267,-2.0461,-2.0072,-2.0541,-2.0788,-2.0875,-2.0391,-2.0706,-2.1337,-2.1032,-2.0784,-2.0599,-2.1076,-2.1251,-2.11,-2.0492,-2.0273,-1.9991,-1.863,-1.7804,-1.7278,-1.7278,-1.7525,-1.7771,-1.7771,-1.7771,-1.7771,-1.7771,-1.7771,-1.7898,-1.8237,-1.7947,-1.7766,-1.7948,-1.7613,-1.7326,-1.7326,-1.7326,-1.7326,-1.7326,-1.6466,-1.5412,-1.4459,-1.3307,-1.2252,-1.1292,-1.1194,-1.1194,-1.1194,-1.1194,-1.1194,-1.1194,-1.1194,-1.1194,-1.1194,-1.1194,-1.1194,-1.1194,-1.1194,-1.09,-1.0413,-1.0413,-1.0117,-2.086,-2.0794,0.0,-2.0478,-1.9959,0.0,0.0,-1.6652,-1.5937,-1.4979,-1.4414,-1.4199,-1.4542,-1.4736,-1.4741,-1.4401,-1.4725,-1.5017,-1.4998,-1.5661,-1.6091,-1.6091,-1.6892,-1.7434,-1.7434,-1.7585,-1.7679,-1.7625,-1.7502,-1.7461,-1.7461,-1.757,-1.7948,-1.863,-1.8784,-1.9124,-1.9726,-1.9726,-1.969,-1.969,-1.9508,-1.9087,-1.85,-1.8266,-1.7787,-1.7238,-1.7839,-1.8244,-1.8597,-1.976,-1.9712,-1.9042,-2.0316,-2.0531,-2.014,-2.0074,-2.039,-2.0839,-2.0587,-2.0301,-2.0175,-2.052,-2.0618,-2.0411,-1.9816,-1.9202,-1.8525,-1.7206,-1.6774,-1.6746,-1.6746,-1.7,-1.7254,-1.7254,-1.7254,-1.7254,-1.7254,-1.7254,-1.7358,-1.7723,-1.7517,-1.7416,-1.7743,-1.746,-1.6899,-1.6422,-1.633,-1.6199,-1.5873,-1.493,-1.407,-1.3596,-1.2538,-1.177,-1.1194,-1.1194,-1.1194,-1.1194,-1.1194,-1.1194,-1.1194,-1.1194,-1.1194,-1.1194,-1.1194,-1.1194,-1.1194,-1.1194,-1.0998,-1.0609,-1.0609,-1.0408,0.0,0.0,0.0,0.0,0.0,-1.9569,0.0,0.0,0.0,-1.533,0.0,0.0,0.0,0.0,0.0,-1.4451,0.0,0.0,0.0,-1.5003,0.0,-1.5237,-1.6195,-1.6826,-1.691,-1.737,-1.7584,-1.7475,-1.7529,-1.7529,-1.7529,-1.7516,-1.7908,-1.8784,-1.8707,-1.9011,-1.9797,-1.9762,-1.9726,-1.969,-1.969,-1.9273,-1.85,-1.85,-1.8028,-1.7225,-1.7721,-1.7996,-1.8166,-1.9094,-1.894,-1.831,-2.0241,-2.028,-1.9342,-1.9759,-1.9998,-2.0085,-2.0085,-2.0009,-1.9932,-2.0119,-2.0039,-1.9831,-1.931,-1.8286,-1.7156,-1.6308,-1.614,-1.6206,-1.6206,-1.6365,-1.6547,-1.6619,-1.6635,-1.6651,-1.6722,-1.673,-1.6841,-1.7207,-1.7093,-1.7024,-1.7466,-1.7214,-1.6574,-1.5734,-1.5409,-1.5067,-1.4539,-1.3657,-1.292,-1.2727,-1.196,-1.1385,-1.1194,-1.1194,-1.1194,-1.1194,-1.1194,-1.1194,-1.1194,-1.1194,-1.1194,-1.1194,-1.1194,-1.1194,-1.1194,-1.1194,-1.1096,-1.0801,-1.0801,-1.0708,0.0,0.0,0.0,0.0,-2.0679,0.0,0.0,0.0,-1.8066,-1.7092,0.0,0.0,0.0,0.0,0.0,0.0,0.0,0.0,-1.5068,-1.4913,-1.4975,-1.5318,-1.5864,-1.6305,-1.6532,-1.7103,-1.7447,-1.7393,-1.7584,-1.7679,-1.7679,-1.757,-1.7908,-1.8784,-1.8784,-1.9124,-1.9797,-1.9797,-1.9762,-1.969,-1.969,-1.9273,-1.85,-1.85,-1.8028,-1.7199,-1.7264,-1.7604,-1.8114,-1.8244,-1.821,-1.8226,-1.9413,-1.9425,-1.8829,-1.9321,-1.9715,-2.0085,-2.0085,-2.0009,-1.9878,-1.9735,-1.9765,-1.9699,-1.8963,-1.8635,-1.8231,-1.7527,-1.6789,-1.6206,-1.6206,-1.5999,-1.5872,-1.619,-1.6269,-1.6349,-1.6667,-1.673,-1.6841,-1.7207,-1.7093,-1.7032,-1.7334,-1.7045,-1.6691,-1.6603,-1.5833,-1.5272,-1.5213,-1.459,-1.3788,-1.2823,-1.2635,-1.2155,-1.1292,-1.1194,-1.1194,-1.1194,-1.1194,-1.1194,-1.1194,-1.1194,-1.1194,-1.1194,-1.1194,-1.1194,-1.1194,-1.1194,-1.1096,-1.0801,-1.0801,-1.0708,0.0,0.0,0.0,0.0,0.0,0.0,-1.9903,0.0,-1.9004,0.0,0.0,0.0,0.0,0.0,0.0,0.0,-1.6402,0.0,0.0,0.0,-1.483,-1.4874,0.0,0.0,-1.6983,-1.7247,-1.7323,-1.7115,-1.7543,-1.772,-1.7543,-1.7666,-1.8016,-1.863,-1.8769,-1.9109,-1.9603,-1.9726,-1.9797,-1.9762,-1.9726,-1.9384,-1.8822,-1.863,-1.8147,-1.7557,-1.7323,-1.7342,-1.7604,-1.7957,-1.79,-1.7676,-1.8806,-1.8846,-1.8348,-1.8818,-1.931,-1.9725,-1.9725,-1.9846,-1.9944,-1.9671,-1.9266,-1.8801,-1.838,-1.7642,-1.6914,-1.6612,-1.6113,-1.5618,-1.5618,-1.5642,-1.5713,-1.5864,-1.5896,-1.5991,-1.6349,-1.6428,-1.6532,-1.6897,-1.6877,-1.6834,-1.6975,-1.6838,-1.6443,-1.5821,-1.491,-1.4147,-1.3752,-1.2964,-1.2349,-1.1868,-1.1868,-1.1678,-1.1194,-1.1194,-1.1194,-1.1194,-1.1194,-1.1194,-1.1194,-1.1194,-1.1194,-1.1194,-1.1194,-1.1194,-1.1194,-1.1194,-1.1096,-1.0998,-1.0998,-1.0998,-2.099,0.0,0.0,0.0,0.0,0.0,0.0,0.0,0.0,0.0,0.0,0.0,0.0,0.0,-1.8071,-1.6938,0.0,-1.6781,0.0,-1.5444,0.0,0.0,0.0,0.0,0.0,-1.7341,-1.7352,-1.7086,-1.7584,-1.7788,-1.7529,-1.7747,-1.8055,-1.85,-1.8808,-1.9132,-1.9479,-1.9747,-1.9869,-1.9848,-1.9762,-1.9508,-1.9124,-1.8822,-1.8344,-1.7787,-1.7475,-1.7323,-1.7238,-1.7669,-1.7612,-1.7285,-1.8131,-1.8168,-1.7842,-1.8497,-1.883,-1.9047,-1.9168,-1.9476,-1.9846,-1.9704,-1.9131,-1.8385,-1.7891,-1.7005,-1.613,-1.5783,-1.5479,-1.53,-1.5205,-1.5364,-1.5539,-1.5539,-1.5539,-1.5634,-1.5983,-1.6134,-1.6277,-1.654,-1.6667,-1.673,-1.673,-1.6445,-1.5959,-1.5168,-1.4015,-1.3111,-1.2631,-1.1732,-1.1194,-1.1194,-1.1194,-1.1194,-1.1194,-1.1194,-1.1194,-1.1194,-1.1194,-1.1194,-1.1194,-1.1194,-1.1194,-1.1194,-1.1194,-1.1194,-1.1194,-1.1194,-1.1194,-1.1194,-1.1194,-1.1194,0.0,0.0,0.0,-2.1103,0.0,0.0,0.0,0.0,-2.0204,0.0,0.0,0.0,0.0,-1.9072,-1.8869,-1.8245,-1.7621,0.0,0.0,-1.659,-1.6024,-1.5679,0.0,0.0,0.0,-1.7223,-1.7598,0.0,-1.7706,-1.7882,-1.7882,-1.7882,-1.8055,-1.85,-1.8898,-1.9236,-1.9479,-1.9889,-2.0045,-2.0005,-1.9848,-1.9603,-1.9207,-1.9124,-1.863,-1.7787,-1.7787,-1.7557,-1.7199,-1.7212,-1.7239,-1.721,-1.7247,-1.7219,-1.7372,-1.8406,-1.8462,-1.8119,-1.8556,-1.8924,-1.9296,-1.9727,-1.9605,-1.8998,-1.759,-1.7259,-1.7027,-1.5593,-1.5404,-1.5586,-1.5268,-1.5197,-1.5205,-1.5205,-1.5205,-1.5292,-1.5626,-1.596,-1.6206,-1.6222,-1.65,-1.673,-1.673,-1.5989,-1.5343,-1.5047,-1.3665,-1.2579,-1.235,-1.1636,-1.1194,-1.1194,-1.1194,-1.1194,-1.1194,-1.1194,-1.1194,-1.1194,-1.1194,-1.1194,-1.1194,-1.1194,-1.1194,-1.1194,-1.1194,-1.1194,-1.1194,-1.1194,-1.1194,-1.1194,-1.1194,-1.1096,0.0,0.0,-2.1388,-2.1167,0.0,0.0,0.0,0.0,0.0,0.0,0.0,0.0,0.0,-1.9199,-1.8898,-1.8303,-1.8013,-1.7722,0.0,-1.7222,-1.7212,-1.7107,-1.7038,-1.707,0.0,0.0,0.0,0.0,-1.6502,0.0,-1.7517,-1.7788,-1.8055,-1.85,-1.8898,-1.9288,-1.9639,-1.9925,-2.008,-2.0045,-1.9869,-1.9726,-1.9603,-1.925,-1.8784,-1.8266,-1.7908,-1.7557,-1.7199,-1.7199,-1.7219,-1.7282,-1.8029,-1.7852,-1.7231,-1.7589,-1.7868,-1.8075,-1.8534,-1.8796,-1.8848,-1.8876,-1.8956,-1.8944,-1.8263,-1.7629,-1.7003,-1.6448,-1.5685,-1.4967,-1.4855,-1.4824,-1.4824,-1.4824,-1.4824,-1.4919,-1.5276,-1.5618,-1.592,-1.6158,-1.6492,-1.6566,-1.6147,-1.5401,-1.4929,-1.5021,-1.3654,-1.254,-1.2174,-1.1296,-1.0839,-1.0981,-1.1,-1.1052,-1.1184,-1.1194,-1.1194,-1.1194,-1.1194,-1.1194,-1.1194,-1.1194,-1.1194,-1.1194,-1.1194,-1.1194,-1.1194,-1.1194,-1.1194,-1.1194,-1.1194,-1.1194,-2.1419,-2.1481,0.0,-2.1246,-2.123,0.0,-2.0958,0.0,-2.0392,0.0,0.0,0.0,0.0,-1.9515,-1.9156,-1.8817,-1.8439,-1.8056,0.0,-1.7942,-1.8258,-1.8258,-1.7909,-1.7758,-1.7854,0.0,-1.6518,-1.7203,-1.6567,-1.6572,0.0,-1.7909,-1.8254,-1.85,-1.9011,-1.9435,-1.969,-2.001,-2.0185,-2.0185,-2.001,-1.9904,-1.9848,-1.9508,-1.9049,-1.8461,-1.8187,-1.772,-1.7199,-1.7199,-1.7199,-1.7264,-1.8009,-1.7997,-1.7554,-1.7757,-1.7786,-1.7813,-1.8283,-1.8447,-1.848,-1.8512,-1.8706,-1.8913,-1.8307,-1.7541,-1.6853,-1.6446,-1.5572,-1.48,-1.4673,-1.4736,-1.48,-1.4601,-1.4569,-1.4736,-1.511,-1.5348,-1.5642,-1.6111,-1.6389,-1.6424,-1.6131,-1.5484,-1.4846,-1.426,-1.3224,-1.2249,-1.1621,-1.1012,-1.0712,-1.0773,-1.0783,-1.0863,-1.1071,-1.1156,-1.1194,-1.1194,-1.1194,-1.1194,-1.1194,-1.1194,-1.1194,-1.1194,-1.1194,-1.1194,-1.1194,-1.1194,-1.1194,-1.1194,-1.1194,-1.1194]},{"header":{"parameterUnit":"m.s-1","parameterCategory":1,"la1":30.6,"la2":29.2853,"lo1":-89.7004,"lo2":-87.6739,"dy":0.0162,"dx":0.0183,"nx":112,"ny":82,"refTime":"2024-05-14T06:00:00:Z","depth":0,"parameterNumber":3,"parameterNumberName":"V-component_of_WINDS"},"data":[0.0,0.0,0.0,0.0,0.0,0.0,0.0,0.0,0.0,0.0,0.0,0.0,0.0,0.0,0.0,0.0,0.0,0.0,0.0,0.0,0.0,0.0,0.0,0.0,0.0,0.0,0.0,0.0,0.0,0.0,0.0,0.0,0.0,0.0,0.0,0.0,0.0,0.0,0.0,0.0,0.0,0.0,0.0,0.0,0.0,0.0,0.0,0.0,0.0,0.0,0.0,0.0,0.0,0.0,0.0,0.0,0.0,0.0,0.0,0.0,0.0,0.0,0.0,0.0,0.0,0.0,0.0,0.0,0.0,0.0,0.0,0.0,0.0,0.0,0.0,0.0,0.0,0.0,0.0,0.0,0.0,0.0,0.0,0.0,0.0,0.0,0.0,0.0,0.0,0.0,-2.7065,-3.0837,-3.5618,-3.7764,-3.5824,-3.5533,-3.3588,-2.92,0.0,0.0,0.0,0.0,0.0,0.0,0.0,0.0,0.0,0.0,0.0,0.0,0.0,0.0,0.0,0.0,0.0,0.0,0.0,0.0,0.0,0.0,0.0,0.0,0.0,0.0,0.0,0.0,0.0,0.0,0.0,0.0,0.0,0.0,0.0,0.0,0.0,0.0,0.0,0.0,0.0,0.0,0.0,0.0,0.0,0.0,0.0,0.0,0.0,0.0,0.0,0.0,0.0,0.0,0.0,0.0,0.0,0.0,0.0,0.0,0.0,0.0,0.0,0.0,0.0,0.0,0.0,0.0,0.0,0.0,0.0,0.0,0.0,0.0,0.0,0.0,0.0,0.0,0.0,0.0,0.0,0.0,0.0,0.0,0.0,0.0,0.0,0.0,0.0,0.0,0.0,0.0,0.0,0.0,0.0,0.0,0.0,0.0,0.0,0.0,0.0,0.0,0.0,0.0,-2.7752,-3.3111,-3.6478,-3.7598,-3.5673,-3.5053,-3.3759,-3.1431,0.0,0.0,0.0,0.0,0.0,0.0,0.0,0.0,0.0,0.0,0.0,0.0,0.0,0.0,0.0,0.0,0.0,0.0,0.0,0.0,0.0,0.0,0.0,0.0,0.0,0.0,0.0,0.0,0.0,0.0,0.0,0.0,0.0,0.0,0.0,0.0,0.0,0.0,0.0,0.0,0.0,0.0,0.0,0.0,0.0,0.0,0.0,0.0,0.0,0.0,0.0,0.0,0.0,0.0,0.0,0.0,0.0,0.0,0.0,0.0,0.0,0.0,0.0,0.0,0.0,0.0,0.0,0.0,0.0,0.0,0.0,0.0,0.0,0.0,0.0,0.0,0.0,0.0,0.0,0.0,0.0,0.0,0.0,0.0,0.0,0.0,0.0,0.0,0.0,0.0,0.0,0.0,0.0,0.0,0.0,0.0,0.0,0.0,0.0,0.0,0.0,0.0,0.0,-2.7516,-3.0394,-3.4776,-3.6742,-3.7046,-3.5259,-3.4466,-3.3487,-3.2175,-2.9588,0.0,0.0,0.0,0.0,0.0,0.0,0.0,0.0,0.0,0.0,0.0,0.0,0.0,0.0,0.0,0.0,0.0,0.0,0.0,0.0,0.0,0.0,0.0,0.0,0.0,0.0,0.0,0.0,0.0,0.0,0.0,0.0,0.0,0.0,0.0,0.0,0.0,0.0,0.0,0.0,0.0,0.0,0.0,0.0,0.0,0.0,0.0,0.0,0.0,0.0,0.0,0.0,0.0,0.0,0.0,0.0,0.0,0.0,0.0,0.0,0.0,0.0,0.0,0.0,0.0,0.0,0.0,0.0,0.0,0.0,0.0,0.0,0.0,0.0,0.0,0.0,0.0,0.0,0.0,0.0,0.0,0.0,0.0,0.0,0.0,0.0,0.0,0.0,0.0,0.0,0.0,0.0,0.0,0.0,0.0,0.0,0.0,0.0,0.0,0.0,0.0,0.0,-3.0502,-3.2534,-3.5495,-3.6576,-3.6387,-3.4661,-3.3259,-3.2164,-3.1398,-2.8804,0.0,0.0,0.0,0.0,0.0,0.0,0.0,0.0,0.0,0.0,0.0,0.0,0.0,0.0,0.0,0.0,0.0,0.0,0.0,0.0,0.0,0.0,0.0,0.0,0.0,0.0,0.0,0.0,0.0,0.0,0.0,0.0,0.0,0.0,0.0,0.0,0.0,0.0,0.0,0.0,0.0,0.0,0.0,0.0,0.0,0.0,0.0,0.0,0.0,0.0,0.0,0.0,0.0,0.0,0.0,0.0,0.0,0.0,0.0,0.0,0.0,0.0,0.0,0.0,0.0,0.0,0.0,0.0,0.0,0.0,0.0,0.0,0.0,0.0,0.0,0.0,0.0,0.0,0.0,0.0,0.0,0.0,0.0,0.0,0.0,0.0,0.0,0.0,0.0,0.0,0.0,0.0,0.0,0.0,0.0,0.0,0.0,0.0,0.0,0.0,0.0,0.0,-2.9978,-3.2527,-3.4756,-3.5872,-3.5717,-3.3828,-3.089,-2.8987,-2.8606,-2.5713,0.0,0.0,0.0,0.0,0.0,0.0,0.0,0.0,0.0,0.0,0.0,0.0,0.0,0.0,0.0,0.0,0.0,0.0,0.0,0.0,0.0,0.0,0.0,0.0,0.0,0.0,0.0,0.0,0.0,0.0,0.0,0.0,0.0,0.0,0.0,0.0,0.0,0.0,0.0,0.0,0.0,0.0,0.0,0.0,0.0,0.0,0.0,0.0,0.0,0.0,0.0,0.0,0.0,0.0,0.0,0.0,0.0,0.0,0.0,0.0,0.0,0.0,0.0,0.0,0.0,0.0,0.0,0.0,0.0,0.0,0.0,0.0,0.0,0.0,0.0,0.0,0.0,0.0,0.0,0.0,0.0,0.0,0.0,0.0,0.0,0.0,0.0,0.0,0.0,0.0,0.0,0.0,0.0,0.0,0.0,0.0,0.0,0.0,0.0,0.0,0.0,0.0,-2.9913,-3.1866,-3.4282,-3.494,-3.4274,-3.1939,-3.0132,-2.8069,-2.5599,0.0,0.0,0.0,0.0,0.0,0.0,0.0,0.0,0.0,0.0,0.0,0.0,0.0,0.0,0.0,0.0,0.0,0.0,0.0,0.0,0.0,0.0,0.0,0.0,0.0,0.0,0.0,0.0,0.0,0.0,0.0,0.0,0.0,0.0,0.0,0.0,0.0,0.0,0.0,0.0,0.0,0.0,0.0,0.0,0.0,0.0,0.0,0.0,0.0,0.0,0.0,0.0,0.0,0.0,0.0,0.0,0.0,0.0,0.0,0.0,0.0,0.0,0.0,0.0,0.0,0.0,0.0,0.0,0.0,0.0,0.0,0.0,0.0,0.0,0.0,0.0,0.0,0.0,0.0,0.0,0.0,0.0,0.0,0.0,0.0,0.0,0.0,0.0,0.0,0.0,0.0,0.0,0.0,0.0,0.0,0.0,0.0,0.0,0.0,0.0,0.0,0.0,-2.8415,-2.9773,-3.1388,-3.3667,-3.4275,-3.3431,-3.0818,-2.9061,-2.6881,-2.4041,0.0,0.0,0.0,0.0,0.0,0.0,0.0,0.0,0.0,0.0,0.0,0.0,0.0,0.0,0.0,0.0,0.0,0.0,0.0,0.0,0.0,0.0,0.0,0.0,0.0,0.0,0.0,0.0,0.0,0.0,0.0,0.0,0.0,0.0,0.0,0.0,0.0,0.0,0.0,0.0,0.0,0.0,0.0,0.0,0.0,0.0,0.0,0.0,0.0,0.0,0.0,0.0,0.0,0.0,0.0,0.0,0.0,0.0,0.0,0.0,0.0,0.0,0.0,0.0,0.0,0.0,0.0,0.0,0.0,0.0,0.0,0.0,0.0,0.0,0.0,0.0,0.0,0.0,0.0,0.0,0.0,0.0,0.0,0.0,0.0,0.0,0.0,0.0,0.0,0.0,0.0,0.0,0.0,0.0,0.0,0.0,0.0,0.0,0.0,0.0,0.0,0.0,-2.7675,-2.9458,-3.1168,-3.289,-3.3934,-3.3433,-3.0808,-2.7466,-2.5147,0.0,0.0,0.0,0.0,0.0,0.0,0.0,0.0,0.0,0.0,0.0,0.0,0.0,0.0,0.0,0.0,0.0,0.0,0.0,0.0,0.0,0.0,0.0,0.0,0.0,0.0,0.0,0.0,0.0,0.0,0.0,0.0,0.0,0.0,0.0,0.0,0.0,0.0,0.0,0.0,0.0,0.0,0.0,0.0,0.0,0.0,0.0,0.0,0.0,0.0,0.0,0.0,0.0,0.0,0.0,0.0,0.0,0.0,0.0,0.0,0.0,0.0,0.0,0.0,0.0,0.0,0.0,0.0,0.0,0.0,0.0,0.0,0.0,0.0,0.0,0.0,0.0,0.0,0.0,0.0,0.0,0.0,0.0,0.0,0.0,0.0,0.0,0.0,0.0,0.0,0.0,0.0,0.0,0.0,0.0,0.0,0.0,0.0,0.0,0.0,0.0,0.0,0.0,-2.8515,-2.939,-3.0389,-3.2148,-3.3168,-3.2682,-3.0103,-2.729,-2.5761,-2.6086,0.0,0.0,0.0,0.0,0.0,0.0,0.0,0.0,0.0,0.0,0.0,0.0,0.0,0.0,0.0,0.0,0.0,0.0,0.0,0.0,0.0,0.0,0.0,0.0,0.0,0.0,0.0,0.0,0.0,0.0,0.0,0.0,0.0,0.0,0.0,0.0,0.0,0.0,0.0,0.0,0.0,0.0,0.0,0.0,0.0,0.0,0.0,0.0,0.0,0.0,0.0,0.0,0.0,0.0,0.0,0.0,0.0,0.0,0.0,0.0,0.0,0.0,0.0,0.0,0.0,0.0,0.0,0.0,0.0,0.0,0.0,0.0,0.0,0.0,0.0,0.0,0.0,0.0,0.0,0.0,0.0,0.0,0.0,0.0,0.0,0.0,0.0,0.0,0.0,0.0,0.0,0.0,0.0,0.0,0.0,0.0,0.0,0.0,0.0,0.0,0.0,0.0,-2.8935,-2.9406,-2.9969,-3.1364,-3.2367,-3.2012,-2.9785,-2.7519,-2.6131,-2.5913,0.0,0.0,0.0,0.0,0.0,0.0,0.0,0.0,0.0,0.0,0.0,0.0,0.0,0.0,0.0,0.0,0.0,0.0,0.0,0.0,0.0,0.0,0.0,0.0,0.0,0.0,0.0,0.0,0.0,0.0,0.0,0.0,0.0,0.0,0.0,0.0,0.0,0.0,0.0,0.0,0.0,0.0,0.0,0.0,0.0,0.0,0.0,0.0,0.0,0.0,0.0,0.0,0.0,0.0,0.0,0.0,0.0,0.0,0.0,0.0,0.0,0.0,0.0,0.0,0.0,0.0,0.0,0.0,0.0,0.0,0.0,0.0,0.0,0.0,0.0,0.0,0.0,0.0,0.0,0.0,0.0,0.0,0.0,0.0,0.0,0.0,0.0,0.0,0.0,0.0,0.0,0.0,0.0,0.0,0.0,0.0,0.0,0.0,0.0,0.0,0.0,0.0,-2.9039,-2.938,-2.966,-3.0709,-3.164,-3.1523,-2.9841,-2.8102,-2.6442,-2.4851,0.0,0.0,0.0,0.0,0.0,0.0,0.0,0.0,0.0,0.0,0.0,0.0,0.0,0.0,0.0,0.0,0.0,0.0,0.0,0.0,0.0,0.0,0.0,0.0,0.0,0.0,0.0,0.0,0.0,0.0,0.0,0.0,0.0,0.0,0.0,0.0,0.0,0.0,0.0,0.0,0.0,0.0,0.0,0.0,0.0,0.0,0.0,0.0,0.0,0.0,0.0,0.0,0.0,0.0,0.0,0.0,0.0,0.0,0.0,0.0,-2.2858,0.0,0.0,0.0,0.0,0.0,0.0,0.0,0.0,0.0,0.0,0.0,0.0,0.0,0.0,0.0,0.0,0.0,0.0,0.0,0.0,0.0,0.0,0.0,0.0,0.0,0.0,0.0,0.0,0.0,0.0,0.0,0.0,0.0,0.0,0.0,0.0,0.0,0.0,0.0,0.0,0.0,-2.904,-2.8379,-2.839,-3.0645,-3.1678,-3.1745,-3.0632,-2.8946,-2.779,-2.74,-2.5454,0.0,0.0,0.0,0.0,0.0,0.0,0.0,0.0,0.0,0.0,0.0,0.0,0.0,0.0,0.0,0.0,0.0,0.0,0.0,0.0,0.0,0.0,0.0,0.0,0.0,0.0,0.0,0.0,0.0,0.0,0.0,0.0,0.0,0.0,0.0,0.0,0.0,0.0,0.0,0.0,0.0,0.0,0.0,0.0,0.0,0.0,0.0,0.0,0.0,0.0,0.0,0.0,0.0,0.0,0.0,0.0,0.0,0.0,0.0,0.0,-2.4595,0.0,0.0,0.0,0.0,0.0,0.0,0.0,0.0,0.0,0.0,0.0,0.0,0.0,0.0,0.0,0.0,0.0,0.0,0.0,0.0,0.0,0.0,0.0,0.0,0.0,0.0,0.0,0.0,0.0,0.0,0.0,0.0,0.0,0.0,0.0,0.0,0.0,0.0,0.0,0.0,-2.9769,-2.87,-2.8451,-3.0611,-3.1298,-3.1528,-3.1397,-2.9812,-2.8631,-2.8178,-2.6126,0.0,0.0,0.0,0.0,0.0,0.0,0.0,0.0,0.0,0.0,0.0,0.0,0.0,0.0,0.0,0.0,0.0,0.0,0.0,0.0,0.0,0.0,0.0,0.0,0.0,0.0,0.0,0.0,0.0,0.0,0.0,0.0,0.0,0.0,0.0,0.0,0.0,0.0,0.0,0.0,0.0,0.0,0.0,0.0,0.0,0.0,0.0,0.0,0.0,0.0,0.0,0.0,0.0,-2.8694,-2.9283,-3.0132,-3.0252,-2.9887,-2.9172,-2.8576,-2.6199,-2.3041,-2.6395,0.0,0.0,0.0,0.0,0.0,0.0,0.0,0.0,0.0,0.0,0.0,0.0,0.0,0.0,0.0,0.0,0.0,0.0,0.0,0.0,0.0,0.0,0.0,0.0,-3.0255,-2.8424,-2.5601,0.0,0.0,0.0,0.0,0.0,0.0,0.0,0.0,0.0,0.0,0.0,-3.0364,-2.9276,-2.8947,-3.0637,-3.0868,-3.1136,-3.1734,-3.0521,-2.9317,-2.836,-2.6738,-2.5425,0.0,0.0,0.0,0.0,0.0,0.0,0.0,0.0,0.0,0.0,0.0,0.0,0.0,0.0,0.0,0.0,0.0,0.0,0.0,0.0,0.0,0.0,0.0,0.0,0.0,0.0,0.0,0.0,0.0,0.0,0.0,0.0,-1.7952,-1.6878,0.0,0.0,0.0,0.0,0.0,0.0,0.0,0.0,0.0,0.0,0.0,0.0,0.0,-2.8334,-2.8681,-2.9452,-2.9834,-2.975,-3.0592,-3.0998,-3.1038,-3.1334,-3.1542,-3.1654,-3.1767,0.0,-2.6319,-2.6115,0.0,0.0,0.0,0.0,0.0,0.0,0.0,0.0,0.0,0.0,0.0,0.0,0.0,0.0,0.0,0.0,0.0,0.0,0.0,0.0,0.0,0.0,-2.8372,-2.871,-2.8611,-2.8312,0.0,-2.7909,-2.7739,-2.6751,-2.5566,0.0,0.0,0.0,0.0,0.0,0.0,0.0,-2.9539,-2.892,-2.8959,-3.0708,-3.0884,-3.0911,-3.0959,-3.0769,-3.0205,-2.9195,-2.7566,-2.6858,-2.7344,-2.5376,0.0,0.0,0.0,0.0,0.0,0.0,0.0,0.0,0.0,0.0,0.0,0.0,0.0,0.0,0.0,0.0,0.0,0.0,0.0,0.0,0.0,0.0,0.0,0.0,0.0,0.0,0.0,0.0,0.0,-1.9244,-1.9427,-1.853,-1.9924,-2.1119,0.0,0.0,0.0,0.0,0.0,0.0,0.0,0.0,0.0,-2.9105,-2.9907,-3.0472,-3.0698,-3.1047,-3.16,-3.2375,-3.2979,-3.357,-3.4131,-3.451,-3.4813,-3.5097,-3.5287,-3.3976,-3.1566,-2.9638,-2.8345,-2.7608,0.0,0.0,0.0,0.0,-2.8473,-2.8868,-2.8418,-2.8255,-2.8312,-2.8578,0.0,0.0,0.0,0.0,0.0,0.0,0.0,0.0,0.0,0.0,-3.1897,-3.1903,-3.1899,-3.1895,-3.1895,-3.1107,-2.9862,0.0,-2.7082,-2.6823,-2.7593,0.0,0.0,0.0,0.0,-2.8884,-3.0078,-2.9517,-2.9486,-3.0667,-3.0856,-3.1066,-3.1446,-3.1067,-3.0603,-3.0121,-2.8029,-2.674,-2.6571,-2.4428,-2.4637,0.0,0.0,0.0,0.0,0.0,0.0,0.0,0.0,0.0,0.0,0.0,0.0,0.0,0.0,0.0,0.0,0.0,0.0,0.0,0.0,0.0,0.0,0.0,0.0,0.0,0.0,0.0,0.0,-2.0153,-2.0669,-2.0242,-2.1391,-2.2587,0.0,0.0,0.0,0.0,0.0,0.0,-2.8262,-2.9758,-3.0849,-3.1303,-3.2115,-3.2672,-3.2918,-3.3092,-3.3869,-3.515,-3.5606,-3.6322,-3.7281,-3.764,-3.7963,-3.8175,-3.8118,-3.7472,-3.626,-3.3277,-3.082,-2.8994,-2.9356,-2.9619,-2.9738,-2.944,-2.9792,-3.0339,-2.9677,-2.9445,-2.9384,-2.8953,-2.8678,-2.8524,-2.8786,0.0,0.0,0.0,0.0,-3.0801,-3.1836,-3.3222,-3.4471,-3.494,-3.5037,-3.5037,-3.5037,-3.3846,-3.207,0.0,-2.8928,-2.8695,-2.8932,0.0,0.0,0.0,-2.9793,-3.0033,-3.036,-3.0115,-3.0111,-3.0646,-3.0798,-3.1094,-3.161,-3.112,-3.0745,-3.0646,-2.8616,-2.712,-2.6449,-2.4585,-2.4102,-2.5279,0.0,0.0,0.0,0.0,0.0,0.0,0.0,0.0,0.0,0.0,0.0,0.0,0.0,0.0,0.0,0.0,0.0,0.0,0.0,0.0,0.0,0.0,0.0,0.0,0.0,0.0,0.0,0.0,0.0,-2.0788,-2.3522,0.0,0.0,0.0,0.0,-2.8714,-2.9846,-3.0663,-3.0979,-3.2348,-3.3273,-3.3549,-3.4394,-3.5183,-3.5975,-3.6667,-3.7246,-3.7717,-3.8508,-3.9137,-3.9643,-3.991,-4.0154,-4.0323,-3.9687,-3.9428,-3.9194,-3.5556,-3.316,-3.1709,-3.0921,-3.0661,-3.0634,-2.9796,-2.9562,-2.9643,-2.9615,-2.9589,-2.9728,-3.0491,-3.0201,-2.9674,-3.0433,-2.9552,0.0,0.0,-2.8986,-3.004,-3.168,-3.2773,-3.3886,-3.5542,-3.5932,-3.5932,-3.5932,-3.5213,-3.4042,0.0,-3.0626,-2.9808,-3.0628,0.0,-2.9542,-2.9591,-3.0294,-3.0534,-2.9669,-3.0244,-3.0729,-3.0711,-3.0762,-3.0788,-3.0769,-3.0726,-3.0645,-3.0519,-2.962,-2.9033,-2.8912,-2.6629,-2.5351,-2.5313,-2.5726,0.0,0.0,0.0,0.0,0.0,0.0,0.0,0.0,0.0,0.0,0.0,0.0,0.0,0.0,0.0,0.0,0.0,0.0,0.0,0.0,0.0,0.0,0.0,0.0,0.0,0.0,0.0,0.0,-2.3844,-2.5419,0.0,-2.7868,-2.863,-2.928,-2.9868,-3.0779,-3.1757,-3.2817,-3.432,-3.5634,-3.6628,-3.7517,-3.8089,-3.8395,-3.8657,-3.8912,-3.9131,-3.9532,-3.9888,-4.0119,-4.0441,-4.0626,-4.068,-4.0537,-4.0481,-4.0442,-3.9151,-3.7337,-3.5206,-3.3822,-3.3589,-3.3926,-3.3138,-3.2831,-3.281,-3.281,-3.245,-3.1932,-3.1699,-3.1055,-3.0431,-3.0704,-3.0356,-2.9963,-3.0529,-3.1281,-3.2168,-3.3284,-3.4237,-3.5035,-3.5665,-3.582,-3.582,-3.582,-3.5567,-3.5158,-3.4529,-3.2682,-3.1477,-3.2294,-3.1718,-3.1315,-3.1838,-3.1702,-3.1411,-3.1033,-3.0851,-3.0682,-3.0571,-3.0661,-3.0501,-2.9905,-3.0341,-3.0147,-2.9031,-2.8628,-2.8186,-2.764,-2.6881,-2.6148,-2.5434,-2.5436,-2.5948,0.0,0.0,0.0,0.0,0.0,0.0,0.0,0.0,0.0,0.0,0.0,0.0,0.0,0.0,0.0,0.0,0.0,0.0,0.0,0.0,0.0,0.0,0.0,0.0,0.0,0.0,-2.4563,-2.6736,-2.7864,-2.9064,-3.0649,-3.0993,-3.1399,-3.2058,-3.2991,-3.411,-3.5405,-3.6665,-3.7829,-3.8874,-3.9456,-3.9825,-3.9929,-3.9965,-4.0021,-4.012,-4.0267,-4.0399,-4.0511,-4.0732,-4.0849,-4.0863,-4.0955,-4.1016,-4.1033,-4.1071,-4.0077,-3.8374,-3.6989,-3.6559,-3.667,-3.6143,-3.5914,-3.5846,-3.5521,-3.4841,-3.4017,-3.3433,-3.2697,-3.2006,-3.201,-3.1982,-3.2065,-3.2649,-3.3179,-3.3802,-3.4625,-3.5266,-3.5771,-3.6062,-3.614,-3.6218,-3.6509,-3.6587,-3.6587,-3.6587,-3.4802,-3.338,-3.3634,-3.3187,-3.2895,-3.3169,-3.271,-3.2205,-3.1845,-3.1382,-3.0951,-3.0539,-3.036,-3.0016,-2.9387,-3.0091,-2.985,-2.814,-2.8528,-2.8326,-2.7222,-2.7257,-2.6988,-2.6316,-2.6024,-2.6824,-2.8743,0.0,0.0,0.0,0.0,0.0,0.0,0.0,0.0,0.0,0.0,0.0,0.0,0.0,0.0,0.0,0.0,0.0,0.0,0.0,0.0,0.0,0.0,0.0,-2.3954,-2.53,-2.706,-2.9231,-3.0835,-3.1933,-3.2301,-3.3364,-3.4436,-3.5499,-3.6675,-3.7796,-3.8776,-3.9334,-3.9769,-4.0114,-4.0118,-4.0269,-4.0603,-4.0673,-4.0708,-4.0709,-4.0775,-4.0839,-4.0902,-4.0902,-4.0935,-4.0994,-4.1001,-4.1035,-4.1108,-4.1108,-4.1108,-4.101,-4.0249,-3.9426,-3.8654,-3.8526,-3.8468,-3.8299,-3.737,-3.6481,-3.5773,-3.5763,-3.5191,-3.4503,-3.4481,-3.4473,-3.4464,-3.4442,-3.4442,-3.4675,-3.551,-3.5743,-3.5976,-3.683,-3.7025,-3.7258,-3.8103,-3.8297,-3.8297,-3.8297,-3.6928,-3.5491,-3.4617,-3.4481,-3.4209,-3.3378,-3.3242,0.0,-3.1952,-3.187,-3.1546,-3.0617,-2.9908,-2.94,-2.9214,-2.9989,-2.9719,-2.7939,-2.9371,-2.9544,-2.789,-2.7813,-2.7813,-2.7813,-2.7272,-2.8074,-3.0295,0.0,0.0,0.0,0.0,0.0,0.0,0.0,0.0,0.0,0.0,0.0,0.0,0.0,0.0,0.0,0.0,0.0,0.0,0.0,0.0,0.0,-2.5384,-2.6422,-2.5985,-2.6719,-2.8375,-3.1367,-3.2531,-3.3799,-3.5572,-3.62,-3.6722,-3.7268,-3.8338,-3.9188,-3.9718,-3.9887,-4.0112,-4.0442,-4.0449,-4.0531,-4.0673,-4.0699,-4.075,-4.085,-4.0857,-4.087,-4.0894,-4.0944,-4.0974,-4.0991,-4.1053,-4.1082,-4.1108,-4.1108,-4.1104,-4.1078,-4.0863,-4.053,-4.0202,-4.021,-3.9713,-3.8938,-3.804,-3.7571,-3.7358,-3.7358,-3.7243,-3.6958,-3.6396,-3.6182,-3.6013,-3.5386,-3.5608,-3.6113,-3.6363,-3.6864,-3.7365,-3.7596,-3.7687,-3.7791,-3.8022,-3.808,-3.808,-3.808,-3.7694,-3.7134,-3.6345,-3.6211,-3.5908,-3.4993,-3.4338,0.0,-3.2721,-3.2153,-3.1719,-3.1391,-3.1236,-3.0598,-2.9244,-2.9935,-2.9173,-2.6197,-2.7044,-2.7159,-2.6063,-2.6005,-2.6005,-2.6005,-2.6381,-2.7025,0.0,0.0,0.0,0.0,0.0,0.0,0.0,0.0,0.0,0.0,0.0,0.0,0.0,0.0,0.0,0.0,0.0,0.0,0.0,0.0,0.0,0.0,-2.7059,-2.839,-2.9049,-2.9143,-3.0104,-3.2665,-3.3633,-3.492,-3.6999,-3.7552,-3.8065,-3.8757,-3.9444,-4.0005,-4.0283,-4.0312,-4.04,-4.063,-4.064,-4.0868,-4.1325,-4.0992,-4.1054,-4.1488,-4.1142,-4.0973,-4.0991,-4.1015,-4.1035,-4.1032,-4.1077,-4.1104,-4.1097,-4.1101,-4.1066,0.0,0.0,0.0,0.0,0.0,-4.0326,-3.9638,-3.8757,-3.8469,-3.8411,-3.8065,-3.8218,-3.8363,-3.7553,-3.7533,-3.7588,-3.6741,-3.6839,-3.7187,-3.7203,-3.7548,-3.7993,-3.8354,-3.8481,-3.8593,-3.8958,-3.905,-3.9046,-3.9046,-3.905,0.0,-3.8041,-3.7302,-3.6524,-3.5622,-3.5064,-3.443,-3.3564,-3.3068,-3.2532,-3.1788,-3.1411,-3.0642,-2.9228,-2.9563,0.0,0.0,0.0,-2.663,-2.5711,-2.5673,0.0,0.0,0.0,-2.7776,-2.8409,0.0,0.0,0.0,-2.8709,-2.8118,0.0,0.0,0.0,0.0,0.0,0.0,0.0,0.0,0.0,0.0,0.0,0.0,0.0,0.0,0.0,0.0,-2.8555,-3.007,-3.2386,-3.2103,-3.2201,-3.36,-3.454,-3.567,-3.7232,-3.7988,-3.8803,-3.9823,-4.012,-4.0348,-4.0602,0.0,0.0,0.0,0.0,-4.136,-4.2357,-4.1549,-4.154,-4.2292,-4.1597,-4.1182,-4.1081,-4.1081,-4.1074,-4.1057,-4.1163,-4.1159,-4.1056,-4.1169,-4.1052,-4.0846,-4.0852,-4.0843,-4.082,-4.0578,-4.0434,-4.0283,-3.9497,0.0,0.0,-3.8405,-3.8654,-3.9076,-3.8219,-3.8503,-3.8922,-3.8082,-3.7929,-3.8038,-3.8051,-3.8112,-3.8364,-3.9144,-3.9333,-3.9544,-4.0312,-4.0495,-4.0492,-4.0492,-4.0479,-4.0233,-3.9415,-3.7916,-3.6551,-3.5762,-3.5565,-3.5199,-3.4314,-3.4199,-3.3622,-3.2116,0.0,0.0,-2.9536,-2.9471,-2.8695,-2.6809,-2.7063,-2.6988,-2.6351,-2.6223,-2.7034,-2.8874,-2.8771,-2.9238,-3.0244,-2.8998,-2.9644,-3.1992,-2.8214,-2.7063,0.0,0.0,0.0,0.0,0.0,0.0,0.0,0.0,0.0,0.0,0.0,0.0,0.0,0.0,0.0,-2.9306,-3.1046,-3.2545,-3.3781,-3.427,-3.4755,-3.5378,-3.6212,-3.7037,-3.7862,-3.8991,-3.9751,-3.9963,-4.0317,-4.0574,-4.0668,-4.1388,-4.184,-4.1905,-4.1908,-4.2366,-4.3318,-4.2474,-4.2158,-4.2373,0.0,0.0,-4.0935,-4.0942,-4.0879,-4.082,-4.1519,-4.1432,-4.083,-4.1548,-4.1327,-4.059,-4.0571,-4.0577,-4.0559,-4.0394,-4.0327,-4.0291,-4.0119,-4.0061,-4.0042,-3.9889,-3.9947,-3.9871,-3.8803,-3.8766,0.0,-3.7795,-3.8155,-3.8872,-3.887,-3.9348,-3.9884,-4.0038,-4.013,-4.0204,-4.0377,-4.0432,-4.0413,-4.0413,-4.0432,-4.0164,-3.9282,-3.8316,-3.7386,-3.6589,-3.593,-3.5199,-3.4314,-3.4199,-3.4005,-3.3532,-3.3478,-3.299,-3.1787,-3.184,-3.0557,-2.7367,-2.6075,-2.5915,-2.7032,-2.6359,-2.6889,-2.8853,-2.8046,-2.8193,-2.9356,-3.0641,-3.1532,-3.2039,-3.3063,-3.2242,0.0,0.0,0.0,0.0,0.0,0.0,0.0,0.0,0.0,0.0,0.0,-2.5226,-2.7275,0.0,-2.9762,-3.1904,-3.3068,-3.4,-3.4874,-3.5292,-3.5713,-3.6245,-3.6179,-3.6727,-3.8395,-3.8822,-3.9344,-4.0185,-4.0935,-4.1183,-4.0761,-4.2053,-4.2622,-4.2251,-4.2661,-4.3144,-4.3645,-4.3224,-4.2791,-4.2409,-4.2329,-4.1805,-4.0914,-4.1276,-4.1412,-4.1346,-4.2218,-4.2342,-4.195,-4.1873,-4.1321,-4.05,-4.0425,-4.0394,-4.0379,-4.0328,-4.031,-4.031,-4.031,-4.031,-4.031,-4.031,-4.031,-4.0177,-3.9463,-3.9371,-3.9355,-3.865,-3.8947,-3.949,-3.949,-3.991,-4.029,-4.0307,-4.0325,-4.0362,-4.0362,-4.0379,-4.053,-4.0971,-4.1031,-4.0879,-4.0473,-3.9562,-3.855,-3.7456,-3.6964,-3.6511,-3.5975,-3.5863,-3.5608,-3.4963,-3.4634,-3.4027,-3.294,-3.2252,-3.0869,-2.8587,-2.7702,-2.7575,-2.8314,-2.7958,-2.8454,-2.9965,-2.9551,-3.0056,-3.1603,-3.1866,-3.2595,-3.3733,-3.4891,-3.4551,0.0,0.0,0.0,0.0,0.0,0.0,0.0,-2.2339,-2.3172,-2.5523,-2.6629,-2.7853,-3.0151,-3.1352,-3.2503,-3.4021,-3.4555,-3.4988,-3.563,-3.5717,-3.5979,-3.6684,-3.5921,-3.6233,-3.8517,-3.8445,-3.8877,-4.0395,-4.135,-4.1556,-4.0859,-4.2541,-4.3222,-4.2574,-4.3398,-4.3954,-4.4185,-4.4012,-4.3495,-4.2602,-4.2668,-4.2119,-4.1082,-4.185,-4.2131,-4.2077,-4.28,-4.3115,-4.3057,-4.2066,-4.119,-4.0408,-4.0253,-4.0176,-4.0176,-4.0272,-4.031,-4.031,-4.031,-4.031,-4.0291,-4.0234,-4.0234,-4.0176,-4.0037,-4.0008,-4.0008,-3.9727,-3.9849,-4.0015,-3.9851,-4.0112,-4.0385,-4.0387,-4.0387,-4.0425,-4.0577,-4.054,-4.0693,-4.1571,-4.1704,-4.1684,-4.1724,-4.0933,-3.9787,-3.8282,-3.7876,-3.7691,-3.7528,-3.7471,-3.709,-3.6182,-3.5562,-3.4826,-3.3896,-3.2222,-3.0923,-3.0259,-2.9792,-2.962,-2.9811,-2.9788,-3.034,-3.154,-3.1512,-3.234,-3.4088,-3.2881,-3.3278,-3.5119,-3.5307,-3.5407,-2.0482,-2.048,-2.0668,-2.1364,-2.212,-2.3143,0.0,-2.5632,-2.6656,-2.8547,-2.9065,-2.9724,-3.1543,-3.2561,-3.3432,-3.4406,-3.5217,-3.5749,-3.5772,-3.5779,-3.611,-3.6945,-3.6737,-3.6853,-3.7766,-3.8638,-3.9532,-4.0433,-4.0823,-4.0993,-4.0889,-4.26,-4.3552,-4.3452,-4.4305,-4.5124,-4.5919,-4.5153,-4.4306,-4.3393,-4.41,-4.3438,-4.1649,-4.2499,-4.2789,-4.2622,-4.2698,-4.2795,-4.2776,-4.1877,-4.1017,-4.0196,-3.9878,-3.9769,-3.9807,-4.0176,-4.031,-4.031,-4.031,-4.031,-4.0253,-4.0017,-3.9935,-3.9981,-4.0192,-4.0435,-4.0565,-4.03,-4.0408,-4.0447,-3.972,-4.0096,-4.0641,-4.0666,-4.0666,-4.0854,-4.1562,-4.1174,-4.0911,-4.1719,-4.1863,-4.1863,-4.1889,-4.1762,-4.0985,-3.8916,-3.7788,-3.7187,-3.7165,-3.7209,-3.7128,-3.6827,-3.6873,-3.6519,-3.5423,-3.2994,-3.1797,-3.2403,-3.0442,-2.9865,-3.1307,-3.0683,-3.1219,-3.3185,-3.2506,-3.2727,-3.4006,-3.3838,-3.3899,-3.419,-3.4948,-3.5324,-2.0502,-2.1249,-2.209,-2.2422,-2.3492,-2.4793,-2.6076,-2.6601,-2.7318,-2.909,-3.0264,-3.1321,-3.2575,-3.3902,-3.4934,-3.5298,-3.5669,-3.5884,-3.5857,-3.5428,-3.5248,-3.5596,-3.5558,-3.6176,-3.7948,-3.8045,-3.8578,-3.9932,-4.0616,-4.0967,-4.095,-4.2595,-4.3333,-4.2854,-4.4172,-4.4812,-4.463,-4.5231,-4.4792,-4.3335,-4.4066,-4.3678,-4.2366,-4.312,-4.371,-4.4081,-4.3602,-4.327,-4.2985,-4.1696,-4.0806,-4.0306,-4.0165,-4.0115,-4.0077,-3.9802,-3.9724,-3.9724,-3.9807,-3.9826,-3.9826,-3.9693,-3.9991,-4.0346,-4.0291,-4.0728,-4.1101,-4.0843,-4.0974,-4.1083,-4.0756,-4.1033,-4.1383,-4.1383,-4.1383,-4.1477,-4.1833,-4.1627,-4.1627,-4.2433,-4.2583,-4.2583,-4.2583,-4.2473,-4.1894,-4.054,-4.0109,-3.9714,-3.9095,-3.9002,-3.8551,-3.744,-3.6954,-3.6366,-3.5509,-3.3919,-3.3148,-3.3481,-3.2558,-3.2371,-3.3199,-3.286,-3.3216,-3.4339,-3.398,-3.4091,-3.4706,-3.4706,-3.4725,-3.4764,-3.5124,-3.5293,-2.0795,-2.1967,-2.3208,-2.3669,-2.5066,-2.6539,-2.74,-2.7772,-2.8378,-2.9882,-3.0975,-3.201,-3.3124,-3.4354,-3.5271,-3.5505,-3.576,-3.5917,-3.5878,-3.5136,-3.4687,-3.4902,-3.4511,-3.5154,-3.7463,-3.7331,-3.783,-3.9575,-4.0291,-4.0748,-4.0969,-4.2353,-4.2865,-4.2281,-4.3727,-4.4275,-4.3792,-4.4976,-4.4878,-4.3471,-4.4179,-4.4001,-4.3101,-4.3795,-4.4471,-4.5045,-4.4136,-4.3577,-4.3196,-4.1719,-4.0963,-4.071,-4.0626,-4.0568,-4.0494,-3.99,-3.9788,-3.9949,-4.0064,-3.9965,-3.9752,-3.9675,-4.0061,-4.0595,-4.0511,-4.1089,-4.1675,-4.1489,-4.1567,-4.1681,-4.1459,-4.1702,-4.2025,-4.2025,-4.2025,-4.208,-4.2304,-4.2174,-4.2267,-4.305,-4.32,-4.32,-4.32,-4.3069,-4.273,-4.2143,-4.2273,-4.1969,-4.0762,-4.0566,-3.9952,-3.8435,-3.754,-3.6748,-3.5966,-3.4905,-3.4297,-3.4297,-3.4076,-3.4023,-3.4221,-3.4269,-3.4458,-3.4851,-3.4908,-3.4982,-3.5107,-3.5157,-3.5193,-3.5176,-3.5176,-3.5176,-2.153,-2.2414,-2.3484,-2.5118,-2.6831,-2.8325,-2.9133,-2.9971,-3.0845,-3.1733,-3.1347,-3.1367,-3.3085,-3.3435,-3.3729,-3.4512,-3.5409,-3.5953,-3.5816,-3.5107,-3.4886,-3.5662,-3.4329,-3.4004,-3.5704,-3.662,-3.7823,-3.9561,-3.9726,-4.0088,-4.0867,-4.1752,-4.2229,-4.2208,-4.3073,-4.3829,-4.4453,-4.4511,-4.439,-4.4095,-4.4882,-4.4746,-4.3789,-4.4596,-4.5019,-4.5023,-4.3844,-4.3302,-4.3208,-4.2125,-4.1577,-4.1434,-4.1188,-4.1048,-4.095,-4.0735,-4.1025,-4.154,-4.1623,-4.1108,-4.0427,-4.0168,-4.0195,-4.0399,-4.085,-4.1611,-4.2268,-4.2268,-4.2268,-4.2084,-4.1313,-4.168,-4.2301,-4.2301,-4.2301,-4.2503,-4.3275,-4.2834,-4.254,-4.333,-4.3477,-4.3477,-4.3477,-4.3477,-4.3477,-4.344,-4.344,-4.2871,-4.1277,-4.1135,-4.0854,-4.0025,-3.9197,-3.8357,-3.7507,-3.5917,-3.4981,-3.4981,-3.4247,-3.3807,-3.3834,-3.4074,-3.4298,-3.4508,-3.4773,-3.4889,-3.4927,-3.5107,-3.5107,-3.4908,-3.4908,-3.4908,-2.3001,-2.4863,-2.6823,-2.8559,-2.9868,-3.0794,-3.1067,-3.0898,-3.0628,-3.0331,-2.96,-2.9355,-3.0535,-3.1217,-3.2055,-3.3444,-3.4428,-3.5196,-3.5716,-3.5067,-3.4594,-3.4773,-3.4311,-3.4151,-3.4633,-3.5059,0.0,-3.8654,-3.875,-3.9351,-4.0824,-4.1043,-4.1153,-4.1137,-4.1899,-4.2937,-4.4218,-4.4234,-4.4707,-4.5621,-4.5227,-4.4848,-4.4526,-4.46,-4.4334,-4.3768,-4.2626,-4.2277,-4.2465,-4.1014,-4.0895,-4.164,-4.1537,-4.1485,-4.1505,-4.1978,-4.2286,-4.2331,-4.1401,-4.0933,-4.0693,-4.0584,-4.0969,-4.1464,-4.1606,-4.2298,-4.3008,-4.3008,-4.3059,-4.302,-4.2763,-4.2892,-4.3094,-4.3094,-4.3094,-4.3167,-4.3424,-4.3277,-4.3167,-4.3442,-4.3497,-4.3497,-4.3497,-4.3497,-4.3497,-4.3497,-4.3039,-4.2323,-4.1258,-4.0666,-4.0024,-3.9215,-3.8437,-3.7831,-3.7526,-3.6486,-3.5862,-3.5862,-3.5073,-3.4739,-3.5038,-3.4333,-3.4203,-3.4753,-3.4545,-3.4502,-3.4632,-3.4695,-3.4978,-3.5442,-3.5442,-3.5442,-2.4631,-2.7025,-2.9376,-3.0775,-3.179,-3.2346,-3.2077,-3.1297,-3.0312,-2.9169,-2.7983,-2.7433,-2.8333,-2.8709,-2.9622,-3.1928,-3.2776,-3.3662,-3.5133,-3.4589,-3.4234,-3.4749,-3.4475,-3.4469,-3.4988,-3.4803,-3.5514,-3.7625,-3.7987,-3.8741,-4.0218,-4.0713,-4.0954,-4.0954,-4.17,-4.2713,-4.4019,-4.4039,-4.4647,-4.5864,-4.5098,-4.4707,-4.4707,-4.4355,-4.3932,-4.339,-4.2236,-4.2075,-4.2525,-4.1081,-4.1125,-4.214,-4.214,-4.2103,-4.2194,-4.2701,-4.2882,-4.2793,-4.1923,-4.1431,-4.1176,-4.1176,-4.1557,-4.2011,-4.1958,-4.2595,-4.334,-4.334,-4.3358,-4.3375,-4.3375,-4.3428,-4.3463,-4.3463,-4.3497,-4.3497,-4.3497,-4.3497,-4.3497,-4.3497,-4.3497,-4.3497,-4.3497,-4.3497,-4.3497,-4.3497,-4.3057,-4.2433,-4.1644,-4.1075,-4.0341,-3.9239,-3.867,-3.823,-3.7936,-3.7184,-3.6725,-3.6725,-3.5936,-3.566,-3.6035,-3.4958,-3.463,-3.5206,-3.463,-3.4475,-3.4824,-3.4895,-3.5304,-3.6016,-3.6016,-3.6016,-2.6425,-2.8838,-3.1072,-3.1895,-3.2679,-3.3041,-3.2169,-3.1138,-2.9909,-2.8288,-2.6539,-2.5589,-2.652,-2.606,-2.6643,-3.0075,-3.0704,-3.1654,-3.4254,-3.3905,-3.3984,-3.5626,-3.4962,-3.5001,-3.6593,-3.5828,-3.5643,-3.6665,0.0,-3.8262,-3.9273,-4.0718,-4.1549,-4.1645,-4.2374,-4.3139,-4.395,-4.3967,-4.4277,-4.4827,-4.453,-4.4393,-4.4412,-4.4053,-4.3881,-4.3794,-4.2658,-4.2635,-4.3226,-4.2141,-4.2176,-4.2882,-4.2882,-4.2882,-4.2882,-4.2882,-4.2882,-4.2938,-4.3049,-4.2596,-4.196,-4.196,-4.1995,-4.2012,-4.1977,-4.2541,-4.3196,-4.3196,-4.3214,-4.3214,-4.3214,-4.3286,-4.3394,-4.3394,-4.3446,-4.3497,-4.3497,-4.3497,-4.3497,-4.3497,-4.3497,-4.3497,-4.3497,-4.3497,-4.3497,-4.3497,-4.3497,-4.3204,-4.2396,-4.2268,-4.1644,-4.0065,-3.9845,-3.9533,-3.8762,-3.7991,-3.7551,-3.7551,-3.6798,-3.6445,-3.6694,-3.585,-3.5485,-3.5709,-3.4899,-3.4745,-3.5324,-3.5549,-3.5992,-3.666,-3.6634,-3.6634,-2.9003,-3.1386,-3.3581,-3.4439,-3.4371,-3.371,-3.2184,-3.0153,-2.8077,-2.6431,-2.4234,-2.2873,-2.3765,-2.4276,-2.5662,-2.9021,-3.0665,-3.2628,-3.5774,-3.6014,-3.6272,-3.7288,-3.7098,-3.7009,-3.7326,-3.7033,-3.6939,0.0,-3.695,-3.801,-4.0835,-4.0672,-4.1055,-4.2296,-4.2185,-4.2924,-4.4645,-4.5035,-4.4871,-4.4154,-4.4065,-4.4351,-4.4898,-4.3966,-4.3523,-4.3453,-4.2338,-4.1941,-4.2123,-4.1833,-4.2177,-4.2882,-4.2882,-4.2882,-4.2882,-4.2882,-4.2882,-4.2882,-4.2938,-4.2811,-4.2648,-4.2648,-4.2667,-4.2667,-4.263,-4.2868,-4.3141,-4.3141,-4.3142,-4.3214,-4.3214,-4.3214,-4.3305,-4.3394,-4.3411,-4.3446,-4.3497,-4.3497,-4.3497,-4.3497,-4.3497,-4.3497,-4.3497,-4.3497,-4.3497,-4.3497,-4.3497,-4.3204,-4.2396,-4.1791,-4.102,-4.001,-3.935,-3.8927,-3.8726,-3.8505,-3.8395,-3.8395,-3.7624,-3.7016,-3.6642,-3.5642,-3.4947,-3.4609,-3.4173,-3.405,-3.4211,-3.486,-3.5917,-3.7347,-3.7275,-3.7377,-3.0579,-3.2856,-3.4998,-3.5484,-3.4709,-3.339,-3.1671,-2.9236,-2.6738,-2.4714,-2.2863,-2.1752,-2.2238,-2.2728,-2.4177,-2.7547,-2.9226,-3.1262,-3.4665,-3.5701,-3.6416,-3.7233,-3.7859,-3.8137,-3.8003,-3.794,-3.8029,-3.8388,-3.8115,-3.8784,-4.0768,-4.125,-4.1855,-4.274,-4.276,-4.3306,-4.4402,-4.4354,-4.4177,-4.3849,-4.337,-4.3564,-4.434,-4.3556,-4.3178,-4.3141,0.0,-4.223,-4.223,-4.2249,-4.2503,-4.2882,-4.2882,-4.2882,-4.2882,-4.2882,-4.2882,-4.2882,-4.2882,-4.2882,-4.2882,-4.2882,-4.2882,-4.2882,-4.2882,-4.2938,-4.2994,-4.2994,-4.3031,-4.3087,-4.3087,-4.3105,-4.316,-4.3251,-4.3269,-4.334,-4.3446,-4.3446,-4.3463,-4.3479,-4.3497,-4.3497,-4.3497,-4.3497,-4.3497,-4.3497,-4.3497,-4.3332,-4.2873,-4.2121,-4.1185,-4.001,-3.9496,-3.9074,-3.8726,-3.8707,-3.8707,-3.8707,-3.8267,-3.7937,-3.7718,-3.6676,-3.6021,-3.5832,-3.5219,-3.5009,-3.5235,-3.5834,-3.6777,-3.8089,-3.8173,-3.821,-3.1821,-3.3812,-3.5577,-3.5554,-3.4154,-3.23,-3.0622,-2.8075,-2.5457,-2.3178,-2.204,-2.1429,-2.1425,-2.1528,-2.2724,-2.6139,-2.7364,-2.9166,-3.2779,-3.44,-3.5599,-3.6671,-3.7909,-3.8679,-3.8666,-3.8637,-3.8995,-3.9807,-4.0046,-4.0167,-4.0167,-4.1971,-4.2997,-4.3023,-4.3441,-4.3651,-4.349,-4.2834,-4.2852,-4.349,-4.2585,-4.2627,-4.3466,-4.3068,-4.2955,-4.3045,-4.2936,-4.2955,-4.3045,-4.3045,-4.3045,-4.3045,-4.3045,-4.2973,-4.2882,-4.2882,-4.2882,-4.2882,-4.2882,-4.2882,-4.2882,-4.2882,-4.2882,-4.2882,-4.2882,-4.2882,-4.2882,-4.2882,-4.2882,-4.2882,-4.2882,-4.2994,-4.3067,-4.3104,-4.316,-4.3214,-4.3359,-4.3429,-4.3411,-4.3497,-4.3497,-4.3497,-4.3497,-4.3497,-4.3497,-4.3497,-4.3497,-4.3497,-4.3497,-4.28,-4.1717,-4.0212,-3.9955,-3.957,-3.8781,-3.8799,-3.8817,-3.8707,-3.8799,-3.8865,-3.8897,-3.7974,-3.7569,-3.7691,-3.6777,-3.6541,-3.7008,-3.7331,-3.7911,-3.872,-3.8952,-3.9017,-3.4074,-3.5078,-3.5483,-3.5383,-3.3133,-3.0481,-2.8681,-2.5783,-2.314,-2.1985,-2.1089,-2.0531,-2.0535,-2.112,-2.27,-2.6063,-2.7335,-2.9525,-3.4178,-3.5031,-3.5978,-3.808,-3.8452,-3.8779,-3.9422,-3.9378,-3.9726,0.0,-4.1318,-4.16,-4.1477,-4.1844,-4.2355,-4.3061,-4.2816,-4.2393,-4.1794,-4.1956,-4.1956,-4.1812,-4.2278,-4.3003,-4.3896,-4.3168,-4.3204,-4.3842,-4.3172,0.0,-4.3878,-4.3878,-4.3878,-4.3878,-4.3878,-4.348,-4.2882,-4.2882,-4.2882,-4.2882,-4.2882,-4.2882,-4.2882,-4.2882,-4.2882,-4.2882,-4.2882,-4.2882,-4.2882,-4.2882,-4.2882,-4.2882,-4.2882,-4.2938,-4.2938,-4.3049,-4.3104,-4.3178,-4.3359,-4.3446,-4.3497,-4.3497,-4.3497,-4.3497,-4.3497,-4.3497,-4.3497,-4.3497,-4.3497,-4.3497,-4.3497,-4.28,-4.1937,-4.1001,-4.0304,-3.957,-3.8781,-3.9313,-3.9405,-3.8744,-3.9313,-3.9124,-3.7824,-3.761,-3.7195,-3.6591,-3.6387,-3.6347,-3.6424,-3.7154,-3.7914,-3.8702,-3.8757,-3.9234,-3.3561,-3.471,-3.5245,-3.4237,-3.184,-2.914,-2.6998,-2.4235,-2.1884,-2.099,-2.0518,-2.0381,-2.0839,-2.127,-2.2502,-2.5438,-2.6235,-2.821,-3.315,-3.4068,-3.5267,-3.8115,-3.8715,-3.9027,-3.9352,-3.9408,-3.9783,-4.0715,-4.1496,-4.2042,-4.2408,-4.2032,-4.2106,-4.2828,-4.1796,-4.1252,-4.1346,-4.1105,-4.1105,-4.1346,-4.174,-4.2411,-4.3264,-4.2964,-4.3039,-4.3385,-4.3063,-4.3118,-4.3462,-4.3462,-4.3462,-4.3462,-4.3462,-4.3226,-4.2882,-4.2882,-4.2882,-4.2882,-4.2882,-4.2882,-4.2882,-4.2882,-4.2882,-4.2882,-4.2882,-4.2882,-4.2882,-4.2882,-4.2882,-4.2882,-4.2882,-4.2882,-4.2938,-4.2994,-4.3049,-4.325,-4.378,-4.3998,-4.4069,-4.4121,-4.4121,-4.3993,-4.3552,-4.3497,-4.3497,-4.3497,-4.3879,-4.4118,-4.4121,-4.3789,-4.3088,-4.1864,-4.1754,-4.1277,-4.0065,-4.0304,-4.0175,-3.9386,-3.968,-3.9368,-3.8175,-3.812,-3.7936,-3.7551,-3.7551,-3.7539,-3.7546,-3.7924,-3.8338,-3.8723,-3.898,-3.9249,-3.2781,-3.4243,-3.5097,-3.3273,-3.0797,-2.8115,-2.5606,-2.3055,-2.1022,-2.0348,-2.0203,-2.0403,-2.1092,-2.1235,-2.2015,-2.4341,-2.4818,-2.6485,-3.1058,-3.2487,-3.4186,-3.7267,-3.842,-3.9032,-3.9082,-3.921,-3.9626,-4.0531,-4.1232,-4.206,-4.3021,-4.2182,-4.1847,-4.2243,-4.0659,-4.019,-4.0978,-4.053,-4.053,-4.1035,-4.1658,-4.2221,-4.2588,-4.2829,-4.2997,-4.3018,-4.2897,-4.2991,-4.3154,-4.3154,-4.3154,-4.3154,-4.3154,-4.3045,-4.29,-4.3081,-4.3045,-4.29,-4.3081,-4.3027,-4.2882,-4.2882,-4.2882,-4.2918,-4.3099,-4.3154,-4.3154,-4.3154,-4.3154,-4.3118,-4.2936,-4.2882,-4.2882,-4.2882,-4.2994,-4.3322,-4.418,-4.451,-4.4656,-4.4912,-4.493,-4.4764,-4.4121,-4.3993,-4.3993,-4.4028,-4.454,-4.4945,-4.4966,-4.5129,-4.4577,-4.2983,-4.3075,-4.2653,-4.124,-4.1277,-4.102,-4.0212,-4.0322,-4.0047,-3.9258,-3.9221,-3.9129,-3.8964,-3.9129,-3.9038,-3.8707,-3.8934,-3.8929,-3.8701,-3.9137,-3.949,-3.3449,-3.4815,-3.5168,-3.3346,-3.0466,-2.7392,-2.4726,-2.2154,-2.0296,-2.022,-2.0197,-2.0211,-2.0307,-2.0381,-2.096,-2.2575,-2.3452,-2.5063,-2.8341,-3.0772,-3.3088,-3.5479,-3.7084,-3.8329,-3.9027,-3.9129,-3.9518,-4.0539,-4.0885,-4.1728,-4.3272,-4.1975,-4.1207,-4.1256,-3.9718,-3.9272,-4.0021,-4.0663,-4.0663,-4.0057,-4.2929,-4.365,-4.2521,-4.3202,-4.3629,-4.3758,-4.309,-4.3258,0.0,-4.3987,-4.3987,-4.3987,-4.3987,-4.3534,-4.2973,-4.3715,-4.3516,-4.2991,-4.3733,-4.3498,-4.2882,-4.2882,-4.2882,-4.3027,-4.3769,-4.3987,-4.3987,-4.3987,-4.3987,-4.3806,-4.3081,-4.2882,-4.2882,-4.2882,-4.2994,-4.3322,-4.4142,-4.4473,-4.4821,-4.5535,-4.5737,-4.5773,-4.5681,-4.5681,-4.5699,-4.5662,-4.5736,-4.5792,-4.5792,-4.6434,-4.6269,-4.4654,-4.324,-4.2047,-4.1185,-4.1772,-4.1864,-4.1056,-4.168,-4.1717,-4.0928,-4.0891,-4.0543,-3.979,-4.0506,-4.0175,-3.8707,-3.9686,-3.964,-3.8714,-3.8745,-4.031,-3.1333,-3.3292,-3.426,-3.1929,-2.9571,-2.7005,-2.3928,-2.1627,-2.0155,-2.0183,-2.019,-2.037,-2.0894,-2.0576,-2.0751,-2.2345,-2.2356,-2.3449,-2.7109,-2.8821,-3.1147,-3.5039,-3.6482,-3.7671,-3.8971,-3.9101,-3.9482,-4.0421,-4.0725,-4.1147,-4.1821,-4.0905,-4.061,-4.1074,-3.9611,-3.9165,-3.9896,-4.0235,-4.0699,-4.1359,-4.2626,-4.3161,-4.3078,-4.2982,-4.2974,-4.3037,-4.2793,-4.3138,0.0,-4.3394,-4.3776,-4.4632,-4.3692,-4.3749,-4.4313,-4.415,-4.3896,-4.3661,-4.3927,-4.3857,-4.3625,-4.3565,-4.393,-4.4222,-4.357,-4.3715,-4.4095,-4.4095,-4.4095,-4.4023,-4.3697,-4.3244,-4.2882,-4.2882,-4.2938,-4.3338,-4.474,-4.5089,-4.5403,-4.6225,-4.6504,-4.6396,-4.5938,-4.5865,-4.5883,-4.5901,-4.6305,-4.6617,-4.6617,-4.6911,-4.6654,-4.5535,-4.4856,-4.3956,-4.2653,-4.2837,-4.2671,-4.1882,-4.2121,-4.1937,-4.1148,-4.1111,-4.0965,-4.0634,-4.0946,-4.0928,-4.0611,-3.9753,-3.9626,-4.017,-4.1141,-4.1241,-2.8529,-3.0614,-3.1854,-2.9481,-2.7723,-2.5866,-2.3007,-2.1178,-2.0108,-2.0155,-2.0192,-2.0401,-2.0992,-2.06,-2.0535,-2.1625,-2.1578,-2.2472,-2.5527,-2.7401,-2.9872,-3.3626,-3.5163,-3.6593,-3.8228,-3.8822,-3.9333,-3.9888,-4.0047,-4.0154,-4.0322,-3.9839,-3.9843,-4.0396,-3.9147,-3.8808,-3.9575,-4.0039,-4.0699,-4.1591,-4.2519,-4.3036,-4.3144,-4.2905,-4.2803,-4.2826,-4.2656,-4.2893,0.0,-4.2843,-4.3296,-4.4259,-4.3159,-4.3635,-4.4889,-4.4545,-4.4418,-4.44,-4.4375,-4.4213,-4.402,-4.3743,-4.4072,-4.4385,-4.3226,-4.3788,-4.4802,-4.4802,-4.4458,-4.4095,-4.4095,-4.3679,-4.3299,-4.3534,-4.3607,-4.4025,-4.55,-4.5848,-4.6124,-4.6946,-4.7229,-4.7124,-4.6596,-4.6561,-4.658,-4.6617,-4.7076,-4.7463,-4.7462,-4.7443,-4.7169,-4.6342,-4.6049,-4.5241,-4.3626,-4.3497,-4.3259,-4.269,-4.2653,-4.2396,-4.1827,-4.1809,-4.1699,-4.1479,-4.1699,-4.1754,-4.1673,-4.062,-4.0469,-4.1135,-4.2749,-4.2467,-2.5318,-2.6787,-2.7658,-2.5975,-2.478,-2.3592,-2.1908,-2.0775,-2.0098,-2.0108,-2.0155,-2.0201,-2.0208,-2.0155,-2.0059,-1.9947,-2.1205,-2.2424,-2.3126,-2.6786,-2.9704,-3.0559,-3.2767,-3.4884,-3.6556,-3.8172,-3.9017,-3.8822,-3.8578,0.0,-3.9193,-3.8957,-3.8826,-3.8826,-3.8041,-3.7987,-3.8808,-4.0324,-4.0699,-3.9968,-4.3108,-4.3786,-4.2323,-4.3126,-4.3525,-4.356,-4.2826,-4.2526,0.0,-4.2609,-4.2609,-4.2627,-4.2609,-4.3192,-4.4101,-4.4895,-4.5147,-4.5111,-4.5147,-4.4624,-4.3776,-4.3036,-4.286,-4.29,-4.29,-4.4566,-4.6486,-4.6486,-4.5327,-4.4095,-4.4095,-4.4077,-4.4277,-4.5091,-4.5273,-4.549,-4.6305,-4.6585,-4.6939,-4.7738,-4.7929,-4.8032,-4.8169,-4.8169,-4.8208,-4.8249,-4.8288,-4.8288,-4.8306,-4.8288,-4.7994,-4.7186,-4.6379,-4.5241,-4.3626,-4.3497,-4.3497,-4.3479,-4.3479,-4.3461,-4.3461,-4.3461,-4.3094,-4.2304,-4.3057,-4.269,-4.113,-4.2686,-4.2631,-4.1137,-4.2746,-4.4113,-2.4234,-2.5434,-2.6141,-2.5586,-2.4706,-2.3544,-2.1827,-2.0719,-2.004,-2.0088,-2.0117,-2.0117,-2.0069,-2.004,-1.9971,-1.9793,-2.114,-2.2237,-2.2346,-2.5913,-2.9258,-3.1188,-3.5052,-3.771,0.0,0.0,-3.8803,-3.8559,-3.8285,-3.8194,-3.8363,-3.8115,-3.8237,-3.879,-3.8558,-3.854,-3.8808,-3.9789,-4.0699,-4.1538,-4.2555,-4.3054,-4.3108,-4.2804,-4.2703,-4.2685,-4.2065,-4.2363,-4.3155,-4.2214,-4.275,-4.3996,-4.2938,-4.3414,-4.47,-4.4952,-4.5042,-4.5024,-4.4941,-4.4821,-4.4502,-4.3611,-4.3858,-4.4447,-4.4447,-4.4672,-4.4965,-4.5526,-4.5707,-4.5617,-4.5055,-4.491,-4.4983,-4.5236,-4.5291,-4.5526,-4.6341,-4.6545,-4.6799,-4.7614,-4.7842,-4.7947,-4.805,-4.8148,-4.8226,-4.8267,-4.8306,-4.8306,-4.8306,-4.8306,-4.7994,-4.7205,-4.6854,-4.6085,-4.4453,-4.3828,-4.3497,-4.3497,-4.3497,-4.3497,-4.3497,-4.3497,-4.3369,-4.313,-4.3586,-4.3457,-4.2727,-4.3255,-4.3436,-4.3371,-4.4304,-4.4711,-2.2342,-2.3122,-2.3512,-2.3443,-2.2968,-2.224,-2.1168,-2.0442,-2.0011,-2.0089,-2.0108,-2.0079,-2.0088,-1.999,-1.9896,-1.9781,-2.1073,-2.2073,-2.2012,-2.5523,-2.9103,-3.1779,-3.5512,0.0,0.0,-3.8285,-3.8559,-3.8252,-3.8086,-3.7949,-3.7845,-3.7685,-3.7735,-3.8064,-3.8082,-3.8176,-3.8344,-3.9049,-4.0058,-4.1395,-4.1633,-4.2182,-4.3036,-4.2147,-4.1813,-4.1959,-4.1445,-4.1726,0.0,-4.1833,-4.2379,-4.3479,-4.278,-4.3494,-4.4899,-4.4899,-4.5096,-4.5311,-4.4922,-4.4659,-4.4324,-4.3476,-4.3688,-4.4281,-4.4303,-4.4654,-4.5037,-4.5236,-4.5888,-4.6377,-4.5888,-4.5743,-4.5834,-4.6142,-4.6214,-4.6341,-4.6848,-4.6957,-4.7102,-4.7609,-4.7759,-4.7842,-4.7947,-4.8028,-4.8126,-4.8247,-4.8247,-4.8286,-4.8306,-4.8306,-4.8122,-4.7627,-4.7276,-4.667,-4.57,-4.4581,-4.3828,-4.3516,-4.3497,-4.3497,-4.3497,-4.3497,-4.3497,-4.3497,-4.3716,-4.3781,-4.3682,-4.3882,-4.4231,-4.4761,-4.513,-4.5119,0.0,-2.0192,-2.0204,-2.0178,-2.0126,-2.0079,-2.006,-2.0011,0.0,-2.0078,-2.0079,-2.0098,-2.0145,-1.9966,-1.9818,-1.9934,-2.104,-2.1953,-2.2147,-2.5783,-2.9496,0.0,-3.4694,0.0,-3.5897,-3.7385,-3.8252,-3.7984,-3.7949,-3.781,-3.7577,-3.754,-3.7281,-3.686,-3.6821,-3.7034,-3.7503,-3.8196,-3.8946,-3.9797,-4.0471,-4.1311,-4.2145,-4.122,-4.1036,0.0,-4.0926,-4.0754,-4.0849,-4.1383,-4.1516,-4.1534,-4.2121,-4.3239,-4.4507,-4.4561,-4.5086,-4.5666,-4.4932,-4.4199,-4.3447,-4.2754,-4.2645,-4.2783,-4.2862,-4.4494,-4.6196,-4.549,-4.5888,-4.6522,-4.6576,-4.6595,-4.6776,-4.7536,-4.7717,-4.7717,-4.7717,-4.7717,-4.7717,-4.7717,-4.7717,-4.7759,-4.7861,-4.7902,-4.7984,-4.8166,-4.8187,-4.8226,-4.8267,-4.8306,-4.8306,-4.8306,-4.7645,-4.7167,-4.709,-4.5682,-4.4435,-4.3644,-4.3589,-4.3552,-4.3497,-4.3497,-4.3497,-4.3497,-4.3497,-4.3682,-4.4036,-4.4448,-4.4866,-4.5261,-4.5299,-4.5285,-1.9154,0.0,-1.9337,-1.9782,-1.9882,-1.9847,0.0,-1.972,-1.975,-1.9915,-1.9862,-1.9797,-1.9809,-1.972,-1.9814,-2.0348,-2.1266,-2.236,-2.3652,-2.8289,0.0,-3.3223,-3.5987,-3.7262,-3.582,-3.7145,-3.7984,-3.7721,-3.7339,-3.7132,-3.7073,-3.6724,-3.6481,-3.6357,-3.6079,-3.6122,-3.6522,-3.7837,-3.8597,-3.8834,-4.0153,-4.0943,-4.1128,-4.0896,-4.0849,-4.0943,-4.04,-4.0497,-4.0926,-4.0528,-4.0672,-4.1111,-4.1174,-4.1446,-4.1812,-4.2422,-4.2987,-4.3447,-4.3253,-4.3332,-4.3417,-4.2714,-4.2566,-4.2649,-4.2783,-4.3713,-4.4747,-4.5182,-4.5888,-4.6649,-4.7265,-4.7428,-4.7482,-4.7663,-4.7717,-4.7717,-4.7717,-4.7717,-4.7717,-4.7717,-4.7717,-4.7759,-4.7861,-4.7902,-4.7925,-4.805,-4.805,-4.809,-4.8226,-4.8226,-4.8247,-4.8306,-4.8141,-4.7772,-4.7145,-4.6176,-4.5278,-4.4453,-4.4433,-4.414,-4.3516,-4.3497,-4.3497,-4.3497,-4.3497,-4.3851,-4.4543,-4.433,-4.4458,-4.4857,-4.5166,-4.5285,-1.8262,-1.8648,-1.9277,-1.9152,-1.9394,-1.9626,-1.9504,-1.9532,-1.9606,-1.9657,-1.9688,-1.9701,-1.9701,-1.9612,-1.9815,-2.0578,-2.1366,-2.2828,-2.5671,-2.909,-3.2017,-3.3879,-3.576,-3.6829,0.0,-3.7325,-3.7667,-3.7319,-3.7034,-3.6821,-3.6603,-3.6357,-3.6105,-3.5933,-3.5688,-3.5776,-3.619,-3.732,-3.8069,-3.8525,-3.9603,-4.0368,-4.0802,-4.0319,-4.022,-4.04,-3.9868,-3.9885,-4.022,-4.0103,-4.0285,-4.0546,-4.0767,-4.1039,-4.1419,-4.1833,-4.2181,-4.2416,-4.2647,-4.2811,-4.2894,-4.2606,-4.2566,-4.2609,-4.2745,-4.315,-4.3788,-4.4965,-4.5888,-4.6703,-4.75,-4.7717,-4.7717,-4.7717,-4.7717,-4.7717,-4.7717,-4.7717,-4.7717,-4.7717,-4.7717,-4.7717,-4.7819,-4.7819,-4.7842,-4.7947,-4.7947,-4.8028,-4.8187,-4.8187,-4.8226,-4.8306,-4.7976,-4.7571,-4.7148,-4.6709,-4.6104,-4.5297,-4.5242,-4.4892,-4.4085,-4.4048,-4.3883,-4.3497,-4.3649,-4.3929,-4.4371,-4.4266,-4.4336,-4.4587,-4.4794,-4.4946,-1.7244,-1.8207,-1.9257,-1.8427,-1.8823,-1.9339,-1.9219,-1.9324,-1.9425,-1.932,-1.9439,-1.9567,-1.958,-1.9485,-1.9715,-2.0692,-2.1855,-2.4023,-2.7993,-2.9696,-3.151,-3.4268,-3.5119,0.0,-3.704,-3.7269,-3.7243,-3.6821,-3.6741,-3.6522,-3.6147,-3.5942,-3.5727,-3.5481,-3.538,-3.5542,-3.602,-3.6714,-3.75,-3.83,-3.8992,-3.9764,-4.0563,-3.9713,-3.9504,-3.9868,0.0,0.0,-3.9379,-3.9868,-4.0003,-3.9952,-4.0446,-4.1068,-4.1572,-4.1572,-4.1621,-4.175,-4.2334,-4.2361,-4.2205,-4.2405,-4.2526,-4.2627,-4.2745,-4.2894,-4.3371,-4.4729,-4.5707,-4.6504,-4.7319,-4.7627,-4.7717,-4.7717,-4.7717,-4.7717,-4.7717,-4.7717,-4.7717,-4.7717,-4.7717,-4.7717,-4.7717,-4.7717,-4.7759,-4.7861,-4.7861,-4.7943,-4.8126,-4.8148,-4.8226,-4.8286,-4.7662,-4.7241,-4.7131,-4.7223,-4.6947,-4.614,-4.6067,-4.5681,-4.4745,-4.4744,-4.4393,-4.3516,-4.3846,-4.4005,-4.4005,-4.4192,-4.4327,-4.4465,-4.4411,-4.4572,-1.5981,-1.6784,-1.7928,-1.79,-1.8348,-1.8789,-1.866,-1.8698,-1.8789,-1.8857,-1.8929,-1.8964,-1.9079,-1.8998,-1.9381,-2.0837,-2.4089,-2.7536,0.0,0.0,-3.3813,-3.4157,0.0,-3.6221,-3.5183,-3.5893,-3.6399,-3.6298,-3.5977,-3.5793,-3.5705,-3.4712,-3.4405,-3.5008,-3.4409,-3.4392,-3.5102,-3.6406,-3.7153,-3.7353,-3.8664,-3.9379,-3.952,-3.9379,-3.9325,-3.9415,0.0,-3.9379,-3.9501,-3.9468,-3.9468,-3.9573,-3.9556,-3.9623,-3.974,-3.974,-3.9967,-4.0423,-4.1359,-4.1666,-4.1709,-4.2187,-4.2387,-4.2526,-4.2627,-4.3213,-4.3888,-4.4222,-4.4856,-4.5671,-4.6486,-4.7192,-4.7717,-4.7717,-4.7717,-4.7717,-4.7717,-4.7717,-4.7717,-4.7717,-4.7717,-4.7717,-4.7717,-4.7717,-4.7717,-4.7717,-4.7717,-4.7801,-4.7943,-4.7988,-4.809,-4.8187,-4.8176,-4.7847,-4.7186,-4.7737,-4.7792,-4.6965,-4.691,-4.6269,-4.4764,-4.4949,-4.4595,-4.3497,-4.3846,-4.4005,-4.4005,-4.3763,-4.4023,-4.4726,-4.4493,-4.4695,-1.4914,-1.5243,-1.5906,-1.5958,-1.715,-1.8303,-1.8252,-1.8177,-1.8165,-1.8436,-1.8829,-1.9084,-1.8932,0.0,-2.0036,-2.201,0.0,-2.8309,-3.0241,-3.1433,-3.2567,0.0,0.0,-3.4888,-3.5404,-3.5901,-3.5933,-3.5343,-3.5111,-3.4722,-3.4052,-3.3877,-3.3955,-3.4286,-3.4352,-3.4551,-3.4899,-3.5976,-3.6721,-3.7119,-3.8576,-3.9272,-3.9272,-3.9272,-3.9272,-3.9272,0.0,-3.9325,-3.9395,-3.9325,-3.9342,-3.9395,-3.9325,-3.9272,-3.9272,-3.9272,-3.9592,-4.0053,-4.0528,-4.0861,-4.1202,-4.1727,-4.1959,-4.2145,-4.2468,-4.2936,-4.3382,-4.3403,-4.431,-4.549,-4.6287,-4.6776,-4.7174,-4.7609,-4.7717,-4.7717,-4.7717,-4.7717,-4.7717,-4.7717,-4.7717,-4.7717,-4.7717,-4.7717,-4.7717,-4.7717,-4.7717,-4.7759,-4.7861,-4.7925,-4.7824,-4.7466,-4.7529,-4.7276,-4.647,-4.6764,-4.7223,-4.7737,-4.7352,-4.6581,-4.5406,-4.5238,-4.4758,-4.38,-4.406,-4.4221,-4.4221,-4.4053,-4.4184,-4.4572,-4.4465,-4.4643,-1.4023,-1.421,-1.4572,-1.4534,-1.6052,-1.7531,-1.7538,-1.767,-1.7867,-1.8193,-1.8869,-1.9351,-1.9064,-1.9749,0.0,-2.3235,-2.5998,-2.837,-2.9811,-3.0459,-3.1544,-3.3565,-3.3283,-3.3694,-3.5616,-3.5548,-3.5078,-3.4391,-3.4206,-3.3678,-3.2757,-3.297,-3.3222,-3.3387,-3.3773,-3.4086,-3.4267,-3.5268,-3.6125,-3.687,-3.8328,-3.9023,-3.9023,-3.9206,-3.9272,-3.9272,-3.9272,-3.9272,-3.9272,-3.9272,-3.9272,-3.9272,-3.9272,-3.9272,-3.9272,-3.9272,-3.9504,-3.9868,-3.9952,-4.0252,-4.0689,-4.1157,-4.1472,-4.1753,-4.2163,-4.2633,-4.2979,-4.2838,-4.3873,-4.5164,-4.578,-4.6214,-4.6667,-4.7283,-4.7572,-4.7717,-4.7717,-4.7717,-4.7717,-4.7717,-4.7717,-4.7717,-4.7717,-4.7717,-4.7717,-4.7717,-4.7717,-4.7717,-4.7861,-4.7861,-4.7706,-4.7132,-4.7156,-4.6905,-4.6157,-4.5993,-4.6434,-4.7664,-4.7352,-4.6783,-4.6028,-4.5556,-4.4898,-4.4109,-4.4346,-4.4493,-4.4493,-4.4411,-4.4465,-4.4617,-4.4501,-4.465,-1.3428,-1.4232,-1.5093,-1.4908,-1.5505,-1.6131,-1.6131,-1.7134,-1.813,-1.8334,0.0,0.0,0.0,-2.0787,-2.2291,-2.39,-2.6201,-2.8611,-3.0959,0.0,-3.2921,-3.3973,-3.3642,-3.3693,-3.4532,-3.3627,-3.3184,-3.3786,-3.3205,-3.2774,-3.268,-3.1684,-3.144,-3.2106,-3.1646,-3.172,-3.2387,-3.4256,-3.5477,-3.6108,-3.7582,-3.8295,-3.8311,-3.8974,-3.9272,-3.9272,-3.9272,-3.9272,-3.9272,-3.9272,-3.9272,-3.9272,-3.9272,-3.9272,-3.9272,-3.9272,-3.9325,-3.9415,-3.9868,-4.0003,-4.0153,-4.0689,-4.1157,-4.1516,-4.1709,-4.2668,-4.3602,-4.2961,-4.3457,-4.4186,-4.4258,-4.5381,-4.6522,-4.6576,-4.7174,-4.7717,-4.7717,-4.7717,-4.7717,-4.7717,-4.7717,-4.7717,-4.7717,-4.7717,-4.7717,-4.7717,-4.7717,-4.7699,-4.7699,-4.7819,-4.7884,-4.7829,-4.7897,-4.763,-4.698,-4.6268,-4.5957,-4.6067,-4.6728,-4.6893,-4.6357,-4.5854,-4.519,-4.4393,-4.4624,-4.4776,-4.4776,-4.4519,-4.4695,-4.5235,-4.4834,-4.4877,-1.3018,-1.3551,-1.4127,-1.4063,-1.4766,-1.569,-1.6443,-1.7193,-1.7844,-1.8303,-1.9274,0.0,0.0,0.0,-2.1744,-2.3844,-2.5749,-2.7618,-2.9646,-3.0513,-3.1261,-3.2083,-3.2227,-3.256,-3.3295,-3.2979,-3.2613,-3.2464,-3.2183,-3.1835,-3.1371,-3.105,-3.1053,-3.1329,-3.1629,-3.1937,-3.2206,-3.3312,-3.4014,-3.4304,-3.6483,-3.7765,-3.8228,-3.8493,-3.8858,-3.9272,-3.9272,-3.9272,-3.9272,-3.9272,-3.9272,-3.9272,-3.9272,-3.9272,-3.9272,-3.9272,-3.9272,-3.9325,-3.9504,-3.954,-3.9644,-4.017,-4.0642,-4.1111,-4.1472,-4.2257,-4.2961,-4.2757,-4.2982,-4.3421,-4.3969,-4.4548,-4.5254,-4.6269,-4.6739,-4.7102,-4.7591,-4.7717,-4.7717,-4.7717,-4.7717,-4.7554,-4.7047,-4.7373,-4.7536,-4.7029,-4.7391,-4.7717,-4.7717,-4.7759,-4.7379,-4.6364,-4.6375,-4.6166,-4.5552,-4.6176,-4.6176,-4.5223,-4.592,-4.6066,-4.5363,-4.5513,-4.5218,-4.4421,-4.4862,-4.5109,-4.5109,-4.5,-4.5065,-4.5297,-4.5135,-4.5154,-1.2907,-1.3352,-1.3804,-1.3753,-1.4636,-1.5805,-1.6886,-1.7492,-1.7956,-1.8432,-1.9679,-2.0744,-2.0978,0.0,0.0,0.0,-2.5392,-2.6906,-2.8146,-2.8879,-2.951,-3.0051,-3.0401,-3.0974,-3.1901,-3.1785,-3.1593,-3.1386,-3.1318,-3.0912,-3.0103,-3.0218,-3.025,-3.0096,-3.071,-3.1067,-3.1067,-3.1894,-3.2437,-3.2688,-3.4613,-3.6118,-3.7242,-3.7645,-3.8261,-3.8941,-3.8941,-3.9056,-3.9272,-3.9272,-3.9272,-3.9272,-3.9272,-3.9272,-3.9272,-3.9272,-3.9272,-3.9272,-3.9272,-3.9272,-3.9362,-3.9679,-4.012,-4.0594,-4.0908,-4.1578,-4.2246,-4.2292,-4.2552,-4.2948,-4.3511,-4.3914,-4.4385,-4.549,-4.5943,-4.6341,-4.7156,-4.712,-4.7029,-4.7283,-4.712,-4.6866,-4.6558,-4.6757,-4.6848,-4.654,-4.6757,-4.7029,-4.7301,-4.7319,-4.6902,-4.5798,-4.5787,-4.5526,-4.4583,-4.557,-4.57,-4.438,-4.4943,-4.5178,-4.4884,-4.5102,-4.4993,-4.4538,-4.5042,-4.5297,-4.5297,-4.5297,-4.5297,-4.5297,-4.5297,-4.5297,-1.3106,-1.3797,-1.446,-1.4254,-1.5211,-1.6407,-1.7213,-1.7985,-1.8545,-1.877,-2.014,-2.1309,-2.1309,-2.2491,0.0,-2.3513,-2.5276,-2.6691,-2.6775,-2.7457,-2.8033,-2.8151,-2.8318,-2.8936,-3.0361,-2.9831,-2.979,-3.0778,-3.0635,-3.0054,-2.9166,-2.9074,-2.8826,-2.8304,-2.8474,-2.8607,-2.8607,-2.9806,-3.0741,-3.1366,-3.1914,-3.3192,-3.5137,-3.6469,-3.75,-3.8195,-3.8212,-3.8609,-3.9255,-3.9309,-3.9272,-3.9272,-3.9272,-3.9272,-3.9272,-3.9272,-3.9272,-3.9272,-3.9272,-3.9272,-3.9272,-3.9272,-3.9644,-4.0003,-4.0003,-4.0797,-4.1709,-4.1692,-4.2234,-4.2783,-4.2783,-4.3439,-4.4077,-4.4095,-4.4711,-4.5508,-4.6305,-4.5852,-4.5544,-4.6341,-4.5852,-4.5544,-4.6341,-4.5816,-4.5562,-4.6359,-4.5816,-4.5599,-4.6413,-4.6504,-4.6504,-4.6504,-4.6604,-4.603,-4.4413,-4.4473,-4.4272,-4.3431,-4.3781,-4.4358,-4.5157,-4.4662,-4.4519,-4.4776,-4.5132,-4.5297,-4.5297,-4.5297,-4.5297,-4.5297,-4.5297,-4.5297,-1.3337,-1.4056,-1.4847,-1.5472,-1.6256,-1.7085,-1.7807,-1.8237,0.0,0.0,-2.0523,-2.0742,-2.1228,-2.1276,0.0,-2.327,-2.4048,-2.481,-2.5816,-2.6661,-2.7179,-2.7218,-2.7771,-2.8382,-2.8857,-2.8692,-2.8582,-2.8621,-2.8583,-2.8472,-2.8405,-2.8059,-2.8,-2.8273,-2.8474,-2.8607,-2.8607,-2.9448,-2.9924,-3.012,-3.0695,-3.2424,-3.5121,-3.5122,-3.5954,-3.7399,-3.7547,-3.7666,-3.7781,-3.8311,-3.8825,-3.9272,-3.9272,-3.9272,-3.9272,-3.9272,-3.9272,-3.9272,-3.9272,-3.9272,-3.9272,-3.9272,-3.9644,-4.0003,-4.0003,-4.048,-4.1065,-4.1122,-4.163,-4.2192,-4.2239,-4.2757,-4.3389,-4.3969,-4.4277,-4.4675,-4.549,-4.5472,-4.5363,-4.5617,-4.5454,-4.52,-4.4874,-4.5073,-4.5182,-4.4856,-4.5091,-4.5599,-4.6413,-4.6015,-4.5653,-4.5653,-4.5711,-4.5098,-4.3595,-4.4034,-4.4181,-4.3701,-4.3791,-4.4016,-4.4339,-4.4561,-4.4624,-4.4519,-4.5042,-4.5173,-4.4957,-4.5173,-4.5297,-4.5297,-4.5297,-4.5297,-1.3231,-1.3946,-1.472,-1.5826,-1.6644,-1.7454,-1.8423,-1.8827,-1.942,0.0,-2.0892,-2.0823,-2.1244,-2.1212,0.0,-2.2831,-2.3545,-2.4078,-2.4677,-2.5712,-2.6238,-2.5977,-2.6711,-2.7289,-2.7418,-2.7434,-2.7348,-2.7127,-2.7285,-2.7291,-2.7115,-2.7242,-2.7379,-2.7616,-2.8017,-2.8188,-2.8188,-2.8577,-2.8921,-2.919,-2.9516,-3.0928,-3.3216,-3.3398,-3.4487,-3.6368,-3.697,-3.7157,-3.7135,-3.7599,-3.8013,-3.8411,-3.8411,-3.8593,-3.8858,-3.8858,-3.9023,-3.9272,-3.9272,-3.9272,-3.9272,-3.9272,-3.9504,-3.9731,-3.9731,-4.007,-4.0497,-4.0559,-4.1168,-4.1839,-4.1888,-4.2378,-4.2989,-4.3498,-4.3607,-4.3824,-4.4639,-4.4566,-4.444,-4.4765,-4.4566,-4.4277,-4.4132,-4.424,-4.4277,-4.4114,-4.4512,-4.5001,-4.549,-4.5399,-4.5182,-4.4856,-4.482,-4.4334,-4.3121,-4.3652,-4.3958,-4.373,-4.4042,-4.4221,-4.4317,-4.4617,-4.4726,-4.4572,-4.5042,-4.5194,-4.5,-4.5194,-4.5297,-4.5297,-4.5297,-4.5297,-1.3011,-1.3616,-1.4276,-1.5719,-1.6786,-1.7838,-1.9102,-1.9639,-2.0083,-2.0815,0.0,-2.1228,-2.1228,-2.1762,-2.2248,-2.2377,-2.3462,-2.411,-2.3594,-2.472,-2.5359,-2.474,-2.5383,-2.5977,-2.6174,-2.6198,-2.6145,-2.5983,-2.6411,-2.6311,-2.5556,-2.6473,-2.6869,-2.6497,-2.7081,-2.7445,-2.7445,-2.7505,-2.7799,-2.8427,-2.8472,-2.913,-3.0274,-3.1455,-3.3042,-3.5004,-3.6286,-3.6936,-3.7102,-3.7036,-3.7052,-3.7102,-3.7102,-3.7516,-3.8112,-3.8112,-3.856,-3.9172,-3.9172,-3.9222,-3.9272,-3.9272,-3.9272,-3.9272,-3.9272,-3.9592,-3.9969,-3.9969,-4.075,-4.1604,-4.1604,-4.2192,-4.2822,-4.2862,-4.29,-4.3081,-4.3824,-4.3407,-4.3118,-4.3842,-4.3389,-4.3118,-4.386,-4.3371,-4.3136,-4.3878,-4.3987,-4.4023,-4.4077,-4.4729,-4.491,-4.4168,-4.4095,-4.3769,-4.2955,-4.3267,-4.3545,-4.3646,-4.4308,-4.477,-4.4821,-4.4838,-4.4843,-4.48,-4.5132,-4.5277,-4.5256,-4.5297,-4.5297,-4.5297,-4.5297,-4.5297,-1.3672,-1.4082,-1.4671,-1.6908,-1.8555,-1.9718,-2.0027,-2.0208,-2.0283,-2.0052,-2.0286,-2.0532,-2.0532,-2.0645,-2.1115,-2.2216,-2.2653,-2.2993,-2.3448,-2.4227,-2.4697,-2.4551,-2.5199,-2.5573,-2.5376,-2.5353,-2.5082,-2.4432,-2.4575,-2.4706,-2.4745,-2.5017,-2.5378,-2.5794,-2.5959,-2.6033,-2.6033,-2.6542,-2.6871,-2.7036,-2.7545,-2.8246,-2.9011,-2.9781,-3.1464,-3.3714,-3.4422,-3.5627,-3.7069,-3.6489,-3.6589,-3.7102,-3.7102,-3.7201,-3.735,-3.735,-3.7814,-3.8444,-3.8444,-3.8808,-3.9272,-3.9272,-3.9272,-3.9272,-3.9272,-3.9362,-3.9468,-3.9468,-4.0235,-4.1059,-4.1059,-4.1948,-4.2783,-4.2822,-4.2862,-4.2936,-4.3118,-4.3009,-4.2936,-4.3118,-4.3009,-4.2936,-4.3118,-4.3009,-4.2955,-4.3118,-4.3154,-4.3371,-4.4023,-4.424,-4.4277,-4.4114,-4.4095,-4.3769,-4.2955,-4.2995,-4.332,-4.3881,-4.4095,-4.4438,-4.5014,-4.5129,-4.5087,-4.4819,-4.5132,-4.5173,-4.491,-4.5173,-4.5297,-4.5297,-4.5297,-4.5297,-1.2771,-1.3457,-1.4485,-1.6677,-1.8097,-1.8985,-1.9134,-1.93,-1.9262,-1.8717,-1.9716,-2.0602,-2.034,-2.0564,-2.1034,-2.1762,-2.202,-2.2144,-2.2192,-2.2933,-2.3406,-2.325,-2.3713,-2.3977,-2.3732,-2.3577,-2.3222,-2.2652,-2.2652,-2.279,-2.2992,-2.3644,-2.4119,-2.4506,-2.5131,-2.5506,-2.5506,-2.5896,-2.6273,-2.6587,-2.6931,-2.7455,-2.8143,-2.9403,-3.0683,-3.1977,-3.309,-3.4202,-3.5202,-3.5382,-3.5694,-3.6075,-3.6439,-3.6572,-3.6622,-3.6986,-3.735,-3.7731,-3.8096,-3.846,-3.8825,-3.9172,-3.9272,-3.9272,-3.9272,-3.9272,-3.9272,-3.9272,-4.007,-4.0844,-4.0844,-4.1753,-4.2645,-4.2645,-4.2765,-4.2882,-4.2882,-4.2882,-4.2882,-4.2882,-4.2882,-4.2882,-4.2882,-4.2882,-4.2882,-4.2882,-4.2882,-4.3045,-4.3462,-4.3516,-4.3516,-4.3516,-4.3516,-4.3353,-4.2918,-4.3178,-4.3557,-4.3924,-4.428,-4.4643,-4.5057,-4.5148,-4.5129,-4.5,-4.5151,-4.5173,-4.5045,-4.5194,-4.5297,-4.5297,-4.5297,-4.5297,-1.1734,-1.2934,-1.4373,-1.5914,-1.6878,-1.7552,-1.7794,-1.7955,-1.7945,-1.7434,-1.904,-2.0445,-2.0102,-2.0473,-2.0893,-2.1119,-2.1386,-2.1342,-2.0758,-2.1588,-2.2092,-2.1749,-2.2118,-2.2315,-2.2126,-2.187,-2.157,-2.1208,-2.1167,-2.1263,-2.1344,-2.2404,-2.3039,-2.3098,-2.4236,-2.4904,-2.507,-2.5297,-2.5672,-2.6258,-2.6482,-2.6871,-2.749,-2.9068,-2.9935,-3.0335,-3.2029,-3.287,-3.3177,-3.4114,-3.4601,-3.4767,-3.5379,-3.5694,-3.5876,-3.6506,-3.6887,-3.7201,-3.7814,-3.8096,-3.8328,-3.904,-3.9272,-3.9272,-3.9272,-3.9272,-3.9325,-3.9415,-4.0087,-4.0802,-4.0896,-4.1701,-4.2503,-4.2503,-4.2667,-4.2844,-4.2862,-4.29,-4.29,-4.29,-4.2882,-4.2882,-4.2882,-4.2882,-4.2882,-4.2882,-4.2882,-4.2882,-4.2882,-4.2882,-4.2882,-4.2882,-4.2882,-4.292,-4.2995,-4.3422,-4.3786,-4.3881,-4.443,-4.4758,-4.4808,-4.4924,-4.4995,-4.5084,-4.517,-4.5235,-4.5297,-4.5297,-4.5297,-4.5297,-4.5297,-4.5297,-1.2515,-1.3939,-1.5277,-1.535,-1.6444,-1.7504,-1.7552,-1.7569,-1.752,0.0,-1.7773,-1.8435,-1.8845,-1.8944,-1.9311,-2.0424,-2.0506,-2.0385,-2.0292,-2.0956,-2.144,-2.1383,-2.1988,-2.2217,-2.1792,-2.1729,-2.1515,-2.107,-2.1126,-2.1208,-2.1222,-2.1506,-2.1901,-2.242,-2.2612,-2.3052,-2.3762,-2.4357,-2.473,-2.4896,-2.6048,-2.6632,-2.6722,-2.6984,-2.7974,-2.9589,-3.084,-3.2047,-3.3096,-3.3011,-3.3359,-3.3955,-3.4054,-3.4485,-3.5048,-3.5148,-3.6009,-3.7119,-3.7218,-3.7682,-3.8328,-3.904,-3.9272,-3.9272,-3.9272,-3.9272,-3.9362,-3.9782,-4.0351,-4.0896,-4.1293,-4.1977,-4.2503,-4.2503,-4.2548,-4.2688,-4.2783,-4.2822,-4.2804,-4.29,-4.2882,-4.2882,-4.2882,-4.2882,-4.2882,-4.2882,-4.2882,-4.2882,-4.2882,-4.2882,-4.2882,-4.2882,-4.2882,-4.3014,-4.3301,-4.3142,-4.3266,-4.3849,-4.3721,-4.3735,-4.4035,-4.4327,-4.4538,-4.4599,-4.4995,-4.5235,-4.5297,-4.5297,-4.5297,-4.5297,-4.5297,-4.5297,-1.2384,-1.2762,-1.3228,-1.4028,-1.4774,-1.5427,-1.607,-1.622,-1.6195,-1.6204,-1.6451,-1.7073,-1.8444,-1.8841,-1.9294,-2.0289,-2.0085,-1.9788,-1.9788,-1.9951,-2.0167,-2.04,-2.0496,-2.0565,-2.058,-2.0391,-2.0162,-1.9928,-1.9982,-2.0021,-2.0021,-2.0465,-2.0786,-2.1079,-2.1457,-2.1863,-2.2199,-2.2579,-2.314,-2.3896,-2.5233,-2.5905,-2.5938,-2.5905,-2.6801,-2.8449,-2.9255,-3.0321,-3.155,-3.2508,-3.3014,-3.3292,-3.4551,-3.4717,-3.4369,-3.5214,-3.5926,-3.6555,-3.697,-3.7599,-3.8328,-3.904,-3.9272,-3.9379,-3.9592,-3.9679,-3.9782,-4.0319,-4.0832,-4.1248,-4.1445,-4.1959,-4.2405,-4.2405,-4.2427,-4.245,-4.2606,-4.2724,-4.2822,-4.29,-4.2882,-4.2882,-4.2882,-4.2882,-4.2882,-4.2882,-4.2882,-4.2882,-4.2882,-4.2882,-4.2882,-4.2882,-4.2882,-4.2957,-4.3124,-4.3142,-4.3301,-4.359,-4.3656,-4.3849,-4.4184,-4.4327,-4.4511,-4.4783,-4.5038,-4.517,-4.5235,-4.5297,-4.5297,-4.5297,-4.5297,-4.5297,-1.2167,-1.1794,-1.1635,-1.2882,-1.3342,-1.3725,-1.4653,-1.4972,-1.5147,0.0,-1.5507,-1.6098,-1.782,-1.85,-1.9094,-1.9913,-1.966,-1.9347,-1.9347,-1.9213,-1.9176,-1.9508,-1.9288,-1.9213,-1.9508,-1.9288,-1.9101,-1.9101,-1.9101,-1.9101,-1.9101,-1.958,-1.9928,-2.0103,-2.0619,-2.102,-2.1208,-2.1344,-2.1946,-2.3039,-2.425,-2.4932,-2.5127,-2.5047,-2.5764,-2.7031,-2.774,-2.8728,-3.0052,-3.1726,-3.2427,-3.2619,-3.4574,-3.4671,-3.3909,-3.5199,-3.5678,-3.586,-3.6787,-3.735,-3.7798,-3.8709,-3.8874,-3.8814,-3.9177,-3.9261,-3.9446,-4.025,-4.0787,-4.1138,-4.1569,-4.2002,-4.2287,-4.2287,-4.2287,-4.2328,-4.2486,-4.2685,-4.2822,-4.29,-4.2882,-4.2882,-4.2882,-4.2882,-4.2882,-4.2882,-4.2882,-4.2882,-4.2882,-4.2882,-4.2882,-4.2882,-4.2882,-4.292,-4.3014,-4.3178,-4.3301,-4.3406,-4.3623,-4.3881,-4.4154,-4.4299,-4.4538,-4.4852,-4.4991,-4.5125,-4.5192,-4.5275,-4.5297,-4.5297,-4.5297,-4.5297,-1.2157,-1.1972,-1.2026,-1.2298,-1.2898,-1.3498,-1.3894,-1.4417,-1.4902,-1.5147,-1.5208,-1.5502,-1.6437,-1.7087,-1.7876,-1.9009,-1.8974,-1.8874,-1.9017,-1.9031,-1.9055,-1.9101,-1.9101,-1.9101,-1.9139,-1.9101,-1.9101,-1.9101,-1.9101,-1.9101,-1.9101,-1.913,-1.9449,-2.0074,-2.0132,-2.0502,-2.1208,-2.1344,-2.1724,-2.2361,-2.3054,-2.3762,-2.4336,-2.4336,-2.4752,-2.5479,-2.6572,-2.7814,-2.9169,-3.0212,-3.1052,-3.1758,-3.3045,-3.3576,-3.3686,-3.446,-3.4853,-3.5164,-3.6605,-3.6671,-3.6357,-3.7798,-3.7798,-3.7218,-3.7269,-3.7269,-3.7586,-3.9277,-3.9761,-4.0145,-4.1806,-4.2287,-4.2287,-4.2287,-4.2287,-4.2369,-4.257,-4.2706,-4.2822,-4.29,-4.2882,-4.2882,-4.2882,-4.2882,-4.2882,-4.2882,-4.2882,-4.2882,-4.2882,-4.2882,-4.2882,-4.2882,-4.2882,-4.3014,-4.3336,-4.3124,-4.305,-4.3371,-4.3406,-4.3422,-4.3456,-4.4046,-4.443,-4.443,-4.4808,-4.508,-4.5192,-4.5275,-4.5297,-4.5297,-4.5297,-4.5297,-1.2353,-1.1882,-1.1646,-1.1706,-1.2381,-1.3107,-1.3498,-1.4223,-1.4839,-1.4932,-1.4932,-1.5148,-1.5855,-1.6618,-1.7407,-1.8274,-1.8579,-1.8736,-1.8803,-1.8851,-1.8927,-1.9017,-1.9055,-1.904,-1.9101,-1.9101,-1.9101,-1.9101,-1.9101,-1.9101,-1.9101,-1.9101,-1.9089,-1.9088,-1.9049,-1.9202,-1.9441,-1.9895,-2.0388,-2.0907,-2.1958,-2.263,-2.2966,-2.3243,-2.3829,-2.4552,-2.4885,-2.6033,-2.7799,-2.9049,-2.9768,-3.0332,-3.1709,-3.2201,-3.2278,-3.3554,-3.4343,-3.4936,-3.5993,-3.6854,-3.7433,-3.7483,-3.7649,-3.7817,-3.7956,-3.7993,-3.8362,-4.0122,-4.0605,-4.0866,-4.1991,-4.2287,-4.2287,-4.2287,-4.2287,-4.2328,-4.2526,-4.2588,-4.2727,-4.2862,-4.2882,-4.2882,-4.2882,-4.2882,-4.2882,-4.2882,-4.2882,-4.2882,-4.2882,-4.2882,-4.2882,-4.2882,-4.3069,-4.3266,-4.3406,-4.3508,-4.359,-4.3721,-4.3721,-4.3818,-4.4016,-4.427,-4.4484,-4.4707,-4.49,-4.5014,-4.5061,-4.517,-4.5254,-4.5254,-4.5275,-4.5297,-1.2715,-1.2046,-1.1651,-1.1682,-1.2184,-1.2829,-1.3334,-1.4101,-1.4732,-1.4808,-1.4808,-1.4921,-1.5328,-1.6052,-1.6778,-1.7455,-1.7987,-1.8323,-1.8347,-1.8608,-1.8798,-1.8927,-1.8927,-1.8979,-1.904,-1.9078,-1.9078,-1.9101,-1.9101,0.0,-1.9101,-1.9101,-1.8898,-1.85,-1.8344,-1.8266,-1.8266,-1.8669,-1.9151,-1.9675,-2.0681,-2.1283,-2.1599,-2.2048,-2.2687,-2.3403,-2.3531,-2.4599,-2.6336,-2.7694,-2.844,-2.8983,-3.0784,-3.126,-3.1164,-3.2829,-3.3705,-3.4131,-3.5464,-3.6588,-3.7433,-3.7185,-3.7268,-3.7419,-3.7326,-3.7393,-3.7861,-3.9417,-3.9952,-4.0379,-4.1569,-4.2091,-4.2287,-4.2287,-4.2287,-4.2346,-4.2463,-4.2526,-4.2627,-4.2842,-4.2862,-4.2862,-4.29,-4.2882,-4.2882,-4.2882,-4.2882,-4.2882,-4.2882,-4.2882,-4.2957,-4.305,-4.3284,-4.344,-4.3557,-4.3786,-4.3912,-4.3912,-4.4004,-4.4184,-4.4383,-4.4511,-4.4681,-4.4895,-4.4943,-4.4967,-4.4967,-4.5103,-4.517,-4.517,-4.5254,-4.5275,0.0,0.0,0.0,-1.2291,-1.2384,-1.266,-1.3432,-1.407,-1.4547,-1.4763,-1.4808,-1.4794,-1.4808,-1.5286,-1.5904,-1.6522,-1.7169,-1.7627,-1.7709,-1.8262,-1.8711,-1.8784,-1.8784,-1.8836,-1.8993,-1.8993,-1.9031,-1.9101,-1.9101,-1.9101,-1.9101,-1.9064,-1.886,-1.85,-1.7988,-1.7747,-1.7787,-1.7787,-1.8113,-1.878,-1.921,-1.9753,-2.0358,-2.0837,-2.1351,-2.2004,-2.2598,-2.3569,-2.4805,-2.6098,-2.6999,-2.7821,-3.0253,-3.0847,-3.056,-3.2433,-3.2861,-3.2813,-3.4987,-3.5844,-3.6092,-3.6804,-3.6589,-3.5893,-3.5179,-3.5258,-3.5892,-3.712,-3.7753,-3.8589,-4.0602,-4.1698,-4.2287,-4.2287,-4.2287,-4.2346,-4.2463,-4.2503,-4.2544,-4.2763,-4.2802,-4.2822,-4.29,-4.29,-4.2882,-4.2882,-4.2882,-4.2882,-4.2882,-4.292,-4.305,-4.3371,-4.3406,-4.3557,-4.3881,-4.3912,-4.3943,-4.3943,-4.4242,-4.4411,-4.4411,-4.4732,-4.4895,-4.4895,-4.4895,-4.4895,-4.4895,-4.5014,-4.5103,-4.5103,-4.517,-4.5254,-1.4144,0.0,0.0,0.0,0.0,0.0,-1.3638,-1.4023,-1.4401,-1.4547,-1.4578,-1.4624,-1.4763,-1.4949,-1.5117,-1.53,-1.6607,-1.7604,-1.7627,-1.8162,-1.8595,-1.8697,-1.8736,-1.8774,-1.8836,-1.8941,-1.9031,0.0,-1.9078,-1.9101,-1.9101,-1.85,-1.8108,-1.7988,-1.7256,-1.7018,-1.7352,-1.7352,-1.7596,-1.8085,-1.8975,-1.9473,-1.9711,-2.0621,-2.109,-2.1307,-2.1975,-2.2454,-2.2904,-2.4634,-2.6195,-2.75,-2.8217,-2.9422,-3.0822,-3.144,-3.1952,-3.2469,-3.3676,-3.4495,-3.5086,-3.5283,-3.5993,-3.6704,-3.6034,-3.631,-3.7068,-3.8121,-3.8504,-3.8975,-4.0659,-4.1698,-4.2287,-4.2287,-4.2287,-4.2328,-4.2346,-4.2346,-4.2409,-4.2609,-4.2745,-4.2783,-4.2804,-4.2862,-4.2882,-4.2882,-4.2882,-4.2882,-4.2882,-4.3105,-4.3301,-4.3406,-4.3831,-4.4165,-4.4242,-4.4484,-4.4629,-4.4629,-4.4707,-4.4777,-4.4777,-4.4846,-4.4895,-4.4895,-4.4895,-4.4895,-4.4895,-4.4986,-4.5033,-4.5014,-4.5148,-4.5254,-1.4522,-1.4396,-1.4317,-1.3958,0.0,0.0,-1.3598,-1.3667,-1.3709,-1.3302,-1.331,-1.3481,-1.3744,-1.4142,-1.4415,-1.4415,-1.5764,-1.6817,-1.6817,-1.7576,-1.8138,-1.8214,-1.8478,-1.8673,-1.8736,-1.8851,-1.8941,-1.8993,-1.904,-1.9101,-1.9101,-1.8461,-1.7988,-1.7787,-1.7144,-1.682,-1.6905,-1.6905,-1.7018,-1.7269,-1.8098,-1.8549,-1.8767,-1.9577,-2.0189,-2.0654,-2.1293,-2.1743,-2.2106,-2.3438,-2.5035,-2.6733,-2.7534,-2.8748,-3.0218,-3.0814,-3.1323,-3.1841,-3.2618,-3.3479,-3.4296,-3.4592,-3.5382,-3.6107,-3.5734,-3.6215,-3.7007,-3.7562,-3.8238,-3.9022,-3.9914,-4.0717,-4.1306,-4.1306,-4.1306,-4.1306,-4.1306,-4.1306,-4.1542,-4.2382,-4.2627,-4.2745,-4.2783,-4.2842,-4.2882,-4.2882,-4.2882,-4.2882,-4.2882,-4.3178,-4.3456,-4.359,-4.4076,-4.4457,-4.4584,-4.4777,-4.4895,-4.4895,-4.4895,-4.4895,-4.4895,-4.4895,-4.4895,-4.4895,-4.4895,-4.4895,-4.4895,-4.4943,-4.501,-4.5038,-4.5125,-4.5213,-1.4591,-1.4465,-1.4479,-1.4607,-1.4609,0.0,-1.3598,-1.3382,-1.3041,-1.1908,-1.1939,-1.2223,-1.2536,-1.3341,-1.3934,-1.3934,-1.4875,-1.5604,-1.5674,-1.6803,-1.7604,-1.7604,-1.8138,-1.8556,-1.8673,-1.8736,-1.8851,-1.8955,-1.904,-1.9101,-1.9101,-1.8707,-1.8266,-1.7787,-1.7393,-1.6976,-1.6522,-1.6522,-1.6522,-1.6522,-1.6989,-1.7393,-1.7828,-1.8305,-1.9059,-2.0016,-2.0625,-2.1278,-2.1931,-2.2598,-2.3937,-2.5756,-2.7486,-2.8654,-2.9402,-3.0406,-3.0956,-3.1303,-3.1841,-3.2629,-3.3488,-3.4213,-3.4605,-3.4783,-3.4814,-3.5493,-3.6241,-3.6274,-3.7496,-3.8808,-3.8808,-3.9361,-3.9914,-3.9914,-3.9914,-3.9914,-3.9914,-3.9914,-4.036,-4.2034,-4.2422,-4.2541,-4.2727,-4.2842,-4.2882,-4.2882,-4.2882,-4.2882,-4.2882,-4.3178,-4.3523,-4.3849,-4.4213,-4.4557,-4.487,-4.4895,-4.4895,-4.4895,-4.4895,-4.4895,-4.4895,-4.4895,-4.4895,-4.4895,-4.4895,-4.4895,-4.4895,-4.4895,-4.4967,-4.5103,-4.5103,-4.517,-1.4948,-1.497,-1.5025,-1.5306,-1.526,0.0,-1.4701,-1.4492,-1.4177,-1.3595,-1.3543,-1.3646,-1.3875,-1.4092,-1.4219,-1.4219,-1.4525,-1.4957,-1.5618,-1.6803,-1.7604,-1.7604,-1.8138,-1.8517,-1.8556,-1.8634,-1.8711,-1.875,-1.8917,-1.9017,-1.9017,-1.8683,-1.8266,-1.7787,-1.7393,-1.6976,-1.6522,-1.6522,-1.6522,-1.6522,-1.6989,-1.7393,-1.7828,-1.8305,-1.8778,-1.9333,-1.9986,-2.0625,-2.1278,-2.241,-2.3852,-2.5461,-2.6409,-2.8352,-3.0516,-3.0231,-3.0843,-3.1783,-3.1329,-3.1401,-3.1872,-3.261,-3.3357,-3.4097,-3.4443,-3.5115,-3.5881,-3.6563,-3.775,-3.8808,-3.8808,-3.9361,-3.9914,-3.9914,-3.9914,-3.9914,-3.9914,-3.9914,-4.0199,-4.1203,-4.1522,-4.1854,-4.2541,-4.2786,-4.2882,-4.2882,-4.2882,-4.2882,-4.2882,-4.3178,-4.3523,-4.3849,-4.4213,-4.4557,-4.487,-4.4895,-4.4895,-4.4895,-4.4895,-4.4895,-4.4895,-4.4895,-4.4895,-4.4895,-4.4895,-4.4895,-4.4895,-4.4895,-4.4967,-4.5103,-4.5103,-4.517,-1.5017,-1.5108,0.0,-1.5501,-1.5664,0.0,0.0,-1.4603,-1.435,-1.3487,-1.3208,-1.3183,-1.3502,-1.3923,-1.4173,-1.3907,-1.447,-1.4952,-1.4998,-1.5937,-1.6663,-1.6663,-1.7492,-1.8054,-1.8054,-1.845,-1.8711,-1.8736,-1.8851,-1.8889,-1.8889,-1.876,-1.8344,-1.7679,-1.7516,-1.7144,-1.6479,-1.6479,-1.6522,-1.6522,-1.6735,-1.7186,-1.7787,-1.8028,-1.85,-1.9145,-1.9812,-2.0262,-2.0654,-2.1946,-2.3182,-2.4482,-2.6238,-2.8129,-2.9858,-2.9902,-3.0372,-3.0895,-3.0522,-3.0526,-3.0773,-3.1597,-3.2208,-3.2824,-3.364,-3.4465,-3.5209,-3.5872,-3.6807,-3.7612,-3.7612,-3.8183,-3.8754,-3.8754,-3.8754,-3.8754,-3.8754,-3.8754,-3.8986,-3.9807,-4.0047,-4.0538,-4.18,-4.2152,-4.2359,-4.2504,-4.254,-4.2757,-4.3316,-4.367,-4.3955,-4.4125,-4.4457,-4.4707,-4.4895,-4.4895,-4.4895,-4.4895,-4.4895,-4.4895,-4.4895,-4.4895,-4.4895,-4.4895,-4.4895,-4.4895,-4.4895,-4.4895,-4.4943,-4.5057,-4.5057,-4.5084,0.0,0.0,0.0,0.0,0.0,-1.5776,0.0,0.0,0.0,-1.3385,0.0,0.0,0.0,0.0,0.0,-1.3713,0.0,0.0,0.0,-1.4938,0.0,-1.5641,-1.6698,-1.75,-1.7664,-1.8304,-1.8774,-1.8822,-1.8798,-1.8798,-1.8798,-1.8784,-1.8383,-1.7516,-1.7598,-1.7269,-1.6392,-1.6436,-1.6479,-1.6522,-1.6522,-1.6976,-1.7787,-1.7787,-1.8266,-1.913,-1.9682,-1.9986,-2.0175,-2.1206,-2.2274,-2.3542,-2.6024,-2.7658,-2.8676,-2.9432,-2.9789,-2.9918,-2.9918,-2.9946,-3.0114,-3.0833,-3.1303,-3.1735,-3.2782,-3.3854,-3.4789,-3.5173,-3.5829,-3.6399,-3.6399,-3.6756,-3.7166,-3.7327,-3.7362,-3.7398,-3.7559,-3.7577,-3.7826,-3.8647,-3.8847,-3.9388,-4.0899,-4.1302,-4.1542,-4.1805,-4.2051,-4.2548,-4.3452,-4.3983,-4.4327,-4.4383,-4.4636,-4.4827,-4.4895,-4.4895,-4.4895,-4.4895,-4.4895,-4.4895,-4.4895,-4.4895,-4.4895,-4.4895,-4.4895,-4.4895,-4.4895,-4.4895,-4.4919,-4.4991,-4.4991,-4.5033,0.0,0.0,0.0,0.0,-1.5232,0.0,0.0,0.0,-1.5567,-1.5255,0.0,0.0,0.0,0.0,0.0,0.0,0.0,0.0,-1.4112,-1.4276,-1.4716,-1.5452,-1.6285,-1.7107,-1.7885,-1.8501,-1.8874,-1.8898,-1.8774,-1.8711,-1.8711,-1.876,-1.8383,-1.7516,-1.7516,-1.7144,-1.6392,-1.6392,-1.6436,-1.6522,-1.6522,-1.6976,-1.7787,-1.7787,-1.8266,-1.9101,-1.9174,-1.9551,-2.0117,-2.0262,-2.1511,-2.3434,-2.496,-2.6493,-2.7915,-2.8644,-2.9367,-2.9918,-2.9918,-2.9946,-3.0033,-3.0244,-3.0876,-3.1679,-3.2193,-3.3618,-3.5208,-3.5542,-3.6004,-3.6399,-3.6399,-3.5935,-3.565,-3.6363,-3.6542,-3.672,-3.7434,-3.7577,-3.7826,-3.8647,-3.8847,-3.9172,-4.0105,-4.0399,-4.0546,-4.0583,-4.1517,-4.2246,-4.2371,-4.3291,-4.4065,-4.4355,-4.443,-4.4584,-4.487,-4.4895,-4.4895,-4.4895,-4.4895,-4.4895,-4.4895,-4.4895,-4.4895,-4.4895,-4.4895,-4.4895,-4.4895,-4.4895,-4.4919,-4.4991,-4.4991,-4.5033,0.0,0.0,0.0,0.0,0.0,0.0,-1.548,0.0,-1.6303,0.0,0.0,0.0,0.0,0.0,0.0,0.0,-1.5029,0.0,0.0,0.0,-1.4446,-1.4874,0.0,0.0,-1.8372,-1.874,-1.8988,-1.9176,-1.8812,-1.8673,-1.8812,-1.8697,-1.8333,-1.7679,-1.7503,-1.7131,-1.6595,-1.6479,-1.6392,-1.6436,-1.6479,-1.685,-1.7475,-1.7679,-1.8147,-1.8745,-1.8988,-1.9261,-1.9551,-1.9943,-2.0774,-2.1926,-2.3223,-2.5123,-2.7203,-2.7899,-2.8628,-2.9243,-2.9243,-2.9562,-2.9989,-3.0146,-3.0683,-3.129,-3.1516,-3.2492,-3.3556,-3.3685,-3.4359,-3.5079,-3.5079,-3.5132,-3.5293,-3.5632,-3.5703,-3.5917,-3.672,-3.6899,-3.7131,-3.7951,-3.8131,-3.8257,-3.8579,-3.9192,-3.9698,-3.9908,-4.0965,-4.1977,-4.2642,-4.3765,-4.453,-4.4681,-4.4681,-4.4751,-4.4895,-4.4895,-4.4895,-4.4895,-4.4895,-4.4895,-4.4895,-4.4895,-4.4895,-4.4895,-4.4895,-4.4895,-4.4895,-4.4895,-4.4919,-4.4943,-4.4943,-4.4943,-1.4834,0.0,0.0,0.0,0.0,0.0,0.0,0.0,0.0,0.0,0.0,0.0,0.0,0.0,-1.6271,-1.5251,0.0,-1.5309,0.0,-1.4339,0.0,0.0,0.0,0.0,0.0,-1.876,-1.8936,-1.9228,-1.8774,-1.8581,-1.8798,-1.862,-1.8293,-1.7787,-1.7462,-1.7076,-1.671,-1.6423,-1.6306,-1.6362,-1.6436,-1.6735,-1.7144,-1.7475,-1.7948,-1.85,-1.8822,-1.8988,-1.9145,-1.9624,-2.0171,-2.0783,-2.1704,-2.3677,-2.6083,-2.6913,-2.7655,-2.8239,-2.8417,-2.901,-2.9702,-3.0054,-3.0468,-3.0902,-3.1145,-3.1815,-3.2529,-3.2721,-3.3576,-3.4365,-3.4151,-3.4508,-3.49,-3.49,-3.49,-3.5114,-3.5899,-3.6238,-3.656,-3.7148,-3.7434,-3.7577,-3.7577,-3.8277,-3.901,-3.9513,-4.0702,-4.1903,-4.2987,-4.4171,-4.4895,-4.4895,-4.4895,-4.4895,-4.4895,-4.4895,-4.4895,-4.4895,-4.4895,-4.4895,-4.4895,-4.4895,-4.4895,-4.4895,-4.4895,-4.4895,-4.4895,-4.4895,-4.4895,-4.4895,-4.4895,-4.4895,0.0,0.0,0.0,-1.4708,0.0,0.0,0.0,0.0,-1.5856,0.0,0.0,0.0,0.0,-1.7173,-1.699,-1.6428,-1.5866,0.0,0.0,-1.4938,-1.4748,-1.5141,0.0,0.0,0.0,-1.8389,-1.8707,0.0,-1.8659,-1.8517,-1.8517,-1.8517,-1.8293,-1.7787,-1.7393,-1.7018,-1.671,-1.625,-1.6088,-1.62,-1.6362,-1.6595,-1.6993,-1.7144,-1.7679,-1.85,-1.85,-1.8745,-1.9101,-1.9116,-1.9744,-2.0693,-2.0738,-2.2139,-2.4242,-2.5568,-2.6366,-2.6863,-2.751,-2.8322,-2.9153,-2.9805,-3.0189,-3.0551,-3.1249,-3.2121,-3.306,-3.3825,-3.4597,-3.5007,-3.4294,-3.4133,-3.4151,-3.4151,-3.4151,-3.4347,-3.5096,-3.5846,-3.6399,-3.6435,-3.7059,-3.7577,-3.7577,-3.7898,-3.8458,-3.9455,-4.0841,-4.2127,-4.3069,-4.4197,-4.4895,-4.4895,-4.4895,-4.4895,-4.4895,-4.4895,-4.4895,-4.4895,-4.4895,-4.4895,-4.4895,-4.4895,-4.4895,-4.4895,-4.4895,-4.4895,-4.4895,-4.4895,-4.4895,-4.4895,-4.4895,-4.4919,0.0,0.0,-1.4291,-1.4616,0.0,0.0,0.0,0.0,0.0,0.0,0.0,0.0,0.0,-1.706,-1.7016,-1.648,-1.6219,-1.5957,0.0,-1.5781,-1.6051,-1.6163,-1.6964,-1.7754,0.0,0.0,0.0,0.0,-1.7619,0.0,-1.8703,-1.8581,-1.8293,-1.7787,-1.7393,-1.6989,-1.6552,-1.6207,-1.6044,-1.6088,-1.6306,-1.6479,-1.6595,-1.7031,-1.7516,-1.8028,-1.8383,-1.8745,-1.9101,-1.9101,-1.9293,-1.9706,-2.0558,-2.1276,-2.2055,-2.3989,-2.5518,-2.6798,-2.7478,-2.7867,-2.8208,-2.8518,-2.905,-2.9593,-2.9949,-3.1002,-3.2147,-3.2457,-3.307,-3.3616,-3.3366,-3.3294,-3.3294,-3.3294,-3.3294,-3.3508,-3.4311,-3.5079,-3.5757,-3.6292,-3.7041,-3.7649,-3.781,-3.8119,-3.8391,-3.8627,-3.9937,-4.1016,-4.1432,-4.2529,-4.3474,-4.4042,-4.4118,-4.4326,-4.4857,-4.4895,-4.4895,-4.4895,-4.4895,-4.4895,-4.4895,-4.4895,-4.4895,-4.4895,-4.4895,-4.4895,-4.4895,-4.4895,-4.4895,-4.4895,-4.4895,-4.4895,-1.4244,-1.415,0.0,-1.4466,-1.4523,0.0,-1.488,0.0,-1.5647,0.0,0.0,0.0,0.0,-1.6667,-1.6873,-1.643,-1.6386,-1.6258,0.0,-1.6441,-1.6877,-1.6877,-1.7219,-1.768,-1.8408,0.0,-1.7255,-1.8939,-1.7612,-1.7311,0.0,-1.8464,-1.8095,-1.7787,-1.7269,-1.682,-1.6522,-1.6132,-1.5913,-1.5913,-1.6132,-1.6262,-1.6362,-1.6735,-1.7227,-1.7828,-1.8108,-1.8592,-1.9101,-1.9101,-1.9101,-1.9174,-2.0001,-2.0612,-2.1295,-2.3351,-2.5051,-2.6409,-2.7106,-2.7348,-2.7397,-2.7705,-2.8396,-2.9124,-2.944,-3.0535,-3.1696,-3.1932,-3.2648,-3.3241,-3.2955,-3.3098,-3.3241,-3.2987,-3.2916,-3.3098,-3.3937,-3.4472,-3.5132,-3.6185,-3.6809,-3.7327,-3.7774,-3.8086,-3.8423,-3.8915,-4.0102,-4.1023,-4.1205,-4.22,-4.2962,-4.3208,-4.3246,-4.3568,-4.4402,-4.4743,-4.4895,-4.4895,-4.4895,-4.4895,-4.4895,-4.4895,-4.4895,-4.4895,-4.4895,-4.4895,-4.4895,-4.4895,-4.4895,-4.4895,-4.4895,-4.4895]}]]